
<gpx xmlns="http://www.topografix.com/GPX/1/1" xmlns:gpxx="http://www.garmin.com/xmlschemas/GpxExtensions/v3" xmlns:xsi="http://www.w3.org/2001/XMLSchema-instance" version="1.1" creator="Adze - http://kobotsw.com/apps/adze" xsi:schemaLocation="http://www.topografix.com/GPX/1/1 http://www.topografix.com/GPX/1/1/gpx.xsd http://www.garmin.com/xmlschemas/GpxExtensions/v3 http://www.garmin.com/xmlschemas/GpxExtensionsv3.xsd">
    <metadata>
        <name>Untitled Document</name>
        <link href="http://www.garmin.com"></link>
        <time>2018-02-26T06:41:50.571Z</time>
    </metadata>
    <wpt lon="101.086987" lat="13.166680">
        <ele>116.000000</ele>
        <name>Firefly Chalet</name>
        <cmt>31-AUG-14 9:40:27</cmt>
        <desc>31-AUG-14 9:40:27</desc>
        <sym>Lodging</sym>
        <extensions>
            <gpxx:WaypointExtension xmlns:gpxx="http://www.garmin.com/xmlschemas/GpxExtensions/v3">
                <gpxx:DisplayMode>SymbolAndName</gpxx:DisplayMode>
            </gpxx:WaypointExtension>
        </extensions>
    </wpt>
    <trk>
        <name>Saturday</name>
        <extensions>
            <gpxx:TrackExtension xmlns:gpxx="http://www.garmin.com/xmlschemas/GpxExtensions/v3">
                <gpxx:DisplayColor>Red</gpxx:DisplayColor>
            </gpxx:TrackExtension>
        </extensions>
        <trkseg>
            <trkpt lon="101.087473" lat="13.166711">
                <ele>127.510000</ele>
                <time>2014-08-30T05:59:28Z</time>
            </trkpt>
            <trkpt lon="101.087443" lat="13.166726">
                <ele>126.550000</ele>
                <time>2014-08-30T05:59:36Z</time>
            </trkpt>
            <trkpt lon="101.087285" lat="13.166989">
                <ele>123.190000</ele>
                <time>2014-08-30T05:59:47Z</time>
            </trkpt>
            <trkpt lon="101.087323" lat="13.167362">
                <ele>120.780000</ele>
                <time>2014-08-30T05:59:55Z</time>
            </trkpt>
            <trkpt lon="101.087301" lat="13.167405">
                <ele>121.260000</ele>
                <time>2014-08-30T05:59:56Z</time>
            </trkpt>
            <trkpt lon="101.087274" lat="13.167443">
                <ele>120.300000</ele>
                <time>2014-08-30T05:59:57Z</time>
            </trkpt>
            <trkpt lon="101.087222" lat="13.167511">
                <ele>119.340000</ele>
                <time>2014-08-30T05:59:59Z</time>
            </trkpt>
            <trkpt lon="101.087210" lat="13.167701">
                <ele>117.420000</ele>
                <time>2014-08-30T06:00:03Z</time>
            </trkpt>
            <trkpt lon="101.087256" lat="13.167843">
                <ele>117.900000</ele>
                <time>2014-08-30T06:00:06Z</time>
            </trkpt>
            <trkpt lon="101.087388" lat="13.168027">
                <ele>116.460000</ele>
                <time>2014-08-30T06:00:10Z</time>
            </trkpt>
            <trkpt lon="101.087480" lat="13.168157">
                <ele>115.500000</ele>
                <time>2014-08-30T06:00:13Z</time>
            </trkpt>
            <trkpt lon="101.087649" lat="13.168157">
                <ele>116.940000</ele>
                <time>2014-08-30T06:00:19Z</time>
            </trkpt>
            <trkpt lon="101.087792" lat="13.168209">
                <ele>118.380000</ele>
                <time>2014-08-30T06:00:23Z</time>
            </trkpt>
            <trkpt lon="101.087885" lat="13.168378">
                <ele>117.420000</ele>
                <time>2014-08-30T06:00:28Z</time>
            </trkpt>
            <trkpt lon="101.087932" lat="13.168800">
                <ele>120.300000</ele>
                <time>2014-08-30T06:00:41Z</time>
            </trkpt>
            <trkpt lon="101.087917" lat="13.168821">
                <ele>120.300000</ele>
                <time>2014-08-30T06:00:42Z</time>
            </trkpt>
            <trkpt lon="101.087891" lat="13.168834">
                <ele>121.260000</ele>
                <time>2014-08-30T06:00:43Z</time>
            </trkpt>
            <trkpt lon="101.087861" lat="13.168841">
                <ele>120.780000</ele>
                <time>2014-08-30T06:00:44Z</time>
            </trkpt>
            <trkpt lon="101.087830" lat="13.168848">
                <ele>121.260000</ele>
                <time>2014-08-30T06:00:45Z</time>
            </trkpt>
            <trkpt lon="101.087271" lat="13.168980">
                <ele>123.190000</ele>
                <time>2014-08-30T06:01:02Z</time>
            </trkpt>
            <trkpt lon="101.086512" lat="13.169040">
                <ele>120.300000</ele>
                <time>2014-08-30T06:01:14Z</time>
            </trkpt>
            <trkpt lon="101.085441" lat="13.169150">
                <ele>117.900000</ele>
                <time>2014-08-30T06:01:29Z</time>
            </trkpt>
            <trkpt lon="101.084420" lat="13.169287">
                <ele>115.980000</ele>
                <time>2014-08-30T06:01:43Z</time>
            </trkpt>
            <trkpt lon="101.084350" lat="13.169280">
                <ele>117.420000</ele>
                <time>2014-08-30T06:01:44Z</time>
            </trkpt>
            <trkpt lon="101.082933" lat="13.168979">
                <ele>115.010000</ele>
                <time>2014-08-30T06:02:05Z</time>
            </trkpt>
            <trkpt lon="101.081991" lat="13.168517">
                <ele>113.090000</ele>
                <time>2014-08-30T06:02:20Z</time>
            </trkpt>
            <trkpt lon="101.081714" lat="13.168333">
                <ele>113.090000</ele>
                <time>2014-08-30T06:02:25Z</time>
            </trkpt>
            <trkpt lon="101.081664" lat="13.168314">
                <ele>111.170000</ele>
                <time>2014-08-30T06:02:26Z</time>
            </trkpt>
            <trkpt lon="101.081617" lat="13.168316">
                <ele>112.610000</ele>
                <time>2014-08-30T06:02:27Z</time>
            </trkpt>
            <trkpt lon="101.081576" lat="13.168343">
                <ele>111.170000</ele>
                <time>2014-08-30T06:02:28Z</time>
            </trkpt>
            <trkpt lon="101.081551" lat="13.168389">
                <ele>113.090000</ele>
                <time>2014-08-30T06:02:29Z</time>
            </trkpt>
            <trkpt lon="101.081542" lat="13.168441">
                <ele>111.170000</ele>
                <time>2014-08-30T06:02:30Z</time>
            </trkpt>
            <trkpt lon="101.081540" lat="13.168499">
                <ele>112.130000</ele>
                <time>2014-08-30T06:02:31Z</time>
            </trkpt>
            <trkpt lon="101.081393" lat="13.169493">
                <ele>110.690000</ele>
                <time>2014-08-30T06:02:47Z</time>
            </trkpt>
            <trkpt lon="101.081180" lat="13.170548">
                <ele>110.210000</ele>
                <time>2014-08-30T06:03:04Z</time>
            </trkpt>
            <trkpt lon="101.081176" lat="13.170780">
                <ele>111.170000</ele>
                <time>2014-08-30T06:03:09Z</time>
            </trkpt>
            <trkpt lon="101.081183" lat="13.170822">
                <ele>112.130000</ele>
                <time>2014-08-30T06:03:10Z</time>
            </trkpt>
            <trkpt lon="101.081391" lat="13.171531">
                <ele>112.610000</ele>
                <time>2014-08-30T06:03:30Z</time>
            </trkpt>
            <trkpt lon="101.081486" lat="13.171942">
                <ele>115.500000</ele>
                <time>2014-08-30T06:03:43Z</time>
            </trkpt>
            <trkpt lon="101.081475" lat="13.171972">
                <ele>115.980000</ele>
                <time>2014-08-30T06:03:44Z</time>
            </trkpt>
            <trkpt lon="101.081219" lat="13.172425">
                <ele>116.460000</ele>
                <time>2014-08-30T06:04:00Z</time>
            </trkpt>
            <trkpt lon="101.081204" lat="13.172874">
                <ele>118.380000</ele>
                <time>2014-08-30T06:04:15Z</time>
            </trkpt>
            <trkpt lon="101.081425" lat="13.173177">
                <ele>120.300000</ele>
                <time>2014-08-30T06:04:27Z</time>
            </trkpt>
            <trkpt lon="101.081635" lat="13.173492">
                <ele>121.740000</ele>
                <time>2014-08-30T06:04:40Z</time>
            </trkpt>
            <trkpt lon="101.081623" lat="13.173674">
                <ele>123.670000</ele>
                <time>2014-08-30T06:04:52Z</time>
            </trkpt>
            <trkpt lon="101.081629" lat="13.173677">
                <ele>122.710000</ele>
                <time>2014-08-30T06:05:04Z</time>
            </trkpt>
            <trkpt lon="101.081631" lat="13.173692">
                <ele>122.220000</ele>
                <time>2014-08-30T06:05:23Z</time>
            </trkpt>
            <trkpt lon="101.081626" lat="13.173784">
                <ele>121.260000</ele>
                <time>2014-08-30T06:05:36Z</time>
            </trkpt>
            <trkpt lon="101.081621" lat="13.173803">
                <ele>124.150000</ele>
                <time>2014-08-30T06:05:37Z</time>
            </trkpt>
            <trkpt lon="101.081605" lat="13.174248">
                <ele>126.070000</ele>
                <time>2014-08-30T06:05:54Z</time>
            </trkpt>
            <trkpt lon="101.081801" lat="13.174660">
                <ele>127.030000</ele>
                <time>2014-08-30T06:06:09Z</time>
            </trkpt>
            <trkpt lon="101.082193" lat="13.175214">
                <ele>127.510000</ele>
                <time>2014-08-30T06:06:29Z</time>
            </trkpt>
            <trkpt lon="101.082191" lat="13.175638">
                <ele>128.950000</ele>
                <time>2014-08-30T06:06:43Z</time>
            </trkpt>
            <trkpt lon="101.082099" lat="13.176133">
                <ele>128.950000</ele>
                <time>2014-08-30T06:07:00Z</time>
            </trkpt>
            <trkpt lon="101.082036" lat="13.176617">
                <ele>131.840000</ele>
                <time>2014-08-30T06:07:17Z</time>
            </trkpt>
            <trkpt lon="101.081992" lat="13.176888">
                <ele>132.320000</ele>
                <time>2014-08-30T06:07:26Z</time>
            </trkpt>
            <trkpt lon="101.082038" lat="13.177286">
                <ele>132.320000</ele>
                <time>2014-08-30T06:07:37Z</time>
            </trkpt>
            <trkpt lon="101.082238" lat="13.177693">
                <ele>132.800000</ele>
                <time>2014-08-30T06:07:51Z</time>
            </trkpt>
            <trkpt lon="101.082387" lat="13.178044">
                <ele>132.320000</ele>
                <time>2014-08-30T06:08:05Z</time>
            </trkpt>
            <trkpt lon="101.082301" lat="13.178192">
                <ele>132.320000</ele>
                <time>2014-08-30T06:08:16Z</time>
            </trkpt>
            <trkpt lon="101.082283" lat="13.178223">
                <ele>131.360000</ele>
                <time>2014-08-30T06:08:28Z</time>
            </trkpt>
            <trkpt lon="101.082308" lat="13.178200">
                <ele>132.320000</ele>
                <time>2014-08-30T06:08:33Z</time>
            </trkpt>
            <trkpt lon="101.082314" lat="13.178193">
                <ele>132.800000</ele>
                <time>2014-08-30T06:08:34Z</time>
            </trkpt>
            <trkpt lon="101.082402" lat="13.178075">
                <ele>132.320000</ele>
                <time>2014-08-30T06:08:46Z</time>
            </trkpt>
            <trkpt lon="101.082380" lat="13.177856">
                <ele>133.760000</ele>
                <time>2014-08-30T06:09:00Z</time>
            </trkpt>
            <trkpt lon="101.082382" lat="13.177849">
                <ele>132.800000</ele>
                <time>2014-08-30T06:09:15Z</time>
            </trkpt>
            <trkpt lon="101.082308" lat="13.177749">
                <ele>132.800000</ele>
                <time>2014-08-30T06:09:30Z</time>
            </trkpt>
            <trkpt lon="101.082155" lat="13.177537">
                <ele>132.320000</ele>
                <time>2014-08-30T06:09:47Z</time>
            </trkpt>
            <trkpt lon="101.082060" lat="13.177301">
                <ele>132.800000</ele>
                <time>2014-08-30T06:10:01Z</time>
            </trkpt>
            <trkpt lon="101.081992" lat="13.177114">
                <ele>132.320000</ele>
                <time>2014-08-30T06:10:14Z</time>
            </trkpt>
            <trkpt lon="101.082016" lat="13.176884">
                <ele>131.840000</ele>
                <time>2014-08-30T06:10:28Z</time>
            </trkpt>
            <trkpt lon="101.081997" lat="13.176866">
                <ele>131.360000</ele>
                <time>2014-08-30T06:10:45Z</time>
            </trkpt>
            <trkpt lon="101.081992" lat="13.176870">
                <ele>131.360000</ele>
                <time>2014-08-30T06:11:18Z</time>
            </trkpt>
            <trkpt lon="101.081986" lat="13.176840">
                <ele>131.360000</ele>
                <time>2014-08-30T06:11:51Z</time>
            </trkpt>
            <trkpt lon="101.082007" lat="13.176837">
                <ele>130.880000</ele>
                <time>2014-08-30T06:12:16Z</time>
            </trkpt>
            <trkpt lon="101.081990" lat="13.176847">
                <ele>129.430000</ele>
                <time>2014-08-30T06:12:23Z</time>
            </trkpt>
            <trkpt lon="101.081989" lat="13.176855">
                <ele>131.360000</ele>
                <time>2014-08-30T06:12:24Z</time>
            </trkpt>
            <trkpt lon="101.081971" lat="13.177094">
                <ele>131.840000</ele>
                <time>2014-08-30T06:12:39Z</time>
            </trkpt>
            <trkpt lon="101.082089" lat="13.177425">
                <ele>132.320000</ele>
                <time>2014-08-30T06:12:52Z</time>
            </trkpt>
            <trkpt lon="101.082331" lat="13.177822">
                <ele>133.280000</ele>
                <time>2014-08-30T06:13:11Z</time>
            </trkpt>
            <trkpt lon="101.082369" lat="13.178068">
                <ele>132.800000</ele>
                <time>2014-08-30T06:13:22Z</time>
            </trkpt>
            <trkpt lon="101.082266" lat="13.178425">
                <ele>132.800000</ele>
                <time>2014-08-30T06:13:36Z</time>
            </trkpt>
            <trkpt lon="101.082411" lat="13.178697">
                <ele>134.720000</ele>
                <time>2014-08-30T06:13:50Z</time>
            </trkpt>
            <trkpt lon="101.082467" lat="13.178755">
                <ele>135.680000</ele>
                <time>2014-08-30T06:13:54Z</time>
            </trkpt>
            <trkpt lon="101.082586" lat="13.178840">
                <ele>139.050000</ele>
                <time>2014-08-30T06:14:02Z</time>
            </trkpt>
            <trkpt lon="101.082869" lat="13.178898">
                <ele>140.490000</ele>
                <time>2014-08-30T06:14:19Z</time>
            </trkpt>
            <trkpt lon="101.083179" lat="13.178873">
                <ele>142.890000</ele>
                <time>2014-08-30T06:14:38Z</time>
            </trkpt>
            <trkpt lon="101.083478" lat="13.178928">
                <ele>145.300000</ele>
                <time>2014-08-30T06:14:56Z</time>
            </trkpt>
            <trkpt lon="101.083524" lat="13.178942">
                <ele>144.340000</ele>
                <time>2014-08-30T06:15:10Z</time>
            </trkpt>
            <trkpt lon="101.083528" lat="13.178926">
                <ele>144.820000</ele>
                <time>2014-08-30T06:15:19Z</time>
            </trkpt>
            <trkpt lon="101.083156" lat="13.178834">
                <ele>141.930000</ele>
                <time>2014-08-30T06:15:33Z</time>
            </trkpt>
            <trkpt lon="101.082928" lat="13.178852">
                <ele>141.450000</ele>
                <time>2014-08-30T06:15:37Z</time>
            </trkpt>
            <trkpt lon="101.082714" lat="13.178830">
                <ele>140.010000</ele>
                <time>2014-08-30T06:15:41Z</time>
            </trkpt>
            <trkpt lon="101.082461" lat="13.178690">
                <ele>137.610000</ele>
                <time>2014-08-30T06:15:47Z</time>
            </trkpt>
            <trkpt lon="101.082303" lat="13.178494">
                <ele>134.240000</ele>
                <time>2014-08-30T06:15:52Z</time>
            </trkpt>
            <trkpt lon="101.082279" lat="13.178222">
                <ele>133.280000</ele>
                <time>2014-08-30T06:15:58Z</time>
            </trkpt>
            <trkpt lon="101.082348" lat="13.177834">
                <ele>134.240000</ele>
                <time>2014-08-30T06:16:10Z</time>
            </trkpt>
            <trkpt lon="101.082187" lat="13.177608">
                <ele>132.320000</ele>
                <time>2014-08-30T06:16:18Z</time>
            </trkpt>
            <trkpt lon="101.082117" lat="13.177473">
                <ele>132.800000</ele>
                <time>2014-08-30T06:16:28Z</time>
            </trkpt>
            <trkpt lon="101.082107" lat="13.177428">
                <ele>132.320000</ele>
                <time>2014-08-30T06:16:38Z</time>
            </trkpt>
            <trkpt lon="101.082088" lat="13.177384">
                <ele>131.360000</ele>
                <time>2014-08-30T06:16:50Z</time>
            </trkpt>
            <trkpt lon="101.082064" lat="13.177337">
                <ele>130.880000</ele>
                <time>2014-08-30T06:17:03Z</time>
            </trkpt>
            <trkpt lon="101.082048" lat="13.177337">
                <ele>130.400000</ele>
                <time>2014-08-30T06:17:05Z</time>
            </trkpt>
            <trkpt lon="101.081737" lat="13.177434">
                <ele>128.470000</ele>
                <time>2014-08-30T06:17:19Z</time>
            </trkpt>
            <trkpt lon="101.081671" lat="13.177481">
                <ele>126.550000</ele>
                <time>2014-08-30T06:17:26Z</time>
            </trkpt>
            <trkpt lon="101.081661" lat="13.177492">
                <ele>130.400000</ele>
                <time>2014-08-30T06:17:27Z</time>
            </trkpt>
            <trkpt lon="101.081653" lat="13.177502">
                <ele>128.470000</ele>
                <time>2014-08-30T06:17:28Z</time>
            </trkpt>
            <trkpt lon="101.081454" lat="13.177778">
                <ele>126.070000</ele>
                <time>2014-08-30T06:17:43Z</time>
            </trkpt>
            <trkpt lon="101.081383" lat="13.177937">
                <ele>127.510000</ele>
                <time>2014-08-30T06:17:50Z</time>
            </trkpt>
            <trkpt lon="101.081301" lat="13.178305">
                <ele>126.070000</ele>
                <time>2014-08-30T06:18:07Z</time>
            </trkpt>
            <trkpt lon="101.081344" lat="13.178730">
                <ele>127.510000</ele>
                <time>2014-08-30T06:18:25Z</time>
            </trkpt>
            <trkpt lon="101.081565" lat="13.179120">
                <ele>127.510000</ele>
                <time>2014-08-30T06:18:43Z</time>
            </trkpt>
            <trkpt lon="101.081395" lat="13.179334">
                <ele>127.990000</ele>
                <time>2014-08-30T06:18:56Z</time>
            </trkpt>
            <trkpt lon="101.081267" lat="13.179590">
                <ele>127.990000</ele>
                <time>2014-08-30T06:19:09Z</time>
            </trkpt>
            <trkpt lon="101.081345" lat="13.179779">
                <ele>128.470000</ele>
                <time>2014-08-30T06:19:21Z</time>
            </trkpt>
            <trkpt lon="101.081370" lat="13.180042">
                <ele>130.400000</ele>
                <time>2014-08-30T06:19:35Z</time>
            </trkpt>
            <trkpt lon="101.081377" lat="13.180096">
                <ele>128.950000</ele>
                <time>2014-08-30T06:19:38Z</time>
            </trkpt>
            <trkpt lon="101.081414" lat="13.180400">
                <ele>130.880000</ele>
                <time>2014-08-30T06:19:54Z</time>
            </trkpt>
            <trkpt lon="101.081458" lat="13.180630">
                <ele>131.360000</ele>
                <time>2014-08-30T06:20:06Z</time>
            </trkpt>
            <trkpt lon="101.081512" lat="13.180804">
                <ele>132.320000</ele>
                <time>2014-08-30T06:20:17Z</time>
            </trkpt>
            <trkpt lon="101.081611" lat="13.181091">
                <ele>132.800000</ele>
                <time>2014-08-30T06:20:34Z</time>
            </trkpt>
            <trkpt lon="101.081745" lat="13.181397">
                <ele>132.800000</ele>
                <time>2014-08-30T06:20:51Z</time>
            </trkpt>
            <trkpt lon="101.081774" lat="13.181452">
                <ele>134.240000</ele>
                <time>2014-08-30T06:20:54Z</time>
            </trkpt>
            <trkpt lon="101.081974" lat="13.181824">
                <ele>136.160000</ele>
                <time>2014-08-30T06:21:16Z</time>
            </trkpt>
            <trkpt lon="101.082116" lat="13.182121">
                <ele>136.640000</ele>
                <time>2014-08-30T06:21:33Z</time>
            </trkpt>
            <trkpt lon="101.082187" lat="13.182286">
                <ele>138.570000</ele>
                <time>2014-08-30T06:21:42Z</time>
            </trkpt>
            <trkpt lon="101.082318" lat="13.182640">
                <ele>139.050000</ele>
                <time>2014-08-30T06:22:01Z</time>
            </trkpt>
            <trkpt lon="101.082359" lat="13.182882">
                <ele>141.450000</ele>
                <time>2014-08-30T06:22:16Z</time>
            </trkpt>
            <trkpt lon="101.082396" lat="13.183139">
                <ele>143.850000</ele>
                <time>2014-08-30T06:22:31Z</time>
            </trkpt>
            <trkpt lon="101.082402" lat="13.183157">
                <ele>143.850000</ele>
                <time>2014-08-30T06:22:32Z</time>
            </trkpt>
            <trkpt lon="101.082426" lat="13.183234">
                <ele>144.340000</ele>
                <time>2014-08-30T06:22:37Z</time>
            </trkpt>
            <trkpt lon="101.082447" lat="13.183293">
                <ele>142.890000</ele>
                <time>2014-08-30T06:22:41Z</time>
            </trkpt>
            <trkpt lon="101.082538" lat="13.183564">
                <ele>144.340000</ele>
                <time>2014-08-30T06:22:55Z</time>
            </trkpt>
            <trkpt lon="101.082576" lat="13.183774">
                <ele>148.660000</ele>
                <time>2014-08-30T06:23:08Z</time>
            </trkpt>
            <trkpt lon="101.082585" lat="13.183823">
                <ele>146.740000</ele>
                <time>2014-08-30T06:23:11Z</time>
            </trkpt>
            <trkpt lon="101.082620" lat="13.183965">
                <ele>150.580000</ele>
                <time>2014-08-30T06:23:20Z</time>
            </trkpt>
            <trkpt lon="101.082624" lat="13.183980">
                <ele>149.620000</ele>
                <time>2014-08-30T06:23:21Z</time>
            </trkpt>
            <trkpt lon="101.082713" lat="13.184333">
                <ele>150.100000</ele>
                <time>2014-08-30T06:23:42Z</time>
            </trkpt>
            <trkpt lon="101.082756" lat="13.184598">
                <ele>150.580000</ele>
                <time>2014-08-30T06:23:54Z</time>
            </trkpt>
            <trkpt lon="101.082844" lat="13.184896">
                <ele>153.470000</ele>
                <time>2014-08-30T06:24:13Z</time>
            </trkpt>
            <trkpt lon="101.082931" lat="13.185150">
                <ele>152.990000</ele>
                <time>2014-08-30T06:24:28Z</time>
            </trkpt>
            <trkpt lon="101.083019" lat="13.185343">
                <ele>156.350000</ele>
                <time>2014-08-30T06:24:41Z</time>
            </trkpt>
            <trkpt lon="101.083148" lat="13.185515">
                <ele>156.350000</ele>
                <time>2014-08-30T06:24:56Z</time>
            </trkpt>
            <trkpt lon="101.083269" lat="13.185650">
                <ele>159.240000</ele>
                <time>2014-08-30T06:25:09Z</time>
            </trkpt>
            <trkpt lon="101.083310" lat="13.185722">
                <ele>160.200000</ele>
                <time>2014-08-30T06:25:20Z</time>
            </trkpt>
            <trkpt lon="101.083369" lat="13.185839">
                <ele>162.600000</ele>
                <time>2014-08-30T06:25:36Z</time>
            </trkpt>
            <trkpt lon="101.083405" lat="13.185907">
                <ele>163.080000</ele>
                <time>2014-08-30T06:25:44Z</time>
            </trkpt>
            <trkpt lon="101.083567" lat="13.186099">
                <ele>165.480000</ele>
                <time>2014-08-30T06:26:06Z</time>
            </trkpt>
            <trkpt lon="101.083575" lat="13.186107">
                <ele>165.480000</ele>
                <time>2014-08-30T06:26:07Z</time>
            </trkpt>
            <trkpt lon="101.083718" lat="13.186251">
                <ele>167.890000</ele>
                <time>2014-08-30T06:26:28Z</time>
            </trkpt>
            <trkpt lon="101.083833" lat="13.186334">
                <ele>170.770000</ele>
                <time>2014-08-30T06:26:44Z</time>
            </trkpt>
            <trkpt lon="101.083843" lat="13.186332">
                <ele>169.330000</ele>
                <time>2014-08-30T06:26:45Z</time>
            </trkpt>
            <trkpt lon="101.084073" lat="13.186289">
                <ele>172.690000</ele>
                <time>2014-08-30T06:27:01Z</time>
            </trkpt>
            <trkpt lon="101.084170" lat="13.186286">
                <ele>173.170000</ele>
                <time>2014-08-30T06:27:19Z</time>
            </trkpt>
            <trkpt lon="101.084183" lat="13.186281">
                <ele>173.170000</ele>
                <time>2014-08-30T06:27:42Z</time>
            </trkpt>
            <trkpt lon="101.084190" lat="13.186282">
                <ele>172.210000</ele>
                <time>2014-08-30T06:28:04Z</time>
            </trkpt>
            <trkpt lon="101.084177" lat="13.186292">
                <ele>172.690000</ele>
                <time>2014-08-30T06:28:28Z</time>
            </trkpt>
            <trkpt lon="101.084169" lat="13.186284">
                <ele>173.170000</ele>
                <time>2014-08-30T06:28:59Z</time>
            </trkpt>
            <trkpt lon="101.084179" lat="13.186287">
                <ele>173.660000</ele>
                <time>2014-08-30T06:29:26Z</time>
            </trkpt>
            <trkpt lon="101.084167" lat="13.186282">
                <ele>172.690000</ele>
                <time>2014-08-30T06:29:41Z</time>
            </trkpt>
            <trkpt lon="101.084167" lat="13.186291">
                <ele>172.690000</ele>
                <time>2014-08-30T06:30:17Z</time>
            </trkpt>
            <trkpt lon="101.084170" lat="13.186281">
                <ele>172.690000</ele>
                <time>2014-08-30T06:30:49Z</time>
            </trkpt>
            <trkpt lon="101.084171" lat="13.186276">
                <ele>172.690000</ele>
                <time>2014-08-30T06:31:16Z</time>
            </trkpt>
            <trkpt lon="101.084174" lat="13.186274">
                <ele>173.170000</ele>
                <time>2014-08-30T06:31:52Z</time>
            </trkpt>
            <trkpt lon="101.084178" lat="13.186270">
                <ele>173.170000</ele>
                <time>2014-08-30T06:32:32Z</time>
            </trkpt>
            <trkpt lon="101.084177" lat="13.186268">
                <ele>173.660000</ele>
                <time>2014-08-30T06:33:02Z</time>
            </trkpt>
            <trkpt lon="101.084175" lat="13.186271">
                <ele>173.660000</ele>
                <time>2014-08-30T06:33:31Z</time>
            </trkpt>
            <trkpt lon="101.084178" lat="13.186276">
                <ele>172.690000</ele>
                <time>2014-08-30T06:33:54Z</time>
            </trkpt>
            <trkpt lon="101.084173" lat="13.186265">
                <ele>173.170000</ele>
                <time>2014-08-30T06:34:20Z</time>
            </trkpt>
            <trkpt lon="101.084174" lat="13.186268">
                <ele>172.690000</ele>
                <time>2014-08-30T06:34:48Z</time>
            </trkpt>
            <trkpt lon="101.084176" lat="13.186266">
                <ele>172.690000</ele>
                <time>2014-08-30T06:35:18Z</time>
            </trkpt>
            <trkpt lon="101.084170" lat="13.186266">
                <ele>173.660000</ele>
                <time>2014-08-30T06:35:51Z</time>
            </trkpt>
            <trkpt lon="101.084164" lat="13.186276">
                <ele>173.170000</ele>
                <time>2014-08-30T06:36:28Z</time>
            </trkpt>
            <trkpt lon="101.084168" lat="13.186270">
                <ele>173.170000</ele>
                <time>2014-08-30T06:36:52Z</time>
            </trkpt>
            <trkpt lon="101.084175" lat="13.186264">
                <ele>173.660000</ele>
                <time>2014-08-30T06:37:25Z</time>
            </trkpt>
            <trkpt lon="101.084185" lat="13.186271">
                <ele>173.170000</ele>
                <time>2014-08-30T06:38:05Z</time>
            </trkpt>
            <trkpt lon="101.084179" lat="13.186278">
                <ele>173.170000</ele>
                <time>2014-08-30T06:38:31Z</time>
            </trkpt>
            <trkpt lon="101.084173" lat="13.186282">
                <ele>173.170000</ele>
                <time>2014-08-30T06:38:56Z</time>
            </trkpt>
            <trkpt lon="101.084177" lat="13.186281">
                <ele>173.170000</ele>
                <time>2014-08-30T06:39:01Z</time>
            </trkpt>
            <trkpt lon="101.084267" lat="13.186256">
                <ele>173.660000</ele>
                <time>2014-08-30T06:39:11Z</time>
            </trkpt>
            <trkpt lon="101.084451" lat="13.186209">
                <ele>170.290000</ele>
                <time>2014-08-30T06:39:17Z</time>
            </trkpt>
            <trkpt lon="101.084648" lat="13.186141">
                <ele>167.410000</ele>
                <time>2014-08-30T06:39:21Z</time>
            </trkpt>
            <trkpt lon="101.084703" lat="13.186119">
                <ele>168.850000</ele>
                <time>2014-08-30T06:39:22Z</time>
            </trkpt>
            <trkpt lon="101.084978" lat="13.185876">
                <ele>165.000000</ele>
                <time>2014-08-30T06:39:30Z</time>
            </trkpt>
            <trkpt lon="101.085009" lat="13.185736">
                <ele>164.520000</ele>
                <time>2014-08-30T06:39:34Z</time>
            </trkpt>
            <trkpt lon="101.085216" lat="13.185504">
                <ele>166.450000</ele>
                <time>2014-08-30T06:39:47Z</time>
            </trkpt>
            <trkpt lon="101.085521" lat="13.185353">
                <ele>163.560000</ele>
                <time>2014-08-30T06:40:02Z</time>
            </trkpt>
            <trkpt lon="101.085680" lat="13.185188">
                <ele>162.120000</ele>
                <time>2014-08-30T06:40:14Z</time>
            </trkpt>
            <trkpt lon="101.085819" lat="13.184984">
                <ele>166.450000</ele>
                <time>2014-08-30T06:40:27Z</time>
            </trkpt>
            <trkpt lon="101.086005" lat="13.184854">
                <ele>165.960000</ele>
                <time>2014-08-30T06:40:42Z</time>
            </trkpt>
            <trkpt lon="101.086165" lat="13.184839">
                <ele>163.080000</ele>
                <time>2014-08-30T06:40:48Z</time>
            </trkpt>
            <trkpt lon="101.086440" lat="13.184808">
                <ele>159.240000</ele>
                <time>2014-08-30T06:40:56Z</time>
            </trkpt>
            <trkpt lon="101.086573" lat="13.184946">
                <ele>162.120000</ele>
                <time>2014-08-30T06:41:06Z</time>
            </trkpt>
            <trkpt lon="101.086583" lat="13.184956">
                <ele>161.640000</ele>
                <time>2014-08-30T06:41:07Z</time>
            </trkpt>
            <trkpt lon="101.086628" lat="13.185037">
                <ele>163.080000</ele>
                <time>2014-08-30T06:41:17Z</time>
            </trkpt>
            <trkpt lon="101.086648" lat="13.185048">
                <ele>162.120000</ele>
                <time>2014-08-30T06:41:39Z</time>
            </trkpt>
            <trkpt lon="101.086652" lat="13.185019">
                <ele>161.640000</ele>
                <time>2014-08-30T06:41:57Z</time>
            </trkpt>
            <trkpt lon="101.086652" lat="13.185001">
                <ele>162.600000</ele>
                <time>2014-08-30T06:42:24Z</time>
            </trkpt>
            <trkpt lon="101.086637" lat="13.184996">
                <ele>162.600000</ele>
                <time>2014-08-30T06:42:45Z</time>
            </trkpt>
            <trkpt lon="101.086654" lat="13.184993">
                <ele>162.120000</ele>
                <time>2014-08-30T06:43:11Z</time>
            </trkpt>
            <trkpt lon="101.086642" lat="13.184997">
                <ele>162.120000</ele>
                <time>2014-08-30T06:43:29Z</time>
            </trkpt>
            <trkpt lon="101.086677" lat="13.185101">
                <ele>162.600000</ele>
                <time>2014-08-30T06:43:42Z</time>
            </trkpt>
            <trkpt lon="101.086708" lat="13.185218">
                <ele>162.120000</ele>
                <time>2014-08-30T06:43:53Z</time>
            </trkpt>
            <trkpt lon="101.086753" lat="13.185298">
                <ele>159.240000</ele>
                <time>2014-08-30T06:44:06Z</time>
            </trkpt>
            <trkpt lon="101.086761" lat="13.185304">
                <ele>161.160000</ele>
                <time>2014-08-30T06:44:07Z</time>
            </trkpt>
            <trkpt lon="101.086965" lat="13.185387">
                <ele>158.750000</ele>
                <time>2014-08-30T06:44:23Z</time>
            </trkpt>
            <trkpt lon="101.086989" lat="13.185395">
                <ele>158.750000</ele>
                <time>2014-08-30T06:44:25Z</time>
            </trkpt>
            <trkpt lon="101.087149" lat="13.185499">
                <ele>157.310000</ele>
                <time>2014-08-30T06:44:38Z</time>
            </trkpt>
            <trkpt lon="101.087351" lat="13.185629">
                <ele>157.310000</ele>
                <time>2014-08-30T06:44:52Z</time>
            </trkpt>
            <trkpt lon="101.087568" lat="13.185819">
                <ele>161.160000</ele>
                <time>2014-08-30T06:45:07Z</time>
            </trkpt>
            <trkpt lon="101.087884" lat="13.186107">
                <ele>161.160000</ele>
                <time>2014-08-30T06:45:24Z</time>
            </trkpt>
            <trkpt lon="101.088136" lat="13.186393">
                <ele>162.600000</ele>
                <time>2014-08-30T06:45:39Z</time>
            </trkpt>
            <trkpt lon="101.088220" lat="13.186479">
                <ele>161.160000</ele>
                <time>2014-08-30T06:45:45Z</time>
            </trkpt>
            <trkpt lon="101.088324" lat="13.186589">
                <ele>159.720000</ele>
                <time>2014-08-30T06:45:58Z</time>
            </trkpt>
            <trkpt lon="101.088352" lat="13.186611">
                <ele>160.200000</ele>
                <time>2014-08-30T06:46:12Z</time>
            </trkpt>
            <trkpt lon="101.088367" lat="13.186600">
                <ele>159.240000</ele>
                <time>2014-08-30T06:46:15Z</time>
            </trkpt>
            <trkpt lon="101.088482" lat="13.186555">
                <ele>158.750000</ele>
                <time>2014-08-30T06:46:29Z</time>
            </trkpt>
            <trkpt lon="101.088489" lat="13.186551">
                <ele>159.240000</ele>
                <time>2014-08-30T06:46:40Z</time>
            </trkpt>
            <trkpt lon="101.088527" lat="13.186523">
                <ele>158.270000</ele>
                <time>2014-08-30T06:46:44Z</time>
            </trkpt>
            <trkpt lon="101.088604" lat="13.186392">
                <ele>158.750000</ele>
                <time>2014-08-30T06:47:01Z</time>
            </trkpt>
            <trkpt lon="101.088672" lat="13.186354">
                <ele>157.790000</ele>
                <time>2014-08-30T06:47:14Z</time>
            </trkpt>
            <trkpt lon="101.088768" lat="13.186283">
                <ele>160.200000</ele>
                <time>2014-08-30T06:47:28Z</time>
            </trkpt>
            <trkpt lon="101.088808" lat="13.186219">
                <ele>163.080000</ele>
                <time>2014-08-30T06:47:43Z</time>
            </trkpt>
            <trkpt lon="101.088875" lat="13.186151">
                <ele>166.930000</ele>
                <time>2014-08-30T06:47:57Z</time>
            </trkpt>
            <trkpt lon="101.088926" lat="13.186015">
                <ele>168.370000</ele>
                <time>2014-08-30T06:48:15Z</time>
            </trkpt>
            <trkpt lon="101.089031" lat="13.185907">
                <ele>171.730000</ele>
                <time>2014-08-30T06:48:34Z</time>
            </trkpt>
            <trkpt lon="101.089139" lat="13.185893">
                <ele>173.660000</ele>
                <time>2014-08-30T06:48:50Z</time>
            </trkpt>
            <trkpt lon="101.089257" lat="13.185930">
                <ele>176.540000</ele>
                <time>2014-08-30T06:49:08Z</time>
            </trkpt>
            <trkpt lon="101.089393" lat="13.185977">
                <ele>179.420000</ele>
                <time>2014-08-30T06:49:25Z</time>
            </trkpt>
            <trkpt lon="101.089517" lat="13.186023">
                <ele>178.940000</ele>
                <time>2014-08-30T06:49:37Z</time>
            </trkpt>
            <trkpt lon="101.089636" lat="13.186064">
                <ele>179.420000</ele>
                <time>2014-08-30T06:49:41Z</time>
            </trkpt>
            <trkpt lon="101.089803" lat="13.186090">
                <ele>177.500000</ele>
                <time>2014-08-30T06:49:45Z</time>
            </trkpt>
            <trkpt lon="101.090345" lat="13.185989">
                <ele>177.500000</ele>
                <time>2014-08-30T06:49:59Z</time>
            </trkpt>
            <trkpt lon="101.090793" lat="13.185907">
                <ele>175.580000</ele>
                <time>2014-08-30T06:50:12Z</time>
            </trkpt>
            <trkpt lon="101.091090" lat="13.185836">
                <ele>175.580000</ele>
                <time>2014-08-30T06:50:24Z</time>
            </trkpt>
            <trkpt lon="101.091260" lat="13.185854">
                <ele>171.730000</ele>
                <time>2014-08-30T06:50:28Z</time>
            </trkpt>
            <trkpt lon="101.091286" lat="13.185870">
                <ele>170.770000</ele>
                <time>2014-08-30T06:50:29Z</time>
            </trkpt>
            <trkpt lon="101.091301" lat="13.185998">
                <ele>172.210000</ele>
                <time>2014-08-30T06:50:33Z</time>
            </trkpt>
            <trkpt lon="101.091265" lat="13.186166">
                <ele>172.210000</ele>
                <time>2014-08-30T06:50:37Z</time>
            </trkpt>
            <trkpt lon="101.091196" lat="13.186401">
                <ele>170.290000</ele>
                <time>2014-08-30T06:50:42Z</time>
            </trkpt>
            <trkpt lon="101.091158" lat="13.186647">
                <ele>165.960000</ele>
                <time>2014-08-30T06:50:47Z</time>
            </trkpt>
            <trkpt lon="101.091175" lat="13.186855">
                <ele>166.450000</ele>
                <time>2014-08-30T06:50:51Z</time>
            </trkpt>
            <trkpt lon="101.091135" lat="13.187012">
                <ele>164.520000</ele>
                <time>2014-08-30T06:50:55Z</time>
            </trkpt>
            <trkpt lon="101.091060" lat="13.187104">
                <ele>165.000000</ele>
                <time>2014-08-30T06:50:58Z</time>
            </trkpt>
            <trkpt lon="101.091044" lat="13.187303">
                <ele>163.560000</ele>
                <time>2014-08-30T06:51:03Z</time>
            </trkpt>
            <trkpt lon="101.091102" lat="13.187433">
                <ele>163.560000</ele>
                <time>2014-08-30T06:51:06Z</time>
            </trkpt>
            <trkpt lon="101.091134" lat="13.187527">
                <ele>161.160000</ele>
                <time>2014-08-30T06:51:08Z</time>
            </trkpt>
            <trkpt lon="101.091135" lat="13.187620">
                <ele>161.640000</ele>
                <time>2014-08-30T06:51:10Z</time>
            </trkpt>
            <trkpt lon="101.091128" lat="13.187701">
                <ele>160.200000</ele>
                <time>2014-08-30T06:51:12Z</time>
            </trkpt>
            <trkpt lon="101.091273" lat="13.187971">
                <ele>159.720000</ele>
                <time>2014-08-30T06:51:23Z</time>
            </trkpt>
            <trkpt lon="101.091332" lat="13.188136">
                <ele>157.310000</ele>
                <time>2014-08-30T06:51:36Z</time>
            </trkpt>
            <trkpt lon="101.091241" lat="13.188339">
                <ele>153.950000</ele>
                <time>2014-08-30T06:51:47Z</time>
            </trkpt>
            <trkpt lon="101.091256" lat="13.188446">
                <ele>152.510000</ele>
                <time>2014-08-30T06:51:55Z</time>
            </trkpt>
            <trkpt lon="101.091359" lat="13.188484">
                <ele>151.540000</ele>
                <time>2014-08-30T06:52:06Z</time>
            </trkpt>
            <trkpt lon="101.091385" lat="13.188511">
                <ele>151.060000</ele>
                <time>2014-08-30T06:52:17Z</time>
            </trkpt>
            <trkpt lon="101.091448" lat="13.188482">
                <ele>151.060000</ele>
                <time>2014-08-30T06:52:30Z</time>
            </trkpt>
            <trkpt lon="101.091489" lat="13.188477">
                <ele>151.060000</ele>
                <time>2014-08-30T06:52:44Z</time>
            </trkpt>
            <trkpt lon="101.091508" lat="13.188463">
                <ele>152.510000</ele>
                <time>2014-08-30T06:53:00Z</time>
            </trkpt>
            <trkpt lon="101.091533" lat="13.188500">
                <ele>150.100000</ele>
                <time>2014-08-30T06:53:13Z</time>
            </trkpt>
            <trkpt lon="101.091551" lat="13.188519">
                <ele>153.470000</ele>
                <time>2014-08-30T06:53:16Z</time>
            </trkpt>
            <trkpt lon="101.091547" lat="13.188524">
                <ele>150.580000</ele>
                <time>2014-08-30T06:53:19Z</time>
            </trkpt>
            <trkpt lon="101.091637" lat="13.188528">
                <ele>152.510000</ele>
                <time>2014-08-30T06:53:32Z</time>
            </trkpt>
            <trkpt lon="101.091725" lat="13.188531">
                <ele>154.910000</ele>
                <time>2014-08-30T06:53:46Z</time>
            </trkpt>
            <trkpt lon="101.091757" lat="13.188496">
                <ele>155.870000</ele>
                <time>2014-08-30T06:53:51Z</time>
            </trkpt>
            <trkpt lon="101.091802" lat="13.188463">
                <ele>155.870000</ele>
                <time>2014-08-30T06:53:57Z</time>
            </trkpt>
            <trkpt lon="101.091856" lat="13.188467">
                <ele>155.870000</ele>
                <time>2014-08-30T06:54:05Z</time>
            </trkpt>
            <trkpt lon="101.091874" lat="13.188470">
                <ele>155.390000</ele>
                <time>2014-08-30T06:54:07Z</time>
            </trkpt>
            <trkpt lon="101.092014" lat="13.188495">
                <ele>157.310000</ele>
                <time>2014-08-30T06:54:17Z</time>
            </trkpt>
            <trkpt lon="101.092309" lat="13.188528">
                <ele>158.750000</ele>
                <time>2014-08-30T06:54:35Z</time>
            </trkpt>
            <trkpt lon="101.092434" lat="13.188811">
                <ele>159.240000</ele>
                <time>2014-08-30T06:54:47Z</time>
            </trkpt>
            <trkpt lon="101.092548" lat="13.188930">
                <ele>157.790000</ele>
                <time>2014-08-30T06:54:51Z</time>
            </trkpt>
            <trkpt lon="101.092914" lat="13.189142">
                <ele>158.750000</ele>
                <time>2014-08-30T06:55:05Z</time>
            </trkpt>
            <trkpt lon="101.093345" lat="13.189345">
                <ele>161.160000</ele>
                <time>2014-08-30T06:55:20Z</time>
            </trkpt>
            <trkpt lon="101.093773" lat="13.189426">
                <ele>160.200000</ele>
                <time>2014-08-30T06:55:32Z</time>
            </trkpt>
            <trkpt lon="101.094051" lat="13.189633">
                <ele>159.720000</ele>
                <time>2014-08-30T06:55:44Z</time>
            </trkpt>
            <trkpt lon="101.094242" lat="13.189834">
                <ele>160.200000</ele>
                <time>2014-08-30T06:55:56Z</time>
            </trkpt>
            <trkpt lon="101.094197" lat="13.189963">
                <ele>160.680000</ele>
                <time>2014-08-30T06:56:03Z</time>
            </trkpt>
            <trkpt lon="101.093975" lat="13.190304">
                <ele>159.240000</ele>
                <time>2014-08-30T06:56:17Z</time>
            </trkpt>
            <trkpt lon="101.093711" lat="13.190758">
                <ele>155.870000</ele>
                <time>2014-08-30T06:56:28Z</time>
            </trkpt>
            <trkpt lon="101.093534" lat="13.191096">
                <ele>154.910000</ele>
                <time>2014-08-30T06:56:36Z</time>
            </trkpt>
            <trkpt lon="101.093318" lat="13.191491">
                <ele>152.030000</ele>
                <time>2014-08-30T06:56:45Z</time>
            </trkpt>
            <trkpt lon="101.093186" lat="13.191702">
                <ele>151.060000</ele>
                <time>2014-08-30T06:56:50Z</time>
            </trkpt>
            <trkpt lon="101.093117" lat="13.191771">
                <ele>149.620000</ele>
                <time>2014-08-30T06:56:52Z</time>
            </trkpt>
            <trkpt lon="101.093000" lat="13.191847">
                <ele>148.660000</ele>
                <time>2014-08-30T06:56:55Z</time>
            </trkpt>
            <trkpt lon="101.092886" lat="13.191919">
                <ele>147.220000</ele>
                <time>2014-08-30T06:56:58Z</time>
            </trkpt>
            <trkpt lon="101.092543" lat="13.192216">
                <ele>144.340000</ele>
                <time>2014-08-30T06:57:09Z</time>
            </trkpt>
            <trkpt lon="101.092262" lat="13.192855">
                <ele>146.740000</ele>
                <time>2014-08-30T06:57:25Z</time>
            </trkpt>
            <trkpt lon="101.092246" lat="13.192894">
                <ele>146.260000</ele>
                <time>2014-08-30T06:57:26Z</time>
            </trkpt>
            <trkpt lon="101.092248" lat="13.193230">
                <ele>145.300000</ele>
                <time>2014-08-30T06:57:34Z</time>
            </trkpt>
            <trkpt lon="101.092292" lat="13.193297">
                <ele>144.820000</ele>
                <time>2014-08-30T06:57:36Z</time>
            </trkpt>
            <trkpt lon="101.092550" lat="13.193249">
                <ele>146.260000</ele>
                <time>2014-08-30T06:57:46Z</time>
            </trkpt>
            <trkpt lon="101.093023" lat="13.193006">
                <ele>149.140000</ele>
                <time>2014-08-30T06:58:07Z</time>
            </trkpt>
            <trkpt lon="101.093413" lat="13.192840">
                <ele>150.580000</ele>
                <time>2014-08-30T06:58:25Z</time>
            </trkpt>
            <trkpt lon="101.093871" lat="13.192630">
                <ele>151.540000</ele>
                <time>2014-08-30T06:58:45Z</time>
            </trkpt>
            <trkpt lon="101.094273" lat="13.192419">
                <ele>152.990000</ele>
                <time>2014-08-30T06:59:03Z</time>
            </trkpt>
            <trkpt lon="101.094686" lat="13.192209">
                <ele>154.430000</ele>
                <time>2014-08-30T06:59:21Z</time>
            </trkpt>
            <trkpt lon="101.095108" lat="13.192081">
                <ele>155.390000</ele>
                <time>2014-08-30T06:59:39Z</time>
            </trkpt>
            <trkpt lon="101.095498" lat="13.192055">
                <ele>157.790000</ele>
                <time>2014-08-30T06:59:58Z</time>
            </trkpt>
            <trkpt lon="101.095517" lat="13.192056">
                <ele>157.790000</ele>
                <time>2014-08-30T06:59:59Z</time>
            </trkpt>
            <trkpt lon="101.095756" lat="13.191999">
                <ele>159.720000</ele>
                <time>2014-08-30T07:00:11Z</time>
            </trkpt>
            <trkpt lon="101.096059" lat="13.191766">
                <ele>160.200000</ele>
                <time>2014-08-30T07:00:31Z</time>
            </trkpt>
            <trkpt lon="101.096393" lat="13.191463">
                <ele>162.120000</ele>
                <time>2014-08-30T07:00:54Z</time>
            </trkpt>
            <trkpt lon="101.096558" lat="13.191343">
                <ele>164.040000</ele>
                <time>2014-08-30T07:01:04Z</time>
            </trkpt>
            <trkpt lon="101.096860" lat="13.191097">
                <ele>164.040000</ele>
                <time>2014-08-30T07:01:21Z</time>
            </trkpt>
            <trkpt lon="101.096878" lat="13.191092">
                <ele>164.040000</ele>
                <time>2014-08-30T07:01:22Z</time>
            </trkpt>
            <trkpt lon="101.097168" lat="13.191110">
                <ele>165.480000</ele>
                <time>2014-08-30T07:01:39Z</time>
            </trkpt>
            <trkpt lon="101.097424" lat="13.191166">
                <ele>166.450000</ele>
                <time>2014-08-30T07:01:55Z</time>
            </trkpt>
            <trkpt lon="101.097618" lat="13.191323">
                <ele>167.890000</ele>
                <time>2014-08-30T07:02:11Z</time>
            </trkpt>
            <trkpt lon="101.097767" lat="13.191483">
                <ele>167.410000</ele>
                <time>2014-08-30T07:02:22Z</time>
            </trkpt>
            <trkpt lon="101.097770" lat="13.191483">
                <ele>166.450000</ele>
                <time>2014-08-30T07:02:24Z</time>
            </trkpt>
            <trkpt lon="101.097820" lat="13.191584">
                <ele>169.330000</ele>
                <time>2014-08-30T07:02:39Z</time>
            </trkpt>
            <trkpt lon="101.097790" lat="13.191626">
                <ele>170.770000</ele>
                <time>2014-08-30T07:02:48Z</time>
            </trkpt>
            <trkpt lon="101.097675" lat="13.191749">
                <ele>170.770000</ele>
                <time>2014-08-30T07:03:04Z</time>
            </trkpt>
            <trkpt lon="101.097639" lat="13.191842">
                <ele>172.690000</ele>
                <time>2014-08-30T07:03:15Z</time>
            </trkpt>
            <trkpt lon="101.097620" lat="13.191882">
                <ele>169.330000</ele>
                <time>2014-08-30T07:03:17Z</time>
            </trkpt>
            <trkpt lon="101.097608" lat="13.191904">
                <ele>170.290000</ele>
                <time>2014-08-30T07:03:18Z</time>
            </trkpt>
            <trkpt lon="101.097582" lat="13.191955">
                <ele>171.730000</ele>
                <time>2014-08-30T07:03:20Z</time>
            </trkpt>
            <trkpt lon="101.097533" lat="13.192033">
                <ele>168.850000</ele>
                <time>2014-08-30T07:03:23Z</time>
            </trkpt>
            <trkpt lon="101.097419" lat="13.192150">
                <ele>168.850000</ele>
                <time>2014-08-30T07:03:28Z</time>
            </trkpt>
            <trkpt lon="101.097333" lat="13.192259">
                <ele>166.450000</ele>
                <time>2014-08-30T07:03:31Z</time>
            </trkpt>
            <trkpt lon="101.097248" lat="13.192478">
                <ele>165.480000</ele>
                <time>2014-08-30T07:03:36Z</time>
            </trkpt>
            <trkpt lon="101.097183" lat="13.192669">
                <ele>165.000000</ele>
                <time>2014-08-30T07:03:41Z</time>
            </trkpt>
            <trkpt lon="101.097067" lat="13.192813">
                <ele>163.560000</ele>
                <time>2014-08-30T07:03:45Z</time>
            </trkpt>
            <trkpt lon="101.097013" lat="13.192888">
                <ele>161.640000</ele>
                <time>2014-08-30T07:03:47Z</time>
            </trkpt>
            <trkpt lon="101.096993" lat="13.192931">
                <ele>162.600000</ele>
                <time>2014-08-30T07:03:48Z</time>
            </trkpt>
            <trkpt lon="101.096962" lat="13.193106">
                <ele>160.200000</ele>
                <time>2014-08-30T07:03:52Z</time>
            </trkpt>
            <trkpt lon="101.097010" lat="13.193480">
                <ele>158.270000</ele>
                <time>2014-08-30T07:04:00Z</time>
            </trkpt>
            <trkpt lon="101.097081" lat="13.193561">
                <ele>157.790000</ele>
                <time>2014-08-30T07:04:03Z</time>
            </trkpt>
            <trkpt lon="101.097660" lat="13.193539">
                <ele>156.350000</ele>
                <time>2014-08-30T07:04:18Z</time>
            </trkpt>
            <trkpt lon="101.097697" lat="13.193549">
                <ele>155.870000</ele>
                <time>2014-08-30T07:04:19Z</time>
            </trkpt>
            <trkpt lon="101.097888" lat="13.193683">
                <ele>153.470000</ele>
                <time>2014-08-30T07:04:24Z</time>
            </trkpt>
            <trkpt lon="101.098127" lat="13.193848">
                <ele>154.430000</ele>
                <time>2014-08-30T07:04:36Z</time>
            </trkpt>
            <trkpt lon="101.098111" lat="13.193850">
                <ele>154.430000</ele>
                <time>2014-08-30T07:04:42Z</time>
            </trkpt>
            <trkpt lon="101.098094" lat="13.193777">
                <ele>154.910000</ele>
                <time>2014-08-30T07:04:54Z</time>
            </trkpt>
            <trkpt lon="101.098207" lat="13.193761">
                <ele>156.350000</ele>
                <time>2014-08-30T07:05:09Z</time>
            </trkpt>
            <trkpt lon="101.098261" lat="13.193768">
                <ele>157.310000</ele>
                <time>2014-08-30T07:05:15Z</time>
            </trkpt>
            <trkpt lon="101.098384" lat="13.193762">
                <ele>159.720000</ele>
                <time>2014-08-30T07:05:33Z</time>
            </trkpt>
            <trkpt lon="101.098502" lat="13.193792">
                <ele>161.640000</ele>
                <time>2014-08-30T07:05:48Z</time>
            </trkpt>
            <trkpt lon="101.098631" lat="13.193840">
                <ele>163.080000</ele>
                <time>2014-08-30T07:06:03Z</time>
            </trkpt>
            <trkpt lon="101.098675" lat="13.193899">
                <ele>160.680000</ele>
                <time>2014-08-30T07:06:13Z</time>
            </trkpt>
            <trkpt lon="101.098677" lat="13.193897">
                <ele>161.160000</ele>
                <time>2014-08-30T07:06:14Z</time>
            </trkpt>
            <trkpt lon="101.098678" lat="13.193895">
                <ele>162.600000</ele>
                <time>2014-08-30T07:06:16Z</time>
            </trkpt>
            <trkpt lon="101.098687" lat="13.193896">
                <ele>162.600000</ele>
                <time>2014-08-30T07:06:41Z</time>
            </trkpt>
            <trkpt lon="101.098695" lat="13.193902">
                <ele>159.240000</ele>
                <time>2014-08-30T07:06:48Z</time>
            </trkpt>
            <trkpt lon="101.098697" lat="13.193900">
                <ele>163.080000</ele>
                <time>2014-08-30T07:06:49Z</time>
            </trkpt>
            <trkpt lon="101.098708" lat="13.193992">
                <ele>162.120000</ele>
                <time>2014-08-30T07:07:04Z</time>
            </trkpt>
            <trkpt lon="101.098725" lat="13.194092">
                <ele>159.240000</ele>
                <time>2014-08-30T07:07:07Z</time>
            </trkpt>
            <trkpt lon="101.098783" lat="13.194235">
                <ele>158.750000</ele>
                <time>2014-08-30T07:07:10Z</time>
            </trkpt>
            <trkpt lon="101.098908" lat="13.194502">
                <ele>158.270000</ele>
                <time>2014-08-30T07:07:20Z</time>
            </trkpt>
            <trkpt lon="101.099018" lat="13.194834">
                <ele>155.390000</ele>
                <time>2014-08-30T07:07:27Z</time>
            </trkpt>
            <trkpt lon="101.099169" lat="13.195209">
                <ele>155.870000</ele>
                <time>2014-08-30T07:07:35Z</time>
            </trkpt>
            <trkpt lon="101.099189" lat="13.195258">
                <ele>157.310000</ele>
                <time>2014-08-30T07:07:38Z</time>
            </trkpt>
            <trkpt lon="101.099280" lat="13.195568">
                <ele>157.310000</ele>
                <time>2014-08-30T07:07:49Z</time>
            </trkpt>
            <trkpt lon="101.099357" lat="13.195854">
                <ele>153.470000</ele>
                <time>2014-08-30T07:07:56Z</time>
            </trkpt>
            <trkpt lon="101.099389" lat="13.196121">
                <ele>152.030000</ele>
                <time>2014-08-30T07:08:01Z</time>
            </trkpt>
            <trkpt lon="101.099374" lat="13.196202">
                <ele>153.950000</ele>
                <time>2014-08-30T07:08:14Z</time>
            </trkpt>
            <trkpt lon="101.099346" lat="13.196290">
                <ele>156.830000</ele>
                <time>2014-08-30T07:08:29Z</time>
            </trkpt>
            <trkpt lon="101.099247" lat="13.196362">
                <ele>157.790000</ele>
                <time>2014-08-30T07:08:38Z</time>
            </trkpt>
            <trkpt lon="101.099126" lat="13.196374">
                <ele>155.870000</ele>
                <time>2014-08-30T07:08:41Z</time>
            </trkpt>
            <trkpt lon="101.098982" lat="13.196386">
                <ele>152.510000</ele>
                <time>2014-08-30T07:08:44Z</time>
            </trkpt>
            <trkpt lon="101.098934" lat="13.196390">
                <ele>153.950000</ele>
                <time>2014-08-30T07:08:45Z</time>
            </trkpt>
            <trkpt lon="101.098789" lat="13.196391">
                <ele>152.510000</ele>
                <time>2014-08-30T07:08:48Z</time>
            </trkpt>
            <trkpt lon="101.098396" lat="13.196356">
                <ele>151.060000</ele>
                <time>2014-08-30T07:08:56Z</time>
            </trkpt>
            <trkpt lon="101.098174" lat="13.196302">
                <ele>150.580000</ele>
                <time>2014-08-30T07:09:01Z</time>
            </trkpt>
            <trkpt lon="101.098007" lat="13.196192">
                <ele>150.100000</ele>
                <time>2014-08-30T07:09:05Z</time>
            </trkpt>
            <trkpt lon="101.097923" lat="13.196113">
                <ele>147.700000</ele>
                <time>2014-08-30T07:09:07Z</time>
            </trkpt>
            <trkpt lon="101.097782" lat="13.195975">
                <ele>145.780000</ele>
                <time>2014-08-30T07:09:11Z</time>
            </trkpt>
            <trkpt lon="101.097576" lat="13.195906">
                <ele>144.820000</ele>
                <time>2014-08-30T07:09:20Z</time>
            </trkpt>
            <trkpt lon="101.097257" lat="13.195941">
                <ele>145.780000</ele>
                <time>2014-08-30T07:09:34Z</time>
            </trkpt>
            <trkpt lon="101.096817" lat="13.195976">
                <ele>145.780000</ele>
                <time>2014-08-30T07:09:50Z</time>
            </trkpt>
            <trkpt lon="101.096535" lat="13.196072">
                <ele>147.220000</ele>
                <time>2014-08-30T07:10:05Z</time>
            </trkpt>
            <trkpt lon="101.096419" lat="13.196431">
                <ele>148.180000</ele>
                <time>2014-08-30T07:10:20Z</time>
            </trkpt>
            <trkpt lon="101.096353" lat="13.196711">
                <ele>146.260000</ele>
                <time>2014-08-30T07:10:27Z</time>
            </trkpt>
            <trkpt lon="101.096123" lat="13.197295">
                <ele>144.820000</ele>
                <time>2014-08-30T07:10:42Z</time>
            </trkpt>
            <trkpt lon="101.095929" lat="13.197504">
                <ele>143.850000</ele>
                <time>2014-08-30T07:10:49Z</time>
            </trkpt>
            <trkpt lon="101.095632" lat="13.197708">
                <ele>143.370000</ele>
                <time>2014-08-30T07:10:56Z</time>
            </trkpt>
            <trkpt lon="101.095129" lat="13.198029">
                <ele>141.930000</ele>
                <time>2014-08-30T07:11:07Z</time>
            </trkpt>
            <trkpt lon="101.095097" lat="13.198065">
                <ele>141.450000</ele>
                <time>2014-08-30T07:11:08Z</time>
            </trkpt>
            <trkpt lon="101.095083" lat="13.198105">
                <ele>140.970000</ele>
                <time>2014-08-30T07:11:09Z</time>
            </trkpt>
            <trkpt lon="101.095107" lat="13.198181">
                <ele>140.490000</ele>
                <time>2014-08-30T07:11:11Z</time>
            </trkpt>
            <trkpt lon="101.095192" lat="13.198320">
                <ele>140.010000</ele>
                <time>2014-08-30T07:11:15Z</time>
            </trkpt>
            <trkpt lon="101.095568" lat="13.199006">
                <ele>139.050000</ele>
                <time>2014-08-30T07:11:31Z</time>
            </trkpt>
            <trkpt lon="101.095884" lat="13.199581">
                <ele>136.640000</ele>
                <time>2014-08-30T07:11:44Z</time>
            </trkpt>
            <trkpt lon="101.095844" lat="13.199911">
                <ele>135.200000</ele>
                <time>2014-08-30T07:11:52Z</time>
            </trkpt>
            <trkpt lon="101.095810" lat="13.199930">
                <ele>135.680000</ele>
                <time>2014-08-30T07:11:53Z</time>
            </trkpt>
            <trkpt lon="101.095101" lat="13.200309">
                <ele>132.800000</ele>
                <time>2014-08-30T07:12:11Z</time>
            </trkpt>
            <trkpt lon="101.095084" lat="13.200324">
                <ele>132.800000</ele>
                <time>2014-08-30T07:12:12Z</time>
            </trkpt>
            <trkpt lon="101.095091" lat="13.200404">
                <ele>132.800000</ele>
                <time>2014-08-30T07:12:16Z</time>
            </trkpt>
            <trkpt lon="101.095379" lat="13.200954">
                <ele>130.880000</ele>
                <time>2014-08-30T07:12:30Z</time>
            </trkpt>
            <trkpt lon="101.095442" lat="13.201092">
                <ele>127.990000</ele>
                <time>2014-08-30T07:12:33Z</time>
            </trkpt>
            <trkpt lon="101.095413" lat="13.201182">
                <ele>129.430000</ele>
                <time>2014-08-30T07:12:36Z</time>
            </trkpt>
            <trkpt lon="101.095360" lat="13.201200">
                <ele>128.470000</ele>
                <time>2014-08-30T07:12:38Z</time>
            </trkpt>
            <trkpt lon="101.094953" lat="13.201325">
                <ele>127.990000</ele>
                <time>2014-08-30T07:12:51Z</time>
            </trkpt>
            <trkpt lon="101.094573" lat="13.201610">
                <ele>126.550000</ele>
                <time>2014-08-30T07:13:03Z</time>
            </trkpt>
            <trkpt lon="101.094474" lat="13.201769">
                <ele>127.030000</ele>
                <time>2014-08-30T07:13:09Z</time>
            </trkpt>
            <trkpt lon="101.094482" lat="13.201795">
                <ele>126.550000</ele>
                <time>2014-08-30T07:13:10Z</time>
            </trkpt>
            <trkpt lon="101.094500" lat="13.201820">
                <ele>127.510000</ele>
                <time>2014-08-30T07:13:11Z</time>
            </trkpt>
            <trkpt lon="101.094604" lat="13.201963">
                <ele>127.030000</ele>
                <time>2014-08-30T07:13:17Z</time>
            </trkpt>
            <trkpt lon="101.094837" lat="13.202099">
                <ele>128.470000</ele>
                <time>2014-08-30T07:13:28Z</time>
            </trkpt>
            <trkpt lon="101.095254" lat="13.202060">
                <ele>129.920000</ele>
                <time>2014-08-30T07:13:45Z</time>
            </trkpt>
            <trkpt lon="101.095496" lat="13.201960">
                <ele>130.880000</ele>
                <time>2014-08-30T07:13:57Z</time>
            </trkpt>
            <trkpt lon="101.095569" lat="13.201947">
                <ele>131.360000</ele>
                <time>2014-08-30T07:14:01Z</time>
            </trkpt>
            <trkpt lon="101.095848" lat="13.201990">
                <ele>132.320000</ele>
                <time>2014-08-30T07:14:17Z</time>
            </trkpt>
            <trkpt lon="101.096077" lat="13.201814">
                <ele>134.720000</ele>
                <time>2014-08-30T07:14:34Z</time>
            </trkpt>
            <trkpt lon="101.096416" lat="13.201434">
                <ele>134.720000</ele>
                <time>2014-08-30T07:14:55Z</time>
            </trkpt>
            <trkpt lon="101.096848" lat="13.201188">
                <ele>136.160000</ele>
                <time>2014-08-30T07:15:13Z</time>
            </trkpt>
            <trkpt lon="101.097337" lat="13.200988">
                <ele>136.640000</ele>
                <time>2014-08-30T07:15:33Z</time>
            </trkpt>
            <trkpt lon="101.097737" lat="13.200854">
                <ele>138.090000</ele>
                <time>2014-08-30T07:15:51Z</time>
            </trkpt>
            <trkpt lon="101.097942" lat="13.200767">
                <ele>138.090000</ele>
                <time>2014-08-30T07:16:01Z</time>
            </trkpt>
            <trkpt lon="101.097942" lat="13.200435">
                <ele>139.050000</ele>
                <time>2014-08-30T07:16:16Z</time>
            </trkpt>
            <trkpt lon="101.098061" lat="13.200293">
                <ele>140.010000</ele>
                <time>2014-08-30T07:16:26Z</time>
            </trkpt>
            <trkpt lon="101.098218" lat="13.200317">
                <ele>141.450000</ele>
                <time>2014-08-30T07:16:35Z</time>
            </trkpt>
            <trkpt lon="101.098249" lat="13.200325">
                <ele>141.450000</ele>
                <time>2014-08-30T07:16:37Z</time>
            </trkpt>
            <trkpt lon="101.098532" lat="13.200148">
                <ele>143.370000</ele>
                <time>2014-08-30T07:16:55Z</time>
            </trkpt>
            <trkpt lon="101.098800" lat="13.199942">
                <ele>144.340000</ele>
                <time>2014-08-30T07:17:13Z</time>
            </trkpt>
            <trkpt lon="101.098999" lat="13.199805">
                <ele>144.820000</ele>
                <time>2014-08-30T07:17:26Z</time>
            </trkpt>
            <trkpt lon="101.099275" lat="13.199631">
                <ele>147.220000</ele>
                <time>2014-08-30T07:17:44Z</time>
            </trkpt>
            <trkpt lon="101.099346" lat="13.199678">
                <ele>146.740000</ele>
                <time>2014-08-30T07:17:50Z</time>
            </trkpt>
            <trkpt lon="101.099365" lat="13.199810">
                <ele>147.220000</ele>
                <time>2014-08-30T07:17:56Z</time>
            </trkpt>
            <trkpt lon="101.099393" lat="13.199874">
                <ele>145.780000</ele>
                <time>2014-08-30T07:17:59Z</time>
            </trkpt>
            <trkpt lon="101.099500" lat="13.199960">
                <ele>144.820000</ele>
                <time>2014-08-30T07:18:05Z</time>
            </trkpt>
            <trkpt lon="101.099624" lat="13.199943">
                <ele>146.260000</ele>
                <time>2014-08-30T07:18:19Z</time>
            </trkpt>
            <trkpt lon="101.099634" lat="13.199948">
                <ele>146.260000</ele>
                <time>2014-08-30T07:18:36Z</time>
            </trkpt>
            <trkpt lon="101.099653" lat="13.199953">
                <ele>146.740000</ele>
                <time>2014-08-30T07:18:50Z</time>
            </trkpt>
            <trkpt lon="101.099697" lat="13.199931">
                <ele>147.220000</ele>
                <time>2014-08-30T07:18:59Z</time>
            </trkpt>
            <trkpt lon="101.099736" lat="13.199928">
                <ele>147.220000</ele>
                <time>2014-08-30T07:19:03Z</time>
            </trkpt>
            <trkpt lon="101.099803" lat="13.200015">
                <ele>147.220000</ele>
                <time>2014-08-30T07:19:14Z</time>
            </trkpt>
            <trkpt lon="101.099895" lat="13.200144">
                <ele>145.300000</ele>
                <time>2014-08-30T07:19:22Z</time>
            </trkpt>
            <trkpt lon="101.099807" lat="13.200201">
                <ele>145.300000</ele>
                <time>2014-08-30T07:19:29Z</time>
            </trkpt>
            <trkpt lon="101.099575" lat="13.200378">
                <ele>143.370000</ele>
                <time>2014-08-30T07:19:41Z</time>
            </trkpt>
            <trkpt lon="101.099519" lat="13.200444">
                <ele>143.370000</ele>
                <time>2014-08-30T07:19:53Z</time>
            </trkpt>
            <trkpt lon="101.099495" lat="13.200470">
                <ele>142.890000</ele>
                <time>2014-08-30T07:20:08Z</time>
            </trkpt>
            <trkpt lon="101.099432" lat="13.200540">
                <ele>141.930000</ele>
                <time>2014-08-30T07:20:23Z</time>
            </trkpt>
            <trkpt lon="101.099244" lat="13.200709">
                <ele>142.410000</ele>
                <time>2014-08-30T07:20:35Z</time>
            </trkpt>
            <trkpt lon="101.099195" lat="13.200720">
                <ele>141.450000</ele>
                <time>2014-08-30T07:20:38Z</time>
            </trkpt>
            <trkpt lon="101.099120" lat="13.200789">
                <ele>140.490000</ele>
                <time>2014-08-30T07:20:45Z</time>
            </trkpt>
            <trkpt lon="101.099065" lat="13.200772">
                <ele>141.930000</ele>
                <time>2014-08-30T07:20:49Z</time>
            </trkpt>
            <trkpt lon="101.099022" lat="13.200721">
                <ele>141.930000</ele>
                <time>2014-08-30T07:20:53Z</time>
            </trkpt>
            <trkpt lon="101.098909" lat="13.200764">
                <ele>141.930000</ele>
                <time>2014-08-30T07:21:00Z</time>
            </trkpt>
            <trkpt lon="101.098754" lat="13.200864">
                <ele>141.930000</ele>
                <time>2014-08-30T07:21:08Z</time>
            </trkpt>
            <trkpt lon="101.098640" lat="13.200998">
                <ele>141.450000</ele>
                <time>2014-08-30T07:21:18Z</time>
            </trkpt>
            <trkpt lon="101.098358" lat="13.201043">
                <ele>139.530000</ele>
                <time>2014-08-30T07:21:29Z</time>
            </trkpt>
            <trkpt lon="101.098233" lat="13.200987">
                <ele>139.530000</ele>
                <time>2014-08-30T07:21:41Z</time>
            </trkpt>
            <trkpt lon="101.098232" lat="13.201070">
                <ele>139.050000</ele>
                <time>2014-08-30T07:21:45Z</time>
            </trkpt>
            <trkpt lon="101.098338" lat="13.201323">
                <ele>138.090000</ele>
                <time>2014-08-30T07:21:52Z</time>
            </trkpt>
            <trkpt lon="101.098476" lat="13.201590">
                <ele>137.130000</ele>
                <time>2014-08-30T07:21:58Z</time>
            </trkpt>
            <trkpt lon="101.098670" lat="13.201924">
                <ele>138.090000</ele>
                <time>2014-08-30T07:22:10Z</time>
            </trkpt>
            <trkpt lon="101.098788" lat="13.202289">
                <ele>139.530000</ele>
                <time>2014-08-30T07:22:28Z</time>
            </trkpt>
            <trkpt lon="101.098951" lat="13.202683">
                <ele>141.450000</ele>
                <time>2014-08-30T07:22:47Z</time>
            </trkpt>
            <trkpt lon="101.099198" lat="13.202997">
                <ele>141.930000</ele>
                <time>2014-08-30T07:23:00Z</time>
            </trkpt>
            <trkpt lon="101.099549" lat="13.203254">
                <ele>142.890000</ele>
                <time>2014-08-30T07:23:17Z</time>
            </trkpt>
            <trkpt lon="101.099992" lat="13.203700">
                <ele>141.930000</ele>
                <time>2014-08-30T07:23:33Z</time>
            </trkpt>
            <trkpt lon="101.100411" lat="13.204024">
                <ele>140.490000</ele>
                <time>2014-08-30T07:23:45Z</time>
            </trkpt>
            <trkpt lon="101.100465" lat="13.204260">
                <ele>140.490000</ele>
                <time>2014-08-30T07:23:51Z</time>
            </trkpt>
            <trkpt lon="101.100430" lat="13.204346">
                <ele>138.570000</ele>
                <time>2014-08-30T07:23:53Z</time>
            </trkpt>
            <trkpt lon="101.100410" lat="13.204386">
                <ele>138.090000</ele>
                <time>2014-08-30T07:23:54Z</time>
            </trkpt>
            <trkpt lon="101.100549" lat="13.204632">
                <ele>136.160000</ele>
                <time>2014-08-30T07:24:02Z</time>
            </trkpt>
            <trkpt lon="101.100601" lat="13.204657">
                <ele>134.720000</ele>
                <time>2014-08-30T07:24:04Z</time>
            </trkpt>
            <trkpt lon="101.100648" lat="13.204674">
                <ele>136.160000</ele>
                <time>2014-08-30T07:24:06Z</time>
            </trkpt>
            <trkpt lon="101.100974" lat="13.204747">
                <ele>138.570000</ele>
                <time>2014-08-30T07:24:21Z</time>
            </trkpt>
            <trkpt lon="101.101303" lat="13.204696">
                <ele>140.970000</ele>
                <time>2014-08-30T07:24:38Z</time>
            </trkpt>
            <trkpt lon="101.101617" lat="13.204712">
                <ele>142.410000</ele>
                <time>2014-08-30T07:24:55Z</time>
            </trkpt>
            <trkpt lon="101.101630" lat="13.204791">
                <ele>140.970000</ele>
                <time>2014-08-30T07:24:58Z</time>
            </trkpt>
            <trkpt lon="101.101600" lat="13.205109">
                <ele>139.050000</ele>
                <time>2014-08-30T07:25:07Z</time>
            </trkpt>
            <trkpt lon="101.101598" lat="13.205149">
                <ele>139.050000</ele>
                <time>2014-08-30T07:25:08Z</time>
            </trkpt>
            <trkpt lon="101.101518" lat="13.205482">
                <ele>135.200000</ele>
                <time>2014-08-30T07:25:16Z</time>
            </trkpt>
            <trkpt lon="101.101493" lat="13.205581">
                <ele>135.200000</ele>
                <time>2014-08-30T07:25:18Z</time>
            </trkpt>
            <trkpt lon="101.101500" lat="13.205790">
                <ele>133.280000</ele>
                <time>2014-08-30T07:25:22Z</time>
            </trkpt>
            <trkpt lon="101.101538" lat="13.206083">
                <ele>131.840000</ele>
                <time>2014-08-30T07:25:28Z</time>
            </trkpt>
            <trkpt lon="101.101507" lat="13.206301">
                <ele>130.400000</ele>
                <time>2014-08-30T07:25:32Z</time>
            </trkpt>
            <trkpt lon="101.101332" lat="13.206684">
                <ele>131.360000</ele>
                <time>2014-08-30T07:25:43Z</time>
            </trkpt>
            <trkpt lon="101.101165" lat="13.207095">
                <ele>133.280000</ele>
                <time>2014-08-30T07:25:59Z</time>
            </trkpt>
            <trkpt lon="101.100941" lat="13.207727">
                <ele>131.840000</ele>
                <time>2014-08-30T07:26:14Z</time>
            </trkpt>
            <trkpt lon="101.100813" lat="13.208174">
                <ele>128.950000</ele>
                <time>2014-08-30T07:26:22Z</time>
            </trkpt>
            <trkpt lon="101.100544" lat="13.208903">
                <ele>126.070000</ele>
                <time>2014-08-30T07:26:36Z</time>
            </trkpt>
            <trkpt lon="101.100391" lat="13.209273">
                <ele>125.590000</ele>
                <time>2014-08-30T07:26:44Z</time>
            </trkpt>
            <trkpt lon="101.100053" lat="13.209999">
                <ele>124.150000</ele>
                <time>2014-08-30T07:27:00Z</time>
            </trkpt>
            <trkpt lon="101.099978" lat="13.210210">
                <ele>122.220000</ele>
                <time>2014-08-30T07:27:07Z</time>
            </trkpt>
            <trkpt lon="101.100414" lat="13.210594">
                <ele>122.220000</ele>
                <time>2014-08-30T07:27:20Z</time>
            </trkpt>
            <trkpt lon="101.101064" lat="13.211041">
                <ele>120.300000</ele>
                <time>2014-08-30T07:27:35Z</time>
            </trkpt>
            <trkpt lon="101.101466" lat="13.211368">
                <ele>121.260000</ele>
                <time>2014-08-30T07:27:47Z</time>
            </trkpt>
            <trkpt lon="101.101732" lat="13.211597">
                <ele>121.740000</ele>
                <time>2014-08-30T07:27:56Z</time>
            </trkpt>
            <trkpt lon="101.101902" lat="13.211712">
                <ele>122.220000</ele>
                <time>2014-08-30T07:28:01Z</time>
            </trkpt>
            <trkpt lon="101.102377" lat="13.212080">
                <ele>121.740000</ele>
                <time>2014-08-30T07:28:15Z</time>
            </trkpt>
            <trkpt lon="101.102740" lat="13.212329">
                <ele>122.220000</ele>
                <time>2014-08-30T07:28:24Z</time>
            </trkpt>
            <trkpt lon="101.103056" lat="13.213005">
                <ele>120.300000</ele>
                <time>2014-08-30T07:28:38Z</time>
            </trkpt>
            <trkpt lon="101.103469" lat="13.213664">
                <ele>119.820000</ele>
                <time>2014-08-30T07:28:51Z</time>
            </trkpt>
            <trkpt lon="101.103884" lat="13.214327">
                <ele>118.380000</ele>
                <time>2014-08-30T07:29:08Z</time>
            </trkpt>
            <trkpt lon="101.103888" lat="13.214345">
                <ele>118.380000</ele>
                <time>2014-08-30T07:29:09Z</time>
            </trkpt>
            <trkpt lon="101.103566" lat="13.214525">
                <ele>118.380000</ele>
                <time>2014-08-30T07:29:21Z</time>
            </trkpt>
            <trkpt lon="101.103475" lat="13.214561">
                <ele>117.420000</ele>
                <time>2014-08-30T07:29:25Z</time>
            </trkpt>
            <trkpt lon="101.103451" lat="13.214591">
                <ele>117.420000</ele>
                <time>2014-08-30T07:29:36Z</time>
            </trkpt>
            <trkpt lon="101.103460" lat="13.214594">
                <ele>116.940000</ele>
                <time>2014-08-30T07:30:03Z</time>
            </trkpt>
            <trkpt lon="101.103463" lat="13.214592">
                <ele>117.420000</ele>
                <time>2014-08-30T07:30:34Z</time>
            </trkpt>
            <trkpt lon="101.103427" lat="13.214604">
                <ele>116.940000</ele>
                <time>2014-08-30T07:30:55Z</time>
            </trkpt>
            <trkpt lon="101.103372" lat="13.214595">
                <ele>116.940000</ele>
                <time>2014-08-30T07:31:09Z</time>
            </trkpt>
            <trkpt lon="101.103362" lat="13.214606">
                <ele>117.420000</ele>
                <time>2014-08-30T07:31:31Z</time>
            </trkpt>
            <trkpt lon="101.103365" lat="13.214623">
                <ele>116.460000</ele>
                <time>2014-08-30T07:31:49Z</time>
            </trkpt>
            <trkpt lon="101.103379" lat="13.214628">
                <ele>117.420000</ele>
                <time>2014-08-30T07:31:54Z</time>
            </trkpt>
            <trkpt lon="101.103658" lat="13.214516">
                <ele>117.420000</ele>
                <time>2014-08-30T07:32:09Z</time>
            </trkpt>
            <trkpt lon="101.103740" lat="13.214493">
                <ele>117.900000</ele>
                <time>2014-08-30T07:32:18Z</time>
            </trkpt>
            <trkpt lon="101.103742" lat="13.214492">
                <ele>117.420000</ele>
                <time>2014-08-30T07:32:19Z</time>
            </trkpt>
            <trkpt lon="101.103802" lat="13.214449">
                <ele>117.420000</ele>
                <time>2014-08-30T07:32:24Z</time>
            </trkpt>
            <trkpt lon="101.103823" lat="13.214438">
                <ele>117.900000</ele>
                <time>2014-08-30T07:32:25Z</time>
            </trkpt>
            <trkpt lon="101.104339" lat="13.214199">
                <ele>117.900000</ele>
                <time>2014-08-30T07:32:43Z</time>
            </trkpt>
            <trkpt lon="101.104468" lat="13.214290">
                <ele>116.940000</ele>
                <time>2014-08-30T07:32:47Z</time>
            </trkpt>
            <trkpt lon="101.104877" lat="13.215007">
                <ele>115.980000</ele>
                <time>2014-08-30T07:33:03Z</time>
            </trkpt>
            <trkpt lon="101.105175" lat="13.215479">
                <ele>115.980000</ele>
                <time>2014-08-30T07:33:14Z</time>
            </trkpt>
            <trkpt lon="101.105573" lat="13.216033">
                <ele>115.980000</ele>
                <time>2014-08-30T07:33:30Z</time>
            </trkpt>
            <trkpt lon="101.105926" lat="13.216421">
                <ele>116.460000</ele>
                <time>2014-08-30T07:33:47Z</time>
            </trkpt>
            <trkpt lon="101.106264" lat="13.216233">
                <ele>116.460000</ele>
                <time>2014-08-30T07:33:58Z</time>
            </trkpt>
            <trkpt lon="101.106641" lat="13.215769">
                <ele>117.420000</ele>
                <time>2014-08-30T07:34:16Z</time>
            </trkpt>
            <trkpt lon="101.106903" lat="13.215389">
                <ele>117.420000</ele>
                <time>2014-08-30T07:34:31Z</time>
            </trkpt>
            <trkpt lon="101.107531" lat="13.215208">
                <ele>118.380000</ele>
                <time>2014-08-30T07:34:52Z</time>
            </trkpt>
            <trkpt lon="101.107799" lat="13.214971">
                <ele>119.340000</ele>
                <time>2014-08-30T07:35:04Z</time>
            </trkpt>
            <trkpt lon="101.108249" lat="13.214723">
                <ele>119.340000</ele>
                <time>2014-08-30T07:35:19Z</time>
            </trkpt>
            <trkpt lon="101.108312" lat="13.214453">
                <ele>119.340000</ele>
                <time>2014-08-30T07:35:28Z</time>
            </trkpt>
            <trkpt lon="101.108051" lat="13.214142">
                <ele>120.780000</ele>
                <time>2014-08-30T07:35:41Z</time>
            </trkpt>
            <trkpt lon="101.108188" lat="13.213789">
                <ele>121.260000</ele>
                <time>2014-08-30T07:35:54Z</time>
            </trkpt>
            <trkpt lon="101.108555" lat="13.213583">
                <ele>119.820000</ele>
                <time>2014-08-30T07:36:10Z</time>
            </trkpt>
            <trkpt lon="101.108811" lat="13.213448">
                <ele>120.300000</ele>
                <time>2014-08-30T07:36:23Z</time>
            </trkpt>
            <trkpt lon="101.108920" lat="13.213542">
                <ele>119.340000</ele>
                <time>2014-08-30T07:36:29Z</time>
            </trkpt>
            <trkpt lon="101.108950" lat="13.213647">
                <ele>119.340000</ele>
                <time>2014-08-30T07:36:33Z</time>
            </trkpt>
            <trkpt lon="101.109228" lat="13.213652">
                <ele>119.820000</ele>
                <time>2014-08-30T07:36:43Z</time>
            </trkpt>
            <trkpt lon="101.109316" lat="13.213930">
                <ele>119.340000</ele>
                <time>2014-08-30T07:36:53Z</time>
            </trkpt>
            <trkpt lon="101.109336" lat="13.214178">
                <ele>118.380000</ele>
                <time>2014-08-30T07:37:05Z</time>
            </trkpt>
            <trkpt lon="101.109431" lat="13.214346">
                <ele>117.900000</ele>
                <time>2014-08-30T07:37:17Z</time>
            </trkpt>
            <trkpt lon="101.109507" lat="13.214622">
                <ele>117.900000</ele>
                <time>2014-08-30T07:37:31Z</time>
            </trkpt>
            <trkpt lon="101.109469" lat="13.214693">
                <ele>116.940000</ele>
                <time>2014-08-30T07:37:36Z</time>
            </trkpt>
            <trkpt lon="101.109383" lat="13.214749">
                <ele>118.380000</ele>
                <time>2014-08-30T07:37:46Z</time>
            </trkpt>
            <trkpt lon="101.109381" lat="13.214783">
                <ele>116.940000</ele>
                <time>2014-08-30T07:37:49Z</time>
            </trkpt>
            <trkpt lon="101.109379" lat="13.214940">
                <ele>116.460000</ele>
                <time>2014-08-30T07:38:01Z</time>
            </trkpt>
            <trkpt lon="101.109386" lat="13.215157">
                <ele>116.940000</ele>
                <time>2014-08-30T07:38:13Z</time>
            </trkpt>
            <trkpt lon="101.109468" lat="13.215481">
                <ele>116.460000</ele>
                <time>2014-08-30T07:38:28Z</time>
            </trkpt>
            <trkpt lon="101.109563" lat="13.215706">
                <ele>116.460000</ele>
                <time>2014-08-30T07:38:42Z</time>
            </trkpt>
            <trkpt lon="101.109636" lat="13.215970">
                <ele>115.500000</ele>
                <time>2014-08-30T07:38:57Z</time>
            </trkpt>
            <trkpt lon="101.109739" lat="13.216265">
                <ele>115.500000</ele>
                <time>2014-08-30T07:39:12Z</time>
            </trkpt>
            <trkpt lon="101.109855" lat="13.216574">
                <ele>115.010000</ele>
                <time>2014-08-30T07:39:28Z</time>
            </trkpt>
            <trkpt lon="101.110015" lat="13.216820">
                <ele>115.010000</ele>
                <time>2014-08-30T07:39:42Z</time>
            </trkpt>
            <trkpt lon="101.110296" lat="13.216696">
                <ele>115.010000</ele>
                <time>2014-08-30T07:39:56Z</time>
            </trkpt>
            <trkpt lon="101.110595" lat="13.216494">
                <ele>114.050000</ele>
                <time>2014-08-30T07:40:13Z</time>
            </trkpt>
            <trkpt lon="101.110886" lat="13.216300">
                <ele>115.500000</ele>
                <time>2014-08-30T07:40:30Z</time>
            </trkpt>
            <trkpt lon="101.111075" lat="13.216180">
                <ele>115.500000</ele>
                <time>2014-08-30T07:40:44Z</time>
            </trkpt>
            <trkpt lon="101.111227" lat="13.216056">
                <ele>116.460000</ele>
                <time>2014-08-30T07:40:57Z</time>
            </trkpt>
            <trkpt lon="101.111231" lat="13.215981">
                <ele>115.980000</ele>
                <time>2014-08-30T07:41:02Z</time>
            </trkpt>
            <trkpt lon="101.111149" lat="13.215665">
                <ele>116.940000</ele>
                <time>2014-08-30T07:41:20Z</time>
            </trkpt>
            <trkpt lon="101.111061" lat="13.215435">
                <ele>117.420000</ele>
                <time>2014-08-30T07:41:35Z</time>
            </trkpt>
            <trkpt lon="101.111046" lat="13.215369">
                <ele>116.460000</ele>
                <time>2014-08-30T07:41:45Z</time>
            </trkpt>
            <trkpt lon="101.111024" lat="13.215359">
                <ele>116.940000</ele>
                <time>2014-08-30T07:42:02Z</time>
            </trkpt>
            <trkpt lon="101.111022" lat="13.215391">
                <ele>116.940000</ele>
                <time>2014-08-30T07:42:29Z</time>
            </trkpt>
            <trkpt lon="101.111002" lat="13.215370">
                <ele>117.420000</ele>
                <time>2014-08-30T07:42:51Z</time>
            </trkpt>
            <trkpt lon="101.110987" lat="13.215363">
                <ele>116.940000</ele>
                <time>2014-08-30T07:43:10Z</time>
            </trkpt>
            <trkpt lon="101.110990" lat="13.215361">
                <ele>116.940000</ele>
                <time>2014-08-30T07:43:30Z</time>
            </trkpt>
            <trkpt lon="101.110989" lat="13.215368">
                <ele>116.940000</ele>
                <time>2014-08-30T07:44:05Z</time>
            </trkpt>
            <trkpt lon="101.110998" lat="13.215379">
                <ele>116.940000</ele>
                <time>2014-08-30T07:44:17Z</time>
            </trkpt>
            <trkpt lon="101.111080" lat="13.215588">
                <ele>116.940000</ele>
                <time>2014-08-30T07:44:30Z</time>
            </trkpt>
            <trkpt lon="101.111170" lat="13.215847">
                <ele>115.500000</ele>
                <time>2014-08-30T07:44:45Z</time>
            </trkpt>
            <trkpt lon="101.111179" lat="13.215882">
                <ele>116.940000</ele>
                <time>2014-08-30T07:44:47Z</time>
            </trkpt>
            <trkpt lon="101.111305" lat="13.216136">
                <ele>116.940000</ele>
                <time>2014-08-30T07:45:04Z</time>
            </trkpt>
            <trkpt lon="101.111470" lat="13.216348">
                <ele>115.980000</ele>
                <time>2014-08-30T07:45:22Z</time>
            </trkpt>
            <trkpt lon="101.111614" lat="13.216408">
                <ele>116.460000</ele>
                <time>2014-08-30T07:45:32Z</time>
            </trkpt>
            <trkpt lon="101.111849" lat="13.216481">
                <ele>116.460000</ele>
                <time>2014-08-30T07:45:47Z</time>
            </trkpt>
            <trkpt lon="101.111938" lat="13.216432">
                <ele>116.940000</ele>
                <time>2014-08-30T07:45:52Z</time>
            </trkpt>
            <trkpt lon="101.112160" lat="13.216049">
                <ele>116.460000</ele>
                <time>2014-08-30T07:46:10Z</time>
            </trkpt>
            <trkpt lon="101.112465" lat="13.215664">
                <ele>117.420000</ele>
                <time>2014-08-30T07:46:28Z</time>
            </trkpt>
            <trkpt lon="101.112798" lat="13.215215">
                <ele>118.860000</ele>
                <time>2014-08-30T07:46:46Z</time>
            </trkpt>
            <trkpt lon="101.112923" lat="13.215058">
                <ele>118.860000</ele>
                <time>2014-08-30T07:46:52Z</time>
            </trkpt>
            <trkpt lon="101.113097" lat="13.215038">
                <ele>117.900000</ele>
                <time>2014-08-30T07:46:56Z</time>
            </trkpt>
            <trkpt lon="101.113229" lat="13.214940">
                <ele>118.380000</ele>
                <time>2014-08-30T07:47:01Z</time>
            </trkpt>
            <trkpt lon="101.113137" lat="13.214514">
                <ele>118.380000</ele>
                <time>2014-08-30T07:47:16Z</time>
            </trkpt>
            <trkpt lon="101.113069" lat="13.214277">
                <ele>118.860000</ele>
                <time>2014-08-30T07:47:27Z</time>
            </trkpt>
            <trkpt lon="101.113015" lat="13.213900">
                <ele>119.340000</ele>
                <time>2014-08-30T07:47:40Z</time>
            </trkpt>
            <trkpt lon="101.112938" lat="13.213545">
                <ele>120.300000</ele>
                <time>2014-08-30T07:47:54Z</time>
            </trkpt>
            <trkpt lon="101.112968" lat="13.213286">
                <ele>121.260000</ele>
                <time>2014-08-30T07:48:05Z</time>
            </trkpt>
            <trkpt lon="101.113008" lat="13.213196">
                <ele>121.740000</ele>
                <time>2014-08-30T07:48:09Z</time>
            </trkpt>
            <trkpt lon="101.113388" lat="13.212965">
                <ele>121.260000</ele>
                <time>2014-08-30T07:48:24Z</time>
            </trkpt>
            <trkpt lon="101.113791" lat="13.212753">
                <ele>120.780000</ele>
                <time>2014-08-30T07:48:37Z</time>
            </trkpt>
            <trkpt lon="101.113996" lat="13.212355">
                <ele>119.340000</ele>
                <time>2014-08-30T07:48:48Z</time>
            </trkpt>
            <trkpt lon="101.114285" lat="13.212277">
                <ele>121.260000</ele>
                <time>2014-08-30T07:48:59Z</time>
            </trkpt>
            <trkpt lon="101.114673" lat="13.212075">
                <ele>121.740000</ele>
                <time>2014-08-30T07:49:15Z</time>
            </trkpt>
            <trkpt lon="101.114691" lat="13.211688">
                <ele>122.710000</ele>
                <time>2014-08-30T07:49:30Z</time>
            </trkpt>
            <trkpt lon="101.114536" lat="13.211414">
                <ele>124.150000</ele>
                <time>2014-08-30T07:49:43Z</time>
            </trkpt>
            <trkpt lon="101.114454" lat="13.211029">
                <ele>124.150000</ele>
                <time>2014-08-30T07:49:58Z</time>
            </trkpt>
            <trkpt lon="101.114519" lat="13.210665">
                <ele>126.070000</ele>
                <time>2014-08-30T07:50:13Z</time>
            </trkpt>
            <trkpt lon="101.114503" lat="13.210283">
                <ele>128.470000</ele>
                <time>2014-08-30T07:50:29Z</time>
            </trkpt>
            <trkpt lon="101.114362" lat="13.209879">
                <ele>127.030000</ele>
                <time>2014-08-30T07:50:45Z</time>
            </trkpt>
            <trkpt lon="101.114364" lat="13.209495">
                <ele>129.430000</ele>
                <time>2014-08-30T07:51:03Z</time>
            </trkpt>
            <trkpt lon="101.114207" lat="13.209289">
                <ele>129.920000</ele>
                <time>2014-08-30T07:51:18Z</time>
            </trkpt>
            <trkpt lon="101.114047" lat="13.209024">
                <ele>130.400000</ele>
                <time>2014-08-30T07:51:32Z</time>
            </trkpt>
            <trkpt lon="101.113856" lat="13.208741">
                <ele>132.800000</ele>
                <time>2014-08-30T07:51:48Z</time>
            </trkpt>
            <trkpt lon="101.113626" lat="13.208468">
                <ele>133.760000</ele>
                <time>2014-08-30T07:52:05Z</time>
            </trkpt>
            <trkpt lon="101.113426" lat="13.208206">
                <ele>135.680000</ele>
                <time>2014-08-30T07:52:20Z</time>
            </trkpt>
            <trkpt lon="101.113173" lat="13.208129">
                <ele>137.130000</ele>
                <time>2014-08-30T07:52:34Z</time>
            </trkpt>
            <trkpt lon="101.112975" lat="13.207993">
                <ele>138.570000</ele>
                <time>2014-08-30T07:52:49Z</time>
            </trkpt>
            <trkpt lon="101.112812" lat="13.207770">
                <ele>139.530000</ele>
                <time>2014-08-30T07:53:07Z</time>
            </trkpt>
            <trkpt lon="101.112642" lat="13.207560">
                <ele>140.970000</ele>
                <time>2014-08-30T07:53:25Z</time>
            </trkpt>
            <trkpt lon="101.112622" lat="13.207520">
                <ele>142.410000</ele>
                <time>2014-08-30T07:53:28Z</time>
            </trkpt>
            <trkpt lon="101.112394" lat="13.207313">
                <ele>144.340000</ele>
                <time>2014-08-30T07:53:48Z</time>
            </trkpt>
            <trkpt lon="101.112094" lat="13.207102">
                <ele>146.260000</ele>
                <time>2014-08-30T07:54:10Z</time>
            </trkpt>
            <trkpt lon="101.111884" lat="13.206917">
                <ele>147.700000</ele>
                <time>2014-08-30T07:54:25Z</time>
            </trkpt>
            <trkpt lon="101.111876" lat="13.206724">
                <ele>148.660000</ele>
                <time>2014-08-30T07:54:38Z</time>
            </trkpt>
            <trkpt lon="101.111772" lat="13.206484">
                <ele>151.060000</ele>
                <time>2014-08-30T07:54:55Z</time>
            </trkpt>
            <trkpt lon="101.111737" lat="13.206335">
                <ele>151.540000</ele>
                <time>2014-08-30T07:55:06Z</time>
            </trkpt>
            <trkpt lon="101.111622" lat="13.206157">
                <ele>151.540000</ele>
                <time>2014-08-30T07:55:24Z</time>
            </trkpt>
            <trkpt lon="101.111561" lat="13.206089">
                <ele>152.030000</ele>
                <time>2014-08-30T07:55:39Z</time>
            </trkpt>
            <trkpt lon="101.111533" lat="13.206079">
                <ele>152.990000</ele>
                <time>2014-08-30T07:55:54Z</time>
            </trkpt>
            <trkpt lon="101.111494" lat="13.206030">
                <ele>153.470000</ele>
                <time>2014-08-30T07:56:02Z</time>
            </trkpt>
            <trkpt lon="101.111475" lat="13.205952">
                <ele>154.910000</ele>
                <time>2014-08-30T07:56:15Z</time>
            </trkpt>
            <trkpt lon="101.111424" lat="13.205848">
                <ele>156.830000</ele>
                <time>2014-08-30T07:56:29Z</time>
            </trkpt>
            <trkpt lon="101.111317" lat="13.205686">
                <ele>158.270000</ele>
                <time>2014-08-30T07:56:49Z</time>
            </trkpt>
            <trkpt lon="101.111304" lat="13.205658">
                <ele>157.310000</ele>
                <time>2014-08-30T07:56:51Z</time>
            </trkpt>
            <trkpt lon="101.111121" lat="13.205414">
                <ele>155.870000</ele>
                <time>2014-08-30T07:57:03Z</time>
            </trkpt>
            <trkpt lon="101.111021" lat="13.205311">
                <ele>155.390000</ele>
                <time>2014-08-30T07:57:13Z</time>
            </trkpt>
            <trkpt lon="101.110799" lat="13.205155">
                <ele>152.990000</ele>
                <time>2014-08-30T07:57:25Z</time>
            </trkpt>
            <trkpt lon="101.110744" lat="13.205033">
                <ele>153.470000</ele>
                <time>2014-08-30T07:57:30Z</time>
            </trkpt>
            <trkpt lon="101.110715" lat="13.204880">
                <ele>154.430000</ele>
                <time>2014-08-30T07:57:37Z</time>
            </trkpt>
            <trkpt lon="101.110585" lat="13.204668">
                <ele>151.540000</ele>
                <time>2014-08-30T07:57:48Z</time>
            </trkpt>
            <trkpt lon="101.110573" lat="13.204497">
                <ele>151.540000</ele>
                <time>2014-08-30T07:57:56Z</time>
            </trkpt>
            <trkpt lon="101.110516" lat="13.204350">
                <ele>148.660000</ele>
                <time>2014-08-30T07:58:06Z</time>
            </trkpt>
            <trkpt lon="101.110474" lat="13.204295">
                <ele>146.260000</ele>
                <time>2014-08-30T07:58:22Z</time>
            </trkpt>
            <trkpt lon="101.110393" lat="13.204162">
                <ele>145.300000</ele>
                <time>2014-08-30T07:58:32Z</time>
            </trkpt>
            <trkpt lon="101.110341" lat="13.204133">
                <ele>146.260000</ele>
                <time>2014-08-30T07:58:40Z</time>
            </trkpt>
            <trkpt lon="101.110281" lat="13.204060">
                <ele>148.660000</ele>
                <time>2014-08-30T07:58:57Z</time>
            </trkpt>
            <trkpt lon="101.110251" lat="13.203983">
                <ele>149.140000</ele>
                <time>2014-08-30T07:59:10Z</time>
            </trkpt>
            <trkpt lon="101.110243" lat="13.203926">
                <ele>149.620000</ele>
                <time>2014-08-30T07:59:14Z</time>
            </trkpt>
            <trkpt lon="101.110065" lat="13.203678">
                <ele>149.140000</ele>
                <time>2014-08-30T07:59:30Z</time>
            </trkpt>
            <trkpt lon="101.109670" lat="13.203495">
                <ele>150.100000</ele>
                <time>2014-08-30T07:59:47Z</time>
            </trkpt>
            <trkpt lon="101.109240" lat="13.203327">
                <ele>150.580000</ele>
                <time>2014-08-30T08:00:05Z</time>
            </trkpt>
            <trkpt lon="101.108732" lat="13.203292">
                <ele>150.100000</ele>
                <time>2014-08-30T08:00:21Z</time>
            </trkpt>
            <trkpt lon="101.108549" lat="13.203275">
                <ele>149.140000</ele>
                <time>2014-08-30T08:00:26Z</time>
            </trkpt>
            <trkpt lon="101.108465" lat="13.203146">
                <ele>149.140000</ele>
                <time>2014-08-30T08:00:31Z</time>
            </trkpt>
            <trkpt lon="101.108635" lat="13.202890">
                <ele>151.060000</ele>
                <time>2014-08-30T08:00:43Z</time>
            </trkpt>
            <trkpt lon="101.108918" lat="13.202681">
                <ele>150.580000</ele>
                <time>2014-08-30T08:00:56Z</time>
            </trkpt>
            <trkpt lon="101.109209" lat="13.202429">
                <ele>153.950000</ele>
                <time>2014-08-30T08:01:11Z</time>
            </trkpt>
            <trkpt lon="101.109588" lat="13.202274">
                <ele>154.910000</ele>
                <time>2014-08-30T08:01:28Z</time>
            </trkpt>
            <trkpt lon="101.109865" lat="13.202041">
                <ele>156.350000</ele>
                <time>2014-08-30T08:01:45Z</time>
            </trkpt>
            <trkpt lon="101.110008" lat="13.201712">
                <ele>156.830000</ele>
                <time>2014-08-30T08:01:59Z</time>
            </trkpt>
            <trkpt lon="101.110135" lat="13.201325">
                <ele>158.750000</ele>
                <time>2014-08-30T08:02:16Z</time>
            </trkpt>
            <trkpt lon="101.110223" lat="13.201001">
                <ele>159.240000</ele>
                <time>2014-08-30T08:02:32Z</time>
            </trkpt>
            <trkpt lon="101.110293" lat="13.200757">
                <ele>160.200000</ele>
                <time>2014-08-30T08:02:44Z</time>
            </trkpt>
            <trkpt lon="101.110302" lat="13.200693">
                <ele>158.750000</ele>
                <time>2014-08-30T08:02:46Z</time>
            </trkpt>
            <trkpt lon="101.110369" lat="13.200309">
                <ele>159.240000</ele>
                <time>2014-08-30T08:02:59Z</time>
            </trkpt>
            <trkpt lon="101.110391" lat="13.200207">
                <ele>160.680000</ele>
                <time>2014-08-30T08:03:04Z</time>
            </trkpt>
            <trkpt lon="101.110429" lat="13.200139">
                <ele>162.120000</ele>
                <time>2014-08-30T08:03:09Z</time>
            </trkpt>
            <trkpt lon="101.110466" lat="13.200040">
                <ele>162.600000</ele>
                <time>2014-08-30T08:03:15Z</time>
            </trkpt>
            <trkpt lon="101.110533" lat="13.199892">
                <ele>163.560000</ele>
                <time>2014-08-30T08:03:24Z</time>
            </trkpt>
            <trkpt lon="101.110686" lat="13.199568">
                <ele>163.560000</ele>
                <time>2014-08-30T08:03:39Z</time>
            </trkpt>
            <trkpt lon="101.110846" lat="13.199281">
                <ele>164.520000</ele>
                <time>2014-08-30T08:03:54Z</time>
            </trkpt>
            <trkpt lon="101.110969" lat="13.199139">
                <ele>165.960000</ele>
                <time>2014-08-30T08:04:04Z</time>
            </trkpt>
            <trkpt lon="101.111059" lat="13.198944">
                <ele>168.850000</ele>
                <time>2014-08-30T08:04:17Z</time>
            </trkpt>
            <trkpt lon="101.111108" lat="13.198847">
                <ele>170.770000</ele>
                <time>2014-08-30T08:04:23Z</time>
            </trkpt>
            <trkpt lon="101.111142" lat="13.198763">
                <ele>171.730000</ele>
                <time>2014-08-30T08:04:27Z</time>
            </trkpt>
            <trkpt lon="101.111297" lat="13.198595">
                <ele>173.170000</ele>
                <time>2014-08-30T08:04:43Z</time>
            </trkpt>
            <trkpt lon="101.111494" lat="13.198391">
                <ele>175.580000</ele>
                <time>2014-08-30T08:05:00Z</time>
            </trkpt>
            <trkpt lon="101.111617" lat="13.198351">
                <ele>176.540000</ele>
                <time>2014-08-30T08:05:14Z</time>
            </trkpt>
            <trkpt lon="101.111685" lat="13.198292">
                <ele>177.980000</ele>
                <time>2014-08-30T08:05:27Z</time>
            </trkpt>
            <trkpt lon="101.111733" lat="13.198217">
                <ele>179.900000</ele>
                <time>2014-08-30T08:05:41Z</time>
            </trkpt>
            <trkpt lon="101.111808" lat="13.198144">
                <ele>181.350000</ele>
                <time>2014-08-30T08:05:52Z</time>
            </trkpt>
            <trkpt lon="101.111904" lat="13.198049">
                <ele>182.790000</ele>
                <time>2014-08-30T08:06:07Z</time>
            </trkpt>
            <trkpt lon="101.112020" lat="13.197980">
                <ele>185.190000</ele>
                <time>2014-08-30T08:06:24Z</time>
            </trkpt>
            <trkpt lon="101.112134" lat="13.197851">
                <ele>186.630000</ele>
                <time>2014-08-30T08:06:39Z</time>
            </trkpt>
            <trkpt lon="101.112238" lat="13.197754">
                <ele>188.560000</ele>
                <time>2014-08-30T08:06:58Z</time>
            </trkpt>
            <trkpt lon="101.112364" lat="13.197699">
                <ele>190.000000</ele>
                <time>2014-08-30T08:07:14Z</time>
            </trkpt>
            <trkpt lon="101.112448" lat="13.197608">
                <ele>191.440000</ele>
                <time>2014-08-30T08:07:29Z</time>
            </trkpt>
            <trkpt lon="101.112623" lat="13.197578">
                <ele>192.880000</ele>
                <time>2014-08-30T08:07:47Z</time>
            </trkpt>
            <trkpt lon="101.112776" lat="13.197555">
                <ele>194.320000</ele>
                <time>2014-08-30T08:08:03Z</time>
            </trkpt>
            <trkpt lon="101.113088" lat="13.197579">
                <ele>194.320000</ele>
                <time>2014-08-30T08:08:18Z</time>
            </trkpt>
            <trkpt lon="101.113278" lat="13.197757">
                <ele>194.320000</ele>
                <time>2014-08-30T08:08:29Z</time>
            </trkpt>
            <trkpt lon="101.113486" lat="13.198022">
                <ele>192.880000</ele>
                <time>2014-08-30T08:08:39Z</time>
            </trkpt>
            <trkpt lon="101.113687" lat="13.198266">
                <ele>192.400000</ele>
                <time>2014-08-30T08:08:51Z</time>
            </trkpt>
            <trkpt lon="101.113940" lat="13.198549">
                <ele>191.920000</ele>
                <time>2014-08-30T08:09:05Z</time>
            </trkpt>
            <trkpt lon="101.114181" lat="13.198886">
                <ele>191.440000</ele>
                <time>2014-08-30T08:09:19Z</time>
            </trkpt>
            <trkpt lon="101.114495" lat="13.199096">
                <ele>190.000000</ele>
                <time>2014-08-30T08:09:31Z</time>
            </trkpt>
            <trkpt lon="101.114929" lat="13.199185">
                <ele>189.040000</ele>
                <time>2014-08-30T08:09:43Z</time>
            </trkpt>
            <trkpt lon="101.115225" lat="13.199344">
                <ele>186.150000</ele>
                <time>2014-08-30T08:09:54Z</time>
            </trkpt>
            <trkpt lon="101.115514" lat="13.199461">
                <ele>183.750000</ele>
                <time>2014-08-30T08:10:06Z</time>
            </trkpt>
            <trkpt lon="101.115828" lat="13.199636">
                <ele>181.350000</ele>
                <time>2014-08-30T08:10:18Z</time>
            </trkpt>
            <trkpt lon="101.116158" lat="13.199861">
                <ele>180.380000</ele>
                <time>2014-08-30T08:10:30Z</time>
            </trkpt>
            <trkpt lon="101.116531" lat="13.200060">
                <ele>179.900000</ele>
                <time>2014-08-30T08:10:42Z</time>
            </trkpt>
            <trkpt lon="101.116998" lat="13.200147">
                <ele>176.540000</ele>
                <time>2014-08-30T08:10:54Z</time>
            </trkpt>
            <trkpt lon="101.117360" lat="13.200437">
                <ele>177.020000</ele>
                <time>2014-08-30T08:11:05Z</time>
            </trkpt>
            <trkpt lon="101.117453" lat="13.200413">
                <ele>175.580000</ele>
                <time>2014-08-30T08:11:09Z</time>
            </trkpt>
            <trkpt lon="101.117531" lat="13.200340">
                <ele>175.100000</ele>
                <time>2014-08-30T08:11:13Z</time>
            </trkpt>
            <trkpt lon="101.117700" lat="13.200341">
                <ele>174.140000</ele>
                <time>2014-08-30T08:11:18Z</time>
            </trkpt>
            <trkpt lon="101.117886" lat="13.200336">
                <ele>172.210000</ele>
                <time>2014-08-30T08:11:23Z</time>
            </trkpt>
            <trkpt lon="101.118154" lat="13.200462">
                <ele>170.770000</ele>
                <time>2014-08-30T08:11:31Z</time>
            </trkpt>
            <trkpt lon="101.118206" lat="13.200533">
                <ele>169.330000</ele>
                <time>2014-08-30T08:11:33Z</time>
            </trkpt>
            <trkpt lon="101.118230" lat="13.200575">
                <ele>168.850000</ele>
                <time>2014-08-30T08:11:34Z</time>
            </trkpt>
            <trkpt lon="101.118340" lat="13.200707">
                <ele>168.850000</ele>
                <time>2014-08-30T08:11:38Z</time>
            </trkpt>
            <trkpt lon="101.118564" lat="13.200819">
                <ele>167.410000</ele>
                <time>2014-08-30T08:11:44Z</time>
            </trkpt>
            <trkpt lon="101.118938" lat="13.201098">
                <ele>166.450000</ele>
                <time>2014-08-30T08:11:55Z</time>
            </trkpt>
            <trkpt lon="101.119041" lat="13.201171">
                <ele>165.480000</ele>
                <time>2014-08-30T08:11:58Z</time>
            </trkpt>
            <trkpt lon="101.119272" lat="13.201167">
                <ele>165.000000</ele>
                <time>2014-08-30T08:12:03Z</time>
            </trkpt>
            <trkpt lon="101.119416" lat="13.201090">
                <ele>163.080000</ele>
                <time>2014-08-30T08:12:06Z</time>
            </trkpt>
            <trkpt lon="101.119858" lat="13.201022">
                <ele>160.680000</ele>
                <time>2014-08-30T08:12:14Z</time>
            </trkpt>
            <trkpt lon="101.120174" lat="13.200780">
                <ele>159.720000</ele>
                <time>2014-08-30T08:12:25Z</time>
            </trkpt>
            <trkpt lon="101.120204" lat="13.200747">
                <ele>159.720000</ele>
                <time>2014-08-30T08:12:27Z</time>
            </trkpt>
            <trkpt lon="101.120349" lat="13.200748">
                <ele>159.240000</ele>
                <time>2014-08-30T08:12:32Z</time>
            </trkpt>
            <trkpt lon="101.120535" lat="13.201069">
                <ele>160.200000</ele>
                <time>2014-08-30T08:12:47Z</time>
            </trkpt>
            <trkpt lon="101.120682" lat="13.201374">
                <ele>159.240000</ele>
                <time>2014-08-30T08:12:55Z</time>
            </trkpt>
            <trkpt lon="101.120689" lat="13.201617">
                <ele>158.750000</ele>
                <time>2014-08-30T08:13:01Z</time>
            </trkpt>
            <trkpt lon="101.120577" lat="13.201878">
                <ele>158.750000</ele>
                <time>2014-08-30T08:13:07Z</time>
            </trkpt>
            <trkpt lon="101.120547" lat="13.202056">
                <ele>158.270000</ele>
                <time>2014-08-30T08:13:11Z</time>
            </trkpt>
            <trkpt lon="101.120555" lat="13.202199">
                <ele>158.750000</ele>
                <time>2014-08-30T08:13:14Z</time>
            </trkpt>
            <trkpt lon="101.120576" lat="13.202291">
                <ele>157.790000</ele>
                <time>2014-08-30T08:13:16Z</time>
            </trkpt>
            <trkpt lon="101.120603" lat="13.202636">
                <ele>157.310000</ele>
                <time>2014-08-30T08:13:23Z</time>
            </trkpt>
            <trkpt lon="101.120622" lat="13.202842">
                <ele>157.310000</ele>
                <time>2014-08-30T08:13:27Z</time>
            </trkpt>
            <trkpt lon="101.120658" lat="13.203039">
                <ele>156.350000</ele>
                <time>2014-08-30T08:13:31Z</time>
            </trkpt>
            <trkpt lon="101.120782" lat="13.203525">
                <ele>154.910000</ele>
                <time>2014-08-30T08:13:41Z</time>
            </trkpt>
            <trkpt lon="101.120839" lat="13.203763">
                <ele>154.430000</ele>
                <time>2014-08-30T08:13:45Z</time>
            </trkpt>
            <trkpt lon="101.120837" lat="13.204104">
                <ele>152.510000</ele>
                <time>2014-08-30T08:13:50Z</time>
            </trkpt>
            <trkpt lon="101.120817" lat="13.204179">
                <ele>152.030000</ele>
                <time>2014-08-30T08:13:51Z</time>
            </trkpt>
            <trkpt lon="101.120613" lat="13.205206">
                <ele>147.700000</ele>
                <time>2014-08-30T08:14:04Z</time>
            </trkpt>
            <trkpt lon="101.120596" lat="13.205334">
                <ele>147.220000</ele>
                <time>2014-08-30T08:14:06Z</time>
            </trkpt>
            <trkpt lon="101.120565" lat="13.205610">
                <ele>144.820000</ele>
                <time>2014-08-30T08:14:11Z</time>
            </trkpt>
            <trkpt lon="101.120317" lat="13.205670">
                <ele>142.890000</ele>
                <time>2014-08-30T08:14:19Z</time>
            </trkpt>
            <trkpt lon="101.120214" lat="13.205679">
                <ele>141.450000</ele>
                <time>2014-08-30T08:14:21Z</time>
            </trkpt>
            <trkpt lon="101.120009" lat="13.205707">
                <ele>140.010000</ele>
                <time>2014-08-30T08:14:25Z</time>
            </trkpt>
            <trkpt lon="101.119785" lat="13.205763">
                <ele>139.530000</ele>
                <time>2014-08-30T08:14:30Z</time>
            </trkpt>
            <trkpt lon="101.119553" lat="13.205900">
                <ele>139.050000</ele>
                <time>2014-08-30T08:14:37Z</time>
            </trkpt>
            <trkpt lon="101.119419" lat="13.206115">
                <ele>139.050000</ele>
                <time>2014-08-30T08:14:43Z</time>
            </trkpt>
            <trkpt lon="101.119233" lat="13.206233">
                <ele>138.090000</ele>
                <time>2014-08-30T08:14:48Z</time>
            </trkpt>
            <trkpt lon="101.118803" lat="13.206521">
                <ele>136.640000</ele>
                <time>2014-08-30T08:15:00Z</time>
            </trkpt>
            <trkpt lon="101.118577" lat="13.206729">
                <ele>133.280000</ele>
                <time>2014-08-30T08:15:09Z</time>
            </trkpt>
            <trkpt lon="101.118561" lat="13.206747">
                <ele>133.760000</ele>
                <time>2014-08-30T08:15:10Z</time>
            </trkpt>
            <trkpt lon="101.118454" lat="13.206802">
                <ele>132.800000</ele>
                <time>2014-08-30T08:15:20Z</time>
            </trkpt>
            <trkpt lon="101.118362" lat="13.206892">
                <ele>132.800000</ele>
                <time>2014-08-30T08:15:37Z</time>
            </trkpt>
            <trkpt lon="101.118351" lat="13.206898">
                <ele>133.280000</ele>
                <time>2014-08-30T08:15:53Z</time>
            </trkpt>
            <trkpt lon="101.118312" lat="13.206923">
                <ele>132.800000</ele>
                <time>2014-08-30T08:16:08Z</time>
            </trkpt>
            <trkpt lon="101.118319" lat="13.206918">
                <ele>132.800000</ele>
                <time>2014-08-30T08:16:27Z</time>
            </trkpt>
            <trkpt lon="101.118293" lat="13.206933">
                <ele>131.840000</ele>
                <time>2014-08-30T08:16:40Z</time>
            </trkpt>
            <trkpt lon="101.118296" lat="13.206932">
                <ele>131.840000</ele>
                <time>2014-08-30T08:17:13Z</time>
            </trkpt>
            <trkpt lon="101.118263" lat="13.206968">
                <ele>132.320000</ele>
                <time>2014-08-30T08:17:27Z</time>
            </trkpt>
            <trkpt lon="101.118248" lat="13.206997">
                <ele>131.360000</ele>
                <time>2014-08-30T08:17:45Z</time>
            </trkpt>
            <trkpt lon="101.118262" lat="13.207027">
                <ele>131.360000</ele>
                <time>2014-08-30T08:18:08Z</time>
            </trkpt>
            <trkpt lon="101.118270" lat="13.207042">
                <ele>129.920000</ele>
                <time>2014-08-30T08:18:28Z</time>
            </trkpt>
            <trkpt lon="101.118266" lat="13.207056">
                <ele>129.920000</ele>
                <time>2014-08-30T08:18:42Z</time>
            </trkpt>
            <trkpt lon="101.118278" lat="13.207049">
                <ele>129.430000</ele>
                <time>2014-08-30T08:18:58Z</time>
            </trkpt>
            <trkpt lon="101.118208" lat="13.207080">
                <ele>128.950000</ele>
                <time>2014-08-30T08:19:14Z</time>
            </trkpt>
            <trkpt lon="101.118131" lat="13.207151">
                <ele>132.800000</ele>
                <time>2014-08-30T08:19:32Z</time>
            </trkpt>
            <trkpt lon="101.118032" lat="13.207204">
                <ele>132.320000</ele>
                <time>2014-08-30T08:19:44Z</time>
            </trkpt>
            <trkpt lon="101.118249" lat="13.207475">
                <ele>130.400000</ele>
                <time>2014-08-30T08:19:57Z</time>
            </trkpt>
            <trkpt lon="101.118260" lat="13.207512">
                <ele>130.400000</ele>
                <time>2014-08-30T08:19:58Z</time>
            </trkpt>
            <trkpt lon="101.118445" lat="13.207972">
                <ele>129.430000</ele>
                <time>2014-08-30T08:20:11Z</time>
            </trkpt>
            <trkpt lon="101.118528" lat="13.208233">
                <ele>128.950000</ele>
                <time>2014-08-30T08:20:17Z</time>
            </trkpt>
            <trkpt lon="101.118524" lat="13.208461">
                <ele>127.990000</ele>
                <time>2014-08-30T08:20:22Z</time>
            </trkpt>
            <trkpt lon="101.118257" lat="13.209384">
                <ele>126.070000</ele>
                <time>2014-08-30T08:20:40Z</time>
            </trkpt>
            <trkpt lon="101.118125" lat="13.209710">
                <ele>125.110000</ele>
                <time>2014-08-30T08:20:47Z</time>
            </trkpt>
            <trkpt lon="101.118085" lat="13.210199">
                <ele>125.110000</ele>
                <time>2014-08-30T08:20:59Z</time>
            </trkpt>
            <trkpt lon="101.117988" lat="13.210604">
                <ele>125.590000</ele>
                <time>2014-08-30T08:21:11Z</time>
            </trkpt>
            <trkpt lon="101.118011" lat="13.210621">
                <ele>124.630000</ele>
                <time>2014-08-30T08:21:12Z</time>
            </trkpt>
            <trkpt lon="101.118041" lat="13.210632">
                <ele>124.630000</ele>
                <time>2014-08-30T08:21:13Z</time>
            </trkpt>
            <trkpt lon="101.118076" lat="13.210635">
                <ele>124.150000</ele>
                <time>2014-08-30T08:21:14Z</time>
            </trkpt>
            <trkpt lon="101.118117" lat="13.210636">
                <ele>123.190000</ele>
                <time>2014-08-30T08:21:15Z</time>
            </trkpt>
            <trkpt lon="101.118395" lat="13.210629">
                <ele>123.670000</ele>
                <time>2014-08-30T08:21:21Z</time>
            </trkpt>
            <trkpt lon="101.118683" lat="13.210639">
                <ele>123.670000</ele>
                <time>2014-08-30T08:21:27Z</time>
            </trkpt>
            <trkpt lon="101.118730" lat="13.210658">
                <ele>123.670000</ele>
                <time>2014-08-30T08:21:28Z</time>
            </trkpt>
            <trkpt lon="101.118774" lat="13.210684">
                <ele>123.670000</ele>
                <time>2014-08-30T08:21:29Z</time>
            </trkpt>
            <trkpt lon="101.118817" lat="13.210714">
                <ele>123.190000</ele>
                <time>2014-08-30T08:21:30Z</time>
            </trkpt>
            <trkpt lon="101.118857" lat="13.210747">
                <ele>123.670000</ele>
                <time>2014-08-30T08:21:31Z</time>
            </trkpt>
            <trkpt lon="101.118892" lat="13.210786">
                <ele>124.150000</ele>
                <time>2014-08-30T08:21:32Z</time>
            </trkpt>
            <trkpt lon="101.118921" lat="13.210829">
                <ele>123.670000</ele>
                <time>2014-08-30T08:21:33Z</time>
            </trkpt>
            <trkpt lon="101.118944" lat="13.210874">
                <ele>124.150000</ele>
                <time>2014-08-30T08:21:34Z</time>
            </trkpt>
            <trkpt lon="101.118964" lat="13.210918">
                <ele>124.150000</ele>
                <time>2014-08-30T08:21:35Z</time>
            </trkpt>
            <trkpt lon="101.119321" lat="13.211384">
                <ele>125.110000</ele>
                <time>2014-08-30T08:21:49Z</time>
            </trkpt>
            <trkpt lon="101.119702" lat="13.211462">
                <ele>126.070000</ele>
                <time>2014-08-30T08:22:02Z</time>
            </trkpt>
            <trkpt lon="101.120072" lat="13.211713">
                <ele>127.030000</ele>
                <time>2014-08-30T08:22:17Z</time>
            </trkpt>
            <trkpt lon="101.120050" lat="13.211830">
                <ele>126.550000</ele>
                <time>2014-08-30T08:22:20Z</time>
            </trkpt>
            <trkpt lon="101.120036" lat="13.211870">
                <ele>126.550000</ele>
                <time>2014-08-30T08:22:21Z</time>
            </trkpt>
            <trkpt lon="101.120023" lat="13.211913">
                <ele>125.590000</ele>
                <time>2014-08-30T08:22:22Z</time>
            </trkpt>
            <trkpt lon="101.120012" lat="13.211957">
                <ele>126.550000</ele>
                <time>2014-08-30T08:22:23Z</time>
            </trkpt>
            <trkpt lon="101.120004" lat="13.212002">
                <ele>126.550000</ele>
                <time>2014-08-30T08:22:24Z</time>
            </trkpt>
            <trkpt lon="101.120000" lat="13.212051">
                <ele>126.070000</ele>
                <time>2014-08-30T08:22:25Z</time>
            </trkpt>
            <trkpt lon="101.120000" lat="13.212100">
                <ele>126.070000</ele>
                <time>2014-08-30T08:22:26Z</time>
            </trkpt>
            <trkpt lon="101.119997" lat="13.212148">
                <ele>126.070000</ele>
                <time>2014-08-30T08:22:27Z</time>
            </trkpt>
            <trkpt lon="101.119882" lat="13.212881">
                <ele>123.670000</ele>
                <time>2014-08-30T08:22:40Z</time>
            </trkpt>
            <trkpt lon="101.119867" lat="13.212939">
                <ele>124.150000</ele>
                <time>2014-08-30T08:22:41Z</time>
            </trkpt>
            <trkpt lon="101.119848" lat="13.212995">
                <ele>123.670000</ele>
                <time>2014-08-30T08:22:42Z</time>
            </trkpt>
            <trkpt lon="101.119609" lat="13.213802">
                <ele>123.190000</ele>
                <time>2014-08-30T08:22:58Z</time>
            </trkpt>
            <trkpt lon="101.119575" lat="13.213889">
                <ele>123.190000</ele>
                <time>2014-08-30T08:23:00Z</time>
            </trkpt>
            <trkpt lon="101.119496" lat="13.213976">
                <ele>123.190000</ele>
                <time>2014-08-30T08:23:03Z</time>
            </trkpt>
            <trkpt lon="101.119454" lat="13.213997">
                <ele>123.190000</ele>
                <time>2014-08-30T08:23:05Z</time>
            </trkpt>
            <trkpt lon="101.119430" lat="13.213997">
                <ele>123.670000</ele>
                <time>2014-08-30T08:23:06Z</time>
            </trkpt>
            <trkpt lon="101.119405" lat="13.213989">
                <ele>123.190000</ele>
                <time>2014-08-30T08:23:07Z</time>
            </trkpt>
            <trkpt lon="101.119007" lat="13.214015">
                <ele>123.190000</ele>
                <time>2014-08-30T08:23:19Z</time>
            </trkpt>
            <trkpt lon="101.118777" lat="13.214585">
                <ele>122.710000</ele>
                <time>2014-08-30T08:23:33Z</time>
            </trkpt>
            <trkpt lon="101.118586" lat="13.215260">
                <ele>121.260000</ele>
                <time>2014-08-30T08:23:46Z</time>
            </trkpt>
            <trkpt lon="101.118254" lat="13.216307">
                <ele>119.340000</ele>
                <time>2014-08-30T08:24:05Z</time>
            </trkpt>
            <trkpt lon="101.118116" lat="13.217217">
                <ele>117.420000</ele>
                <time>2014-08-30T08:24:22Z</time>
            </trkpt>
            <trkpt lon="101.118122" lat="13.217267">
                <ele>116.940000</ele>
                <time>2014-08-30T08:24:23Z</time>
            </trkpt>
            <trkpt lon="101.118134" lat="13.217315">
                <ele>116.940000</ele>
                <time>2014-08-30T08:24:24Z</time>
            </trkpt>
            <trkpt lon="101.118209" lat="13.217574">
                <ele>116.460000</ele>
                <time>2014-08-30T08:24:30Z</time>
            </trkpt>
            <trkpt lon="101.118225" lat="13.217617">
                <ele>117.420000</ele>
                <time>2014-08-30T08:24:31Z</time>
            </trkpt>
            <trkpt lon="101.118248" lat="13.217659">
                <ele>116.940000</ele>
                <time>2014-08-30T08:24:32Z</time>
            </trkpt>
            <trkpt lon="101.118278" lat="13.217697">
                <ele>117.420000</ele>
                <time>2014-08-30T08:24:33Z</time>
            </trkpt>
            <trkpt lon="101.118310" lat="13.217732">
                <ele>116.940000</ele>
                <time>2014-08-30T08:24:34Z</time>
            </trkpt>
            <trkpt lon="101.118344" lat="13.217766">
                <ele>115.980000</ele>
                <time>2014-08-30T08:24:35Z</time>
            </trkpt>
            <trkpt lon="101.118449" lat="13.217868">
                <ele>117.420000</ele>
                <time>2014-08-30T08:24:38Z</time>
            </trkpt>
            <trkpt lon="101.118479" lat="13.217906">
                <ele>116.460000</ele>
                <time>2014-08-30T08:24:39Z</time>
            </trkpt>
            <trkpt lon="101.118506" lat="13.217947">
                <ele>116.460000</ele>
                <time>2014-08-30T08:24:40Z</time>
            </trkpt>
            <trkpt lon="101.118527" lat="13.217989">
                <ele>116.460000</ele>
                <time>2014-08-30T08:24:41Z</time>
            </trkpt>
            <trkpt lon="101.118546" lat="13.218034">
                <ele>116.940000</ele>
                <time>2014-08-30T08:24:42Z</time>
            </trkpt>
            <trkpt lon="101.118690" lat="13.218781">
                <ele>115.010000</ele>
                <time>2014-08-30T08:24:56Z</time>
            </trkpt>
            <trkpt lon="101.118854" lat="13.219661">
                <ele>115.010000</ele>
                <time>2014-08-30T08:25:10Z</time>
            </trkpt>
            <trkpt lon="101.118850" lat="13.219720">
                <ele>114.530000</ele>
                <time>2014-08-30T08:25:11Z</time>
            </trkpt>
            <trkpt lon="101.118825" lat="13.220105">
                <ele>112.610000</ele>
                <time>2014-08-30T08:25:20Z</time>
            </trkpt>
            <trkpt lon="101.118861" lat="13.220526">
                <ele>113.090000</ele>
                <time>2014-08-30T08:25:29Z</time>
            </trkpt>
            <trkpt lon="101.118853" lat="13.220576">
                <ele>112.130000</ele>
                <time>2014-08-30T08:25:30Z</time>
            </trkpt>
            <trkpt lon="101.118836" lat="13.220625">
                <ele>112.130000</ele>
                <time>2014-08-30T08:25:31Z</time>
            </trkpt>
            <trkpt lon="101.118705" lat="13.220859">
                <ele>112.610000</ele>
                <time>2014-08-30T08:25:36Z</time>
            </trkpt>
            <trkpt lon="101.118549" lat="13.221006">
                <ele>112.130000</ele>
                <time>2014-08-30T08:25:40Z</time>
            </trkpt>
            <trkpt lon="101.118503" lat="13.221035">
                <ele>112.130000</ele>
                <time>2014-08-30T08:25:41Z</time>
            </trkpt>
            <trkpt lon="101.118454" lat="13.221059">
                <ele>112.610000</ele>
                <time>2014-08-30T08:25:42Z</time>
            </trkpt>
            <trkpt lon="101.118404" lat="13.221076">
                <ele>112.130000</ele>
                <time>2014-08-30T08:25:43Z</time>
            </trkpt>
            <trkpt lon="101.118353" lat="13.221088">
                <ele>112.130000</ele>
                <time>2014-08-30T08:25:44Z</time>
            </trkpt>
            <trkpt lon="101.117632" lat="13.221317">
                <ele>112.130000</ele>
                <time>2014-08-30T08:25:58Z</time>
            </trkpt>
            <trkpt lon="101.117274" lat="13.221431">
                <ele>112.130000</ele>
                <time>2014-08-30T08:26:05Z</time>
            </trkpt>
            <trkpt lon="101.117229" lat="13.221457">
                <ele>112.610000</ele>
                <time>2014-08-30T08:26:06Z</time>
            </trkpt>
            <trkpt lon="101.117188" lat="13.221489">
                <ele>112.130000</ele>
                <time>2014-08-30T08:26:07Z</time>
            </trkpt>
            <trkpt lon="101.117151" lat="13.221524">
                <ele>111.170000</ele>
                <time>2014-08-30T08:26:08Z</time>
            </trkpt>
            <trkpt lon="101.117118" lat="13.221561">
                <ele>111.650000</ele>
                <time>2014-08-30T08:26:09Z</time>
            </trkpt>
            <trkpt lon="101.117057" lat="13.221636">
                <ele>111.650000</ele>
                <time>2014-08-30T08:26:11Z</time>
            </trkpt>
            <trkpt lon="101.117034" lat="13.221678">
                <ele>111.170000</ele>
                <time>2014-08-30T08:26:12Z</time>
            </trkpt>
            <trkpt lon="101.117017" lat="13.221725">
                <ele>111.170000</ele>
                <time>2014-08-30T08:26:13Z</time>
            </trkpt>
            <trkpt lon="101.116851" lat="13.222346">
                <ele>110.690000</ele>
                <time>2014-08-30T08:26:25Z</time>
            </trkpt>
            <trkpt lon="101.116823" lat="13.222396">
                <ele>110.690000</ele>
                <time>2014-08-30T08:26:26Z</time>
            </trkpt>
            <trkpt lon="101.116792" lat="13.222443">
                <ele>110.690000</ele>
                <time>2014-08-30T08:26:27Z</time>
            </trkpt>
            <trkpt lon="101.116707" lat="13.222590">
                <ele>109.730000</ele>
                <time>2014-08-30T08:26:30Z</time>
            </trkpt>
            <trkpt lon="101.116686" lat="13.222644">
                <ele>110.210000</ele>
                <time>2014-08-30T08:26:31Z</time>
            </trkpt>
            <trkpt lon="101.116672" lat="13.222701">
                <ele>109.730000</ele>
                <time>2014-08-30T08:26:32Z</time>
            </trkpt>
            <trkpt lon="101.116669" lat="13.222761">
                <ele>109.250000</ele>
                <time>2014-08-30T08:26:33Z</time>
            </trkpt>
            <trkpt lon="101.116684" lat="13.222821">
                <ele>109.730000</ele>
                <time>2014-08-30T08:26:34Z</time>
            </trkpt>
            <trkpt lon="101.116711" lat="13.222876">
                <ele>109.730000</ele>
                <time>2014-08-30T08:26:35Z</time>
            </trkpt>
            <trkpt lon="101.116743" lat="13.222927">
                <ele>109.730000</ele>
                <time>2014-08-30T08:26:36Z</time>
            </trkpt>
            <trkpt lon="101.116918" lat="13.223307">
                <ele>109.250000</ele>
                <time>2014-08-30T08:26:43Z</time>
            </trkpt>
            <trkpt lon="101.116929" lat="13.223366">
                <ele>109.250000</ele>
                <time>2014-08-30T08:26:44Z</time>
            </trkpt>
            <trkpt lon="101.116933" lat="13.223426">
                <ele>108.770000</ele>
                <time>2014-08-30T08:26:45Z</time>
            </trkpt>
            <trkpt lon="101.116903" lat="13.224387">
                <ele>107.320000</ele>
                <time>2014-08-30T08:27:01Z</time>
            </trkpt>
            <trkpt lon="101.116952" lat="13.224968">
                <ele>107.320000</ele>
                <time>2014-08-30T08:27:11Z</time>
            </trkpt>
            <trkpt lon="101.116935" lat="13.225021">
                <ele>107.810000</ele>
                <time>2014-08-30T08:27:12Z</time>
            </trkpt>
            <trkpt lon="101.116907" lat="13.225066">
                <ele>107.320000</ele>
                <time>2014-08-30T08:27:13Z</time>
            </trkpt>
            <trkpt lon="101.116868" lat="13.225102">
                <ele>107.320000</ele>
                <time>2014-08-30T08:27:14Z</time>
            </trkpt>
            <trkpt lon="101.116823" lat="13.225129">
                <ele>107.810000</ele>
                <time>2014-08-30T08:27:15Z</time>
            </trkpt>
            <trkpt lon="101.116772" lat="13.225152">
                <ele>106.840000</ele>
                <time>2014-08-30T08:27:16Z</time>
            </trkpt>
            <trkpt lon="101.116723" lat="13.225174">
                <ele>107.320000</ele>
                <time>2014-08-30T08:27:17Z</time>
            </trkpt>
            <trkpt lon="101.116675" lat="13.225196">
                <ele>107.320000</ele>
                <time>2014-08-30T08:27:18Z</time>
            </trkpt>
            <trkpt lon="101.116392" lat="13.225346">
                <ele>107.320000</ele>
                <time>2014-08-30T08:27:24Z</time>
            </trkpt>
            <trkpt lon="101.116351" lat="13.225381">
                <ele>106.840000</ele>
                <time>2014-08-30T08:27:25Z</time>
            </trkpt>
            <trkpt lon="101.116321" lat="13.225424">
                <ele>107.320000</ele>
                <time>2014-08-30T08:27:26Z</time>
            </trkpt>
            <trkpt lon="101.116299" lat="13.225473">
                <ele>106.840000</ele>
                <time>2014-08-30T08:27:27Z</time>
            </trkpt>
            <trkpt lon="101.116284" lat="13.225524">
                <ele>107.320000</ele>
                <time>2014-08-30T08:27:28Z</time>
            </trkpt>
            <trkpt lon="101.116270" lat="13.225576">
                <ele>107.320000</ele>
                <time>2014-08-30T08:27:29Z</time>
            </trkpt>
            <trkpt lon="101.116214" lat="13.226242">
                <ele>106.840000</ele>
                <time>2014-08-30T08:27:41Z</time>
            </trkpt>
            <trkpt lon="101.116234" lat="13.226296">
                <ele>107.320000</ele>
                <time>2014-08-30T08:27:42Z</time>
            </trkpt>
            <trkpt lon="101.116261" lat="13.226349">
                <ele>106.840000</ele>
                <time>2014-08-30T08:27:43Z</time>
            </trkpt>
            <trkpt lon="101.116294" lat="13.226400">
                <ele>106.840000</ele>
                <time>2014-08-30T08:27:44Z</time>
            </trkpt>
            <trkpt lon="101.116330" lat="13.226448">
                <ele>106.840000</ele>
                <time>2014-08-30T08:27:45Z</time>
            </trkpt>
            <trkpt lon="101.116485" lat="13.226704">
                <ele>106.360000</ele>
                <time>2014-08-30T08:27:50Z</time>
            </trkpt>
            <trkpt lon="101.116502" lat="13.226761">
                <ele>105.880000</ele>
                <time>2014-08-30T08:27:51Z</time>
            </trkpt>
            <trkpt lon="101.116514" lat="13.226821">
                <ele>106.840000</ele>
                <time>2014-08-30T08:27:52Z</time>
            </trkpt>
            <trkpt lon="101.116523" lat="13.226881">
                <ele>105.880000</ele>
                <time>2014-08-30T08:27:53Z</time>
            </trkpt>
            <trkpt lon="101.116531" lat="13.226942">
                <ele>105.400000</ele>
                <time>2014-08-30T08:27:54Z</time>
            </trkpt>
            <trkpt lon="101.116806" lat="13.227718">
                <ele>104.920000</ele>
                <time>2014-08-30T08:28:07Z</time>
            </trkpt>
            <trkpt lon="101.116871" lat="13.227920">
                <ele>104.920000</ele>
                <time>2014-08-30T08:28:10Z</time>
            </trkpt>
            <trkpt lon="101.116873" lat="13.227993">
                <ele>104.440000</ele>
                <time>2014-08-30T08:28:11Z</time>
            </trkpt>
            <trkpt lon="101.116863" lat="13.228063">
                <ele>103.960000</ele>
                <time>2014-08-30T08:28:12Z</time>
            </trkpt>
            <trkpt lon="101.116844" lat="13.228132">
                <ele>103.960000</ele>
                <time>2014-08-30T08:28:13Z</time>
            </trkpt>
            <trkpt lon="101.116821" lat="13.228200">
                <ele>103.960000</ele>
                <time>2014-08-30T08:28:14Z</time>
            </trkpt>
            <trkpt lon="101.116803" lat="13.228269">
                <ele>103.480000</ele>
                <time>2014-08-30T08:28:15Z</time>
            </trkpt>
            <trkpt lon="101.116800" lat="13.228339">
                <ele>103.000000</ele>
                <time>2014-08-30T08:28:16Z</time>
            </trkpt>
            <trkpt lon="101.116813" lat="13.228408">
                <ele>103.480000</ele>
                <time>2014-08-30T08:28:17Z</time>
            </trkpt>
            <trkpt lon="101.116844" lat="13.228470">
                <ele>102.520000</ele>
                <time>2014-08-30T08:28:18Z</time>
            </trkpt>
            <trkpt lon="101.116888" lat="13.228525">
                <ele>102.520000</ele>
                <time>2014-08-30T08:28:19Z</time>
            </trkpt>
            <trkpt lon="101.116940" lat="13.228573">
                <ele>102.520000</ele>
                <time>2014-08-30T08:28:20Z</time>
            </trkpt>
            <trkpt lon="101.116995" lat="13.228621">
                <ele>102.520000</ele>
                <time>2014-08-30T08:28:21Z</time>
            </trkpt>
            <trkpt lon="101.117091" lat="13.228729">
                <ele>101.560000</ele>
                <time>2014-08-30T08:28:23Z</time>
            </trkpt>
            <trkpt lon="101.117127" lat="13.228794">
                <ele>102.040000</ele>
                <time>2014-08-30T08:28:24Z</time>
            </trkpt>
            <trkpt lon="101.117150" lat="13.228865">
                <ele>101.560000</ele>
                <time>2014-08-30T08:28:25Z</time>
            </trkpt>
            <trkpt lon="101.117158" lat="13.228936">
                <ele>101.560000</ele>
                <time>2014-08-30T08:28:26Z</time>
            </trkpt>
            <trkpt lon="101.117151" lat="13.229006">
                <ele>101.080000</ele>
                <time>2014-08-30T08:28:27Z</time>
            </trkpt>
            <trkpt lon="101.117133" lat="13.229075">
                <ele>100.600000</ele>
                <time>2014-08-30T08:28:28Z</time>
            </trkpt>
            <trkpt lon="101.117111" lat="13.229143">
                <ele>101.080000</ele>
                <time>2014-08-30T08:28:29Z</time>
            </trkpt>
            <trkpt lon="101.117013" lat="13.229400">
                <ele>101.560000</ele>
                <time>2014-08-30T08:28:33Z</time>
            </trkpt>
            <trkpt lon="101.116980" lat="13.229458">
                <ele>101.560000</ele>
                <time>2014-08-30T08:28:34Z</time>
            </trkpt>
            <trkpt lon="101.116372" lat="13.230256">
                <ele>100.600000</ele>
                <time>2014-08-30T08:28:50Z</time>
            </trkpt>
            <trkpt lon="101.116010" lat="13.231030">
                <ele>101.080000</ele>
                <time>2014-08-30T08:29:06Z</time>
            </trkpt>
            <trkpt lon="101.116008" lat="13.231074">
                <ele>100.600000</ele>
                <time>2014-08-30T08:29:07Z</time>
            </trkpt>
            <trkpt lon="101.116009" lat="13.231115">
                <ele>101.080000</ele>
                <time>2014-08-30T08:29:08Z</time>
            </trkpt>
            <trkpt lon="101.116017" lat="13.231689">
                <ele>101.080000</ele>
                <time>2014-08-30T08:29:22Z</time>
            </trkpt>
            <trkpt lon="101.116001" lat="13.232372">
                <ele>100.600000</ele>
                <time>2014-08-30T08:29:37Z</time>
            </trkpt>
            <trkpt lon="101.115983" lat="13.232410">
                <ele>101.560000</ele>
                <time>2014-08-30T08:29:38Z</time>
            </trkpt>
            <trkpt lon="101.115904" lat="13.232579">
                <ele>101.080000</ele>
                <time>2014-08-30T08:29:43Z</time>
            </trkpt>
            <trkpt lon="101.116030" lat="13.232683">
                <ele>100.600000</ele>
                <time>2014-08-30T08:29:47Z</time>
            </trkpt>
            <trkpt lon="101.116144" lat="13.232795">
                <ele>100.110000</ele>
                <time>2014-08-30T08:29:57Z</time>
            </trkpt>
            <trkpt lon="101.116143" lat="13.232813">
                <ele>100.110000</ele>
                <time>2014-08-30T08:30:11Z</time>
            </trkpt>
            <trkpt lon="101.116209" lat="13.232837">
                <ele>100.600000</ele>
                <time>2014-08-30T08:30:24Z</time>
            </trkpt>
            <trkpt lon="101.116254" lat="13.232870">
                <ele>100.110000</ele>
                <time>2014-08-30T08:30:39Z</time>
            </trkpt>
            <trkpt lon="101.116296" lat="13.232888">
                <ele>99.150000</ele>
                <time>2014-08-30T08:30:56Z</time>
            </trkpt>
            <trkpt lon="101.116303" lat="13.232905">
                <ele>99.150000</ele>
                <time>2014-08-30T08:31:16Z</time>
            </trkpt>
            <trkpt lon="101.116289" lat="13.232908">
                <ele>99.150000</ele>
                <time>2014-08-30T08:31:36Z</time>
            </trkpt>
            <trkpt lon="101.116265" lat="13.232890">
                <ele>100.110000</ele>
                <time>2014-08-30T08:31:50Z</time>
            </trkpt>
            <trkpt lon="101.116289" lat="13.232893">
                <ele>98.670000</ele>
                <time>2014-08-30T08:32:13Z</time>
            </trkpt>
            <trkpt lon="101.116297" lat="13.232898">
                <ele>99.150000</ele>
                <time>2014-08-30T08:32:34Z</time>
            </trkpt>
            <trkpt lon="101.116277" lat="13.232891">
                <ele>98.670000</ele>
                <time>2014-08-30T08:33:02Z</time>
            </trkpt>
            <trkpt lon="101.116275" lat="13.232904">
                <ele>98.670000</ele>
                <time>2014-08-30T08:33:31Z</time>
            </trkpt>
            <trkpt lon="101.116290" lat="13.232904">
                <ele>98.670000</ele>
                <time>2014-08-30T08:33:57Z</time>
            </trkpt>
            <trkpt lon="101.116281" lat="13.232894">
                <ele>98.670000</ele>
                <time>2014-08-30T08:34:26Z</time>
            </trkpt>
            <trkpt lon="101.116267" lat="13.232876">
                <ele>98.670000</ele>
                <time>2014-08-30T08:34:56Z</time>
            </trkpt>
            <trkpt lon="101.116268" lat="13.232900">
                <ele>98.190000</ele>
                <time>2014-08-30T08:35:25Z</time>
            </trkpt>
            <trkpt lon="101.116248" lat="13.232909">
                <ele>98.190000</ele>
                <time>2014-08-30T08:35:52Z</time>
            </trkpt>
            <trkpt lon="101.116251" lat="13.232881">
                <ele>97.710000</ele>
                <time>2014-08-30T08:36:23Z</time>
            </trkpt>
            <trkpt lon="101.116290" lat="13.232895">
                <ele>98.190000</ele>
                <time>2014-08-30T08:36:52Z</time>
            </trkpt>
            <trkpt lon="101.116280" lat="13.232893">
                <ele>97.710000</ele>
                <time>2014-08-30T08:37:19Z</time>
            </trkpt>
            <trkpt lon="101.116273" lat="13.232899">
                <ele>98.190000</ele>
                <time>2014-08-30T08:37:46Z</time>
            </trkpt>
            <trkpt lon="101.116250" lat="13.232915">
                <ele>96.750000</ele>
                <time>2014-08-30T08:38:18Z</time>
            </trkpt>
            <trkpt lon="101.116251" lat="13.232908">
                <ele>97.230000</ele>
                <time>2014-08-30T08:38:24Z</time>
            </trkpt>
            <trkpt lon="101.116270" lat="13.232908">
                <ele>97.230000</ele>
                <time>2014-08-30T08:38:54Z</time>
            </trkpt>
            <trkpt lon="101.116246" lat="13.232895">
                <ele>96.750000</ele>
                <time>2014-08-30T08:39:20Z</time>
            </trkpt>
            <trkpt lon="101.116273" lat="13.232873">
                <ele>97.230000</ele>
                <time>2014-08-30T08:39:48Z</time>
            </trkpt>
            <trkpt lon="101.116304" lat="13.232901">
                <ele>96.750000</ele>
                <time>2014-08-30T08:40:19Z</time>
            </trkpt>
            <trkpt lon="101.116245" lat="13.232903">
                <ele>96.750000</ele>
                <time>2014-08-30T08:40:59Z</time>
            </trkpt>
            <trkpt lon="101.116265" lat="13.232909">
                <ele>97.230000</ele>
                <time>2014-08-30T08:41:30Z</time>
            </trkpt>
            <trkpt lon="101.116255" lat="13.232917">
                <ele>96.750000</ele>
                <time>2014-08-30T08:41:56Z</time>
            </trkpt>
            <trkpt lon="101.116260" lat="13.232902">
                <ele>96.750000</ele>
                <time>2014-08-30T08:42:17Z</time>
            </trkpt>
            <trkpt lon="101.116270" lat="13.232899">
                <ele>96.750000</ele>
                <time>2014-08-30T08:42:37Z</time>
            </trkpt>
            <trkpt lon="101.116260" lat="13.232895">
                <ele>96.750000</ele>
                <time>2014-08-30T08:43:05Z</time>
            </trkpt>
            <trkpt lon="101.116259" lat="13.232863">
                <ele>97.230000</ele>
                <time>2014-08-30T08:43:25Z</time>
            </trkpt>
            <trkpt lon="101.116162" lat="13.232827">
                <ele>96.750000</ele>
                <time>2014-08-30T08:43:39Z</time>
            </trkpt>
            <trkpt lon="101.116148" lat="13.232804">
                <ele>96.270000</ele>
                <time>2014-08-30T08:43:54Z</time>
            </trkpt>
            <trkpt lon="101.116144" lat="13.232816">
                <ele>97.230000</ele>
                <time>2014-08-30T08:44:07Z</time>
            </trkpt>
            <trkpt lon="101.116154" lat="13.232807">
                <ele>96.750000</ele>
                <time>2014-08-30T08:44:25Z</time>
            </trkpt>
            <trkpt lon="101.116082" lat="13.232737">
                <ele>97.710000</ele>
                <time>2014-08-30T08:44:31Z</time>
            </trkpt>
            <trkpt lon="101.115861" lat="13.232560">
                <ele>98.670000</ele>
                <time>2014-08-30T08:44:46Z</time>
            </trkpt>
            <trkpt lon="101.115527" lat="13.232308">
                <ele>98.190000</ele>
                <time>2014-08-30T08:45:03Z</time>
            </trkpt>
            <trkpt lon="101.114996" lat="13.231922">
                <ele>98.670000</ele>
                <time>2014-08-30T08:45:22Z</time>
            </trkpt>
            <trkpt lon="101.114356" lat="13.231483">
                <ele>99.150000</ele>
                <time>2014-08-30T08:45:42Z</time>
            </trkpt>
            <trkpt lon="101.113843" lat="13.231144">
                <ele>99.150000</ele>
                <time>2014-08-30T08:45:56Z</time>
            </trkpt>
            <trkpt lon="101.113803" lat="13.231128">
                <ele>99.150000</ele>
                <time>2014-08-30T08:45:57Z</time>
            </trkpt>
            <trkpt lon="101.113759" lat="13.231120">
                <ele>99.630000</ele>
                <time>2014-08-30T08:45:58Z</time>
            </trkpt>
            <trkpt lon="101.113714" lat="13.231122">
                <ele>100.110000</ele>
                <time>2014-08-30T08:45:59Z</time>
            </trkpt>
            <trkpt lon="101.113669" lat="13.231131">
                <ele>100.110000</ele>
                <time>2014-08-30T08:46:00Z</time>
            </trkpt>
            <trkpt lon="101.113625" lat="13.231142">
                <ele>99.630000</ele>
                <time>2014-08-30T08:46:01Z</time>
            </trkpt>
            <trkpt lon="101.112796" lat="13.231406">
                <ele>99.630000</ele>
                <time>2014-08-30T08:46:20Z</time>
            </trkpt>
            <trkpt lon="101.111885" lat="13.231704">
                <ele>100.110000</ele>
                <time>2014-08-30T08:46:44Z</time>
            </trkpt>
            <trkpt lon="101.111091" lat="13.231999">
                <ele>102.040000</ele>
                <time>2014-08-30T08:47:05Z</time>
            </trkpt>
            <trkpt lon="101.110269" lat="13.232361">
                <ele>103.480000</ele>
                <time>2014-08-30T08:47:29Z</time>
            </trkpt>
            <trkpt lon="101.109645" lat="13.232709">
                <ele>104.440000</ele>
                <time>2014-08-30T08:47:50Z</time>
            </trkpt>
            <trkpt lon="101.109122" lat="13.232781">
                <ele>105.400000</ele>
                <time>2014-08-30T08:48:04Z</time>
            </trkpt>
            <trkpt lon="101.108275" lat="13.232972">
                <ele>106.360000</ele>
                <time>2014-08-30T08:48:26Z</time>
            </trkpt>
            <trkpt lon="101.107563" lat="13.233009">
                <ele>107.810000</ele>
                <time>2014-08-30T08:48:46Z</time>
            </trkpt>
            <trkpt lon="101.107457" lat="13.233014">
                <ele>107.320000</ele>
                <time>2014-08-30T08:48:56Z</time>
            </trkpt>
            <trkpt lon="101.107446" lat="13.233011">
                <ele>107.320000</ele>
                <time>2014-08-30T08:49:17Z</time>
            </trkpt>
            <trkpt lon="101.107464" lat="13.233014">
                <ele>108.290000</ele>
                <time>2014-08-30T08:49:46Z</time>
            </trkpt>
            <trkpt lon="101.107448" lat="13.233008">
                <ele>107.810000</ele>
                <time>2014-08-30T08:49:56Z</time>
            </trkpt>
            <trkpt lon="101.107443" lat="13.233014">
                <ele>108.290000</ele>
                <time>2014-08-30T08:49:58Z</time>
            </trkpt>
            <trkpt lon="101.107433" lat="13.233016">
                <ele>108.290000</ele>
                <time>2014-08-30T08:49:59Z</time>
            </trkpt>
            <trkpt lon="101.107417" lat="13.233017">
                <ele>107.810000</ele>
                <time>2014-08-30T08:50:00Z</time>
            </trkpt>
            <trkpt lon="101.107398" lat="13.233019">
                <ele>108.290000</ele>
                <time>2014-08-30T08:50:01Z</time>
            </trkpt>
            <trkpt lon="101.107376" lat="13.233022">
                <ele>108.770000</ele>
                <time>2014-08-30T08:50:02Z</time>
            </trkpt>
            <trkpt lon="101.107352" lat="13.233027">
                <ele>108.770000</ele>
                <time>2014-08-30T08:50:03Z</time>
            </trkpt>
            <trkpt lon="101.106793" lat="13.233039">
                <ele>109.250000</ele>
                <time>2014-08-30T08:50:19Z</time>
            </trkpt>
            <trkpt lon="101.105994" lat="13.232949">
                <ele>110.210000</ele>
                <time>2014-08-30T08:50:39Z</time>
            </trkpt>
            <trkpt lon="101.105484" lat="13.232901">
                <ele>111.170000</ele>
                <time>2014-08-30T08:50:52Z</time>
            </trkpt>
            <trkpt lon="101.105443" lat="13.232894">
                <ele>111.170000</ele>
                <time>2014-08-30T08:50:53Z</time>
            </trkpt>
            <trkpt lon="101.105159" lat="13.232838">
                <ele>111.650000</ele>
                <time>2014-08-30T08:51:00Z</time>
            </trkpt>
            <trkpt lon="101.105128" lat="13.232815">
                <ele>112.130000</ele>
                <time>2014-08-30T08:51:01Z</time>
            </trkpt>
            <trkpt lon="101.105099" lat="13.232786">
                <ele>112.130000</ele>
                <time>2014-08-30T08:51:02Z</time>
            </trkpt>
            <trkpt lon="101.105073" lat="13.232752">
                <ele>112.610000</ele>
                <time>2014-08-30T08:51:03Z</time>
            </trkpt>
            <trkpt lon="101.105054" lat="13.232712">
                <ele>112.130000</ele>
                <time>2014-08-30T08:51:04Z</time>
            </trkpt>
            <trkpt lon="101.105040" lat="13.232669">
                <ele>112.130000</ele>
                <time>2014-08-30T08:51:05Z</time>
            </trkpt>
            <trkpt lon="101.105030" lat="13.232624">
                <ele>112.130000</ele>
                <time>2014-08-30T08:51:06Z</time>
            </trkpt>
            <trkpt lon="101.105025" lat="13.232576">
                <ele>112.130000</ele>
                <time>2014-08-30T08:51:07Z</time>
            </trkpt>
            <trkpt lon="101.104988" lat="13.232157">
                <ele>111.170000</ele>
                <time>2014-08-30T08:51:16Z</time>
            </trkpt>
            <trkpt lon="101.104976" lat="13.232115">
                <ele>111.170000</ele>
                <time>2014-08-30T08:51:17Z</time>
            </trkpt>
            <trkpt lon="101.104960" lat="13.232075">
                <ele>111.650000</ele>
                <time>2014-08-30T08:51:18Z</time>
            </trkpt>
            <trkpt lon="101.104939" lat="13.232038">
                <ele>111.650000</ele>
                <time>2014-08-30T08:51:19Z</time>
            </trkpt>
            <trkpt lon="101.104910" lat="13.232009">
                <ele>111.650000</ele>
                <time>2014-08-30T08:51:20Z</time>
            </trkpt>
            <trkpt lon="101.104875" lat="13.231989">
                <ele>111.650000</ele>
                <time>2014-08-30T08:51:21Z</time>
            </trkpt>
            <trkpt lon="101.104838" lat="13.231980">
                <ele>111.170000</ele>
                <time>2014-08-30T08:51:22Z</time>
            </trkpt>
            <trkpt lon="101.104798" lat="13.231976">
                <ele>111.170000</ele>
                <time>2014-08-30T08:51:23Z</time>
            </trkpt>
            <trkpt lon="101.104755" lat="13.231973">
                <ele>111.170000</ele>
                <time>2014-08-30T08:51:24Z</time>
            </trkpt>
            <trkpt lon="101.104096" lat="13.232010">
                <ele>112.130000</ele>
                <time>2014-08-30T08:51:40Z</time>
            </trkpt>
            <trkpt lon="101.104055" lat="13.232022">
                <ele>112.610000</ele>
                <time>2014-08-30T08:51:41Z</time>
            </trkpt>
            <trkpt lon="101.104016" lat="13.232037">
                <ele>113.090000</ele>
                <time>2014-08-30T08:51:42Z</time>
            </trkpt>
            <trkpt lon="101.103418" lat="13.232089">
                <ele>114.050000</ele>
                <time>2014-08-30T08:51:58Z</time>
            </trkpt>
            <trkpt lon="101.103056" lat="13.231948">
                <ele>114.530000</ele>
                <time>2014-08-30T08:52:10Z</time>
            </trkpt>
            <trkpt lon="101.102482" lat="13.231722">
                <ele>115.010000</ele>
                <time>2014-08-30T08:52:28Z</time>
            </trkpt>
            <trkpt lon="101.102098" lat="13.231601">
                <ele>115.980000</ele>
                <time>2014-08-30T08:52:40Z</time>
            </trkpt>
            <trkpt lon="101.101550" lat="13.231310">
                <ele>116.460000</ele>
                <time>2014-08-30T08:52:57Z</time>
            </trkpt>
            <trkpt lon="101.101156" lat="13.231173">
                <ele>117.900000</ele>
                <time>2014-08-30T08:53:10Z</time>
            </trkpt>
            <trkpt lon="101.100463" lat="13.231083">
                <ele>118.860000</ele>
                <time>2014-08-30T08:53:31Z</time>
            </trkpt>
            <trkpt lon="101.100365" lat="13.231058">
                <ele>118.860000</ele>
                <time>2014-08-30T08:53:36Z</time>
            </trkpt>
            <trkpt lon="101.100353" lat="13.231048">
                <ele>118.860000</ele>
                <time>2014-08-30T08:53:37Z</time>
            </trkpt>
            <trkpt lon="101.100345" lat="13.231036">
                <ele>119.340000</ele>
                <time>2014-08-30T08:53:38Z</time>
            </trkpt>
            <trkpt lon="101.100335" lat="13.231020">
                <ele>119.820000</ele>
                <time>2014-08-30T08:53:39Z</time>
            </trkpt>
            <trkpt lon="101.100321" lat="13.231006">
                <ele>119.820000</ele>
                <time>2014-08-30T08:53:40Z</time>
            </trkpt>
            <trkpt lon="101.100302" lat="13.230991">
                <ele>119.340000</ele>
                <time>2014-08-30T08:53:41Z</time>
            </trkpt>
            <trkpt lon="101.100282" lat="13.230979">
                <ele>119.820000</ele>
                <time>2014-08-30T08:53:42Z</time>
            </trkpt>
            <trkpt lon="101.099945" lat="13.230794">
                <ele>120.300000</ele>
                <time>2014-08-30T08:53:56Z</time>
            </trkpt>
            <trkpt lon="101.099390" lat="13.230624">
                <ele>121.740000</ele>
                <time>2014-08-30T08:54:16Z</time>
            </trkpt>
            <trkpt lon="101.098972" lat="13.230449">
                <ele>123.670000</ele>
                <time>2014-08-30T08:54:32Z</time>
            </trkpt>
            <trkpt lon="101.098798" lat="13.230059">
                <ele>124.630000</ele>
                <time>2014-08-30T08:54:48Z</time>
            </trkpt>
            <trkpt lon="101.098579" lat="13.229446">
                <ele>125.110000</ele>
                <time>2014-08-30T08:55:10Z</time>
            </trkpt>
            <trkpt lon="101.098326" lat="13.229032">
                <ele>126.070000</ele>
                <time>2014-08-30T08:55:26Z</time>
            </trkpt>
            <trkpt lon="101.097981" lat="13.228662">
                <ele>127.030000</ele>
                <time>2014-08-30T08:55:42Z</time>
            </trkpt>
            <trkpt lon="101.097836" lat="13.228403">
                <ele>126.550000</ele>
                <time>2014-08-30T08:55:50Z</time>
            </trkpt>
            <trkpt lon="101.097723" lat="13.228181">
                <ele>127.030000</ele>
                <time>2014-08-30T08:55:56Z</time>
            </trkpt>
            <trkpt lon="101.097308" lat="13.227939">
                <ele>127.030000</ele>
                <time>2014-08-30T08:56:09Z</time>
            </trkpt>
            <trkpt lon="101.096813" lat="13.227767">
                <ele>128.470000</ele>
                <time>2014-08-30T08:56:26Z</time>
            </trkpt>
            <trkpt lon="101.096578" lat="13.227881">
                <ele>129.430000</ele>
                <time>2014-08-30T08:56:38Z</time>
            </trkpt>
            <trkpt lon="101.096480" lat="13.227935">
                <ele>130.880000</ele>
                <time>2014-08-30T08:56:44Z</time>
            </trkpt>
            <trkpt lon="101.096217" lat="13.227977">
                <ele>131.360000</ele>
                <time>2014-08-30T08:56:58Z</time>
            </trkpt>
            <trkpt lon="101.095950" lat="13.227881">
                <ele>134.240000</ele>
                <time>2014-08-30T08:57:12Z</time>
            </trkpt>
            <trkpt lon="101.095780" lat="13.227547">
                <ele>133.760000</ele>
                <time>2014-08-30T08:57:26Z</time>
            </trkpt>
            <trkpt lon="101.095748" lat="13.227461">
                <ele>133.280000</ele>
                <time>2014-08-30T08:57:28Z</time>
            </trkpt>
            <trkpt lon="101.095600" lat="13.227302">
                <ele>132.800000</ele>
                <time>2014-08-30T08:57:33Z</time>
            </trkpt>
            <trkpt lon="101.095154" lat="13.227043">
                <ele>134.240000</ele>
                <time>2014-08-30T08:57:49Z</time>
            </trkpt>
            <trkpt lon="101.095012" lat="13.226982">
                <ele>133.280000</ele>
                <time>2014-08-30T08:57:54Z</time>
            </trkpt>
            <trkpt lon="101.094683" lat="13.226660">
                <ele>133.760000</ele>
                <time>2014-08-30T08:58:05Z</time>
            </trkpt>
            <trkpt lon="101.094606" lat="13.226507">
                <ele>135.680000</ele>
                <time>2014-08-30T08:58:12Z</time>
            </trkpt>
            <trkpt lon="101.094676" lat="13.226084">
                <ele>136.160000</ele>
                <time>2014-08-30T08:58:26Z</time>
            </trkpt>
            <trkpt lon="101.094655" lat="13.225923">
                <ele>135.200000</ele>
                <time>2014-08-30T08:58:31Z</time>
            </trkpt>
            <trkpt lon="101.094634" lat="13.225750">
                <ele>133.760000</ele>
                <time>2014-08-30T08:58:34Z</time>
            </trkpt>
            <trkpt lon="101.094363" lat="13.225227">
                <ele>133.760000</ele>
                <time>2014-08-30T08:58:47Z</time>
            </trkpt>
            <trkpt lon="101.094320" lat="13.225165">
                <ele>134.240000</ele>
                <time>2014-08-30T08:58:49Z</time>
            </trkpt>
            <trkpt lon="101.094262" lat="13.225101">
                <ele>133.760000</ele>
                <time>2014-08-30T08:58:51Z</time>
            </trkpt>
            <trkpt lon="101.094055" lat="13.225029">
                <ele>132.800000</ele>
                <time>2014-08-30T08:58:56Z</time>
            </trkpt>
            <trkpt lon="101.093676" lat="13.225105">
                <ele>134.720000</ele>
                <time>2014-08-30T08:59:10Z</time>
            </trkpt>
            <trkpt lon="101.093340" lat="13.225268">
                <ele>135.680000</ele>
                <time>2014-08-30T08:59:28Z</time>
            </trkpt>
            <trkpt lon="101.093147" lat="13.225450">
                <ele>137.130000</ele>
                <time>2014-08-30T08:59:43Z</time>
            </trkpt>
            <trkpt lon="101.092880" lat="13.225737">
                <ele>138.090000</ele>
                <time>2014-08-30T08:59:59Z</time>
            </trkpt>
            <trkpt lon="101.092673" lat="13.225959">
                <ele>137.130000</ele>
                <time>2014-08-30T09:00:07Z</time>
            </trkpt>
            <trkpt lon="101.092530" lat="13.225787">
                <ele>136.160000</ele>
                <time>2014-08-30T09:00:14Z</time>
            </trkpt>
            <trkpt lon="101.092456" lat="13.225552">
                <ele>134.720000</ele>
                <time>2014-08-30T09:00:20Z</time>
            </trkpt>
            <trkpt lon="101.092309" lat="13.225441">
                <ele>133.760000</ele>
                <time>2014-08-30T09:00:30Z</time>
            </trkpt>
            <trkpt lon="101.092131" lat="13.225392">
                <ele>135.200000</ele>
                <time>2014-08-30T09:00:43Z</time>
            </trkpt>
            <trkpt lon="101.092013" lat="13.225385">
                <ele>137.610000</ele>
                <time>2014-08-30T09:01:00Z</time>
            </trkpt>
            <trkpt lon="101.091943" lat="13.225406">
                <ele>138.570000</ele>
                <time>2014-08-30T09:01:09Z</time>
            </trkpt>
            <trkpt lon="101.091665" lat="13.225457">
                <ele>140.490000</ele>
                <time>2014-08-30T09:01:25Z</time>
            </trkpt>
            <trkpt lon="101.091618" lat="13.225452">
                <ele>140.970000</ele>
                <time>2014-08-30T09:01:28Z</time>
            </trkpt>
            <trkpt lon="101.091376" lat="13.225569">
                <ele>141.930000</ele>
                <time>2014-08-30T09:01:42Z</time>
            </trkpt>
            <trkpt lon="101.091158" lat="13.225623">
                <ele>142.410000</ele>
                <time>2014-08-30T09:01:55Z</time>
            </trkpt>
            <trkpt lon="101.090913" lat="13.225659">
                <ele>144.820000</ele>
                <time>2014-08-30T09:02:09Z</time>
            </trkpt>
            <trkpt lon="101.090835" lat="13.225658">
                <ele>144.820000</ele>
                <time>2014-08-30T09:02:13Z</time>
            </trkpt>
            <trkpt lon="101.090760" lat="13.225723">
                <ele>145.300000</ele>
                <time>2014-08-30T09:02:19Z</time>
            </trkpt>
            <trkpt lon="101.090394" lat="13.225808">
                <ele>144.340000</ele>
                <time>2014-08-30T09:02:32Z</time>
            </trkpt>
            <trkpt lon="101.090323" lat="13.225869">
                <ele>145.300000</ele>
                <time>2014-08-30T09:02:37Z</time>
            </trkpt>
            <trkpt lon="101.090159" lat="13.225919">
                <ele>146.740000</ele>
                <time>2014-08-30T09:02:46Z</time>
            </trkpt>
            <trkpt lon="101.089803" lat="13.226042">
                <ele>148.180000</ele>
                <time>2014-08-30T09:03:04Z</time>
            </trkpt>
            <trkpt lon="101.089548" lat="13.226096">
                <ele>146.740000</ele>
                <time>2014-08-30T09:03:13Z</time>
            </trkpt>
            <trkpt lon="101.089375" lat="13.226032">
                <ele>144.820000</ele>
                <time>2014-08-30T09:03:18Z</time>
            </trkpt>
            <trkpt lon="101.089325" lat="13.225967">
                <ele>143.370000</ele>
                <time>2014-08-30T09:03:22Z</time>
            </trkpt>
            <trkpt lon="101.089048" lat="13.225677">
                <ele>140.970000</ele>
                <time>2014-08-30T09:03:34Z</time>
            </trkpt>
            <trkpt lon="101.088913" lat="13.225535">
                <ele>143.850000</ele>
                <time>2014-08-30T09:03:43Z</time>
            </trkpt>
            <trkpt lon="101.088759" lat="13.225619">
                <ele>144.340000</ele>
                <time>2014-08-30T09:03:54Z</time>
            </trkpt>
            <trkpt lon="101.088706" lat="13.225683">
                <ele>144.340000</ele>
                <time>2014-08-30T09:03:59Z</time>
            </trkpt>
            <trkpt lon="101.088643" lat="13.225756">
                <ele>144.340000</ele>
                <time>2014-08-30T09:04:05Z</time>
            </trkpt>
            <trkpt lon="101.088567" lat="13.225820">
                <ele>144.340000</ele>
                <time>2014-08-30T09:04:10Z</time>
            </trkpt>
            <trkpt lon="101.088374" lat="13.225752">
                <ele>145.300000</ele>
                <time>2014-08-30T09:04:23Z</time>
            </trkpt>
            <trkpt lon="101.088262" lat="13.225522">
                <ele>146.740000</ele>
                <time>2014-08-30T09:04:38Z</time>
            </trkpt>
            <trkpt lon="101.088081" lat="13.225261">
                <ele>148.180000</ele>
                <time>2014-08-30T09:04:53Z</time>
            </trkpt>
            <trkpt lon="101.087905" lat="13.224967">
                <ele>148.660000</ele>
                <time>2014-08-30T09:05:07Z</time>
            </trkpt>
            <trkpt lon="101.087756" lat="13.224600">
                <ele>148.660000</ele>
                <time>2014-08-30T09:05:22Z</time>
            </trkpt>
            <trkpt lon="101.087642" lat="13.224388">
                <ele>151.060000</ele>
                <time>2014-08-30T09:05:37Z</time>
            </trkpt>
            <trkpt lon="101.087658" lat="13.224047">
                <ele>151.540000</ele>
                <time>2014-08-30T09:05:54Z</time>
            </trkpt>
            <trkpt lon="101.087636" lat="13.223793">
                <ele>150.100000</ele>
                <time>2014-08-30T09:06:00Z</time>
            </trkpt>
            <trkpt lon="101.087440" lat="13.223426">
                <ele>149.620000</ele>
                <time>2014-08-30T09:06:12Z</time>
            </trkpt>
            <trkpt lon="101.087171" lat="13.223049">
                <ele>148.660000</ele>
                <time>2014-08-30T09:06:24Z</time>
            </trkpt>
            <trkpt lon="101.086894" lat="13.222668">
                <ele>149.620000</ele>
                <time>2014-08-30T09:06:39Z</time>
            </trkpt>
            <trkpt lon="101.086635" lat="13.222496">
                <ele>151.060000</ele>
                <time>2014-08-30T09:06:51Z</time>
            </trkpt>
            <trkpt lon="101.086601" lat="13.222482">
                <ele>151.540000</ele>
                <time>2014-08-30T09:06:53Z</time>
            </trkpt>
            <trkpt lon="101.086297" lat="13.222253">
                <ele>150.580000</ele>
                <time>2014-08-30T09:07:06Z</time>
            </trkpt>
            <trkpt lon="101.086228" lat="13.222129">
                <ele>147.700000</ele>
                <time>2014-08-30T09:07:16Z</time>
            </trkpt>
            <trkpt lon="101.086221" lat="13.222104">
                <ele>146.740000</ele>
                <time>2014-08-30T09:07:32Z</time>
            </trkpt>
            <trkpt lon="101.086201" lat="13.222016">
                <ele>146.740000</ele>
                <time>2014-08-30T09:07:48Z</time>
            </trkpt>
            <trkpt lon="101.086138" lat="13.221927">
                <ele>146.260000</ele>
                <time>2014-08-30T09:07:57Z</time>
            </trkpt>
            <trkpt lon="101.086135" lat="13.221919">
                <ele>146.260000</ele>
                <time>2014-08-30T09:07:58Z</time>
            </trkpt>
            <trkpt lon="101.086111" lat="13.221827">
                <ele>148.660000</ele>
                <time>2014-08-30T09:08:14Z</time>
            </trkpt>
            <trkpt lon="101.086061" lat="13.221727">
                <ele>151.060000</ele>
                <time>2014-08-30T09:08:31Z</time>
            </trkpt>
            <trkpt lon="101.086060" lat="13.221717">
                <ele>151.060000</ele>
                <time>2014-08-30T09:08:51Z</time>
            </trkpt>
            <trkpt lon="101.086073" lat="13.221692">
                <ele>151.060000</ele>
                <time>2014-08-30T09:09:10Z</time>
            </trkpt>
            <trkpt lon="101.086033" lat="13.221619">
                <ele>150.580000</ele>
                <time>2014-08-30T09:09:16Z</time>
            </trkpt>
            <trkpt lon="101.085943" lat="13.221376">
                <ele>147.700000</ele>
                <time>2014-08-30T09:09:27Z</time>
            </trkpt>
            <trkpt lon="101.085863" lat="13.221270">
                <ele>147.220000</ele>
                <time>2014-08-30T09:09:38Z</time>
            </trkpt>
            <trkpt lon="101.085795" lat="13.221186">
                <ele>149.140000</ele>
                <time>2014-08-30T09:09:52Z</time>
            </trkpt>
            <trkpt lon="101.085774" lat="13.221141">
                <ele>149.140000</ele>
                <time>2014-08-30T09:10:07Z</time>
            </trkpt>
            <trkpt lon="101.085781" lat="13.221150">
                <ele>149.620000</ele>
                <time>2014-08-30T09:10:25Z</time>
            </trkpt>
            <trkpt lon="101.085781" lat="13.221131">
                <ele>149.620000</ele>
                <time>2014-08-30T09:10:44Z</time>
            </trkpt>
            <trkpt lon="101.085790" lat="13.221127">
                <ele>148.180000</ele>
                <time>2014-08-30T09:10:47Z</time>
            </trkpt>
            <trkpt lon="101.085780" lat="13.221132">
                <ele>148.180000</ele>
                <time>2014-08-30T09:11:13Z</time>
            </trkpt>
            <trkpt lon="101.085766" lat="13.221161">
                <ele>149.140000</ele>
                <time>2014-08-30T09:11:49Z</time>
            </trkpt>
            <trkpt lon="101.085778" lat="13.221145">
                <ele>148.660000</ele>
                <time>2014-08-30T09:12:21Z</time>
            </trkpt>
            <trkpt lon="101.085774" lat="13.221131">
                <ele>148.660000</ele>
                <time>2014-08-30T09:13:00Z</time>
            </trkpt>
            <trkpt lon="101.085794" lat="13.221100">
                <ele>149.140000</ele>
                <time>2014-08-30T09:13:19Z</time>
            </trkpt>
            <trkpt lon="101.085794" lat="13.221085">
                <ele>150.100000</ele>
                <time>2014-08-30T09:13:37Z</time>
            </trkpt>
            <trkpt lon="101.085763" lat="13.221103">
                <ele>150.100000</ele>
                <time>2014-08-30T09:13:54Z</time>
            </trkpt>
            <trkpt lon="101.085730" lat="13.221081">
                <ele>150.580000</ele>
                <time>2014-08-30T09:13:58Z</time>
            </trkpt>
            <trkpt lon="101.085694" lat="13.221000">
                <ele>150.100000</ele>
                <time>2014-08-30T09:14:03Z</time>
            </trkpt>
            <trkpt lon="101.085563" lat="13.220620">
                <ele>152.030000</ele>
                <time>2014-08-30T09:14:21Z</time>
            </trkpt>
            <trkpt lon="101.085498" lat="13.220389">
                <ele>154.910000</ele>
                <time>2014-08-30T09:14:39Z</time>
            </trkpt>
            <trkpt lon="101.085426" lat="13.220339">
                <ele>153.950000</ele>
                <time>2014-08-30T09:14:54Z</time>
            </trkpt>
            <trkpt lon="101.085436" lat="13.220331">
                <ele>155.390000</ele>
                <time>2014-08-30T09:15:14Z</time>
            </trkpt>
            <trkpt lon="101.085447" lat="13.220315">
                <ele>154.910000</ele>
                <time>2014-08-30T09:15:45Z</time>
            </trkpt>
            <trkpt lon="101.085425" lat="13.220274">
                <ele>154.910000</ele>
                <time>2014-08-30T09:15:49Z</time>
            </trkpt>
            <trkpt lon="101.085362" lat="13.219980">
                <ele>156.830000</ele>
                <time>2014-08-30T09:16:04Z</time>
            </trkpt>
            <trkpt lon="101.085341" lat="13.219826">
                <ele>153.950000</ele>
                <time>2014-08-30T09:16:11Z</time>
            </trkpt>
            <trkpt lon="101.085349" lat="13.219576">
                <ele>152.510000</ele>
                <time>2014-08-30T09:16:21Z</time>
            </trkpt>
            <trkpt lon="101.085331" lat="13.219496">
                <ele>154.910000</ele>
                <time>2014-08-30T09:16:37Z</time>
            </trkpt>
            <trkpt lon="101.085366" lat="13.219384">
                <ele>157.310000</ele>
                <time>2014-08-30T09:16:54Z</time>
            </trkpt>
            <trkpt lon="101.085367" lat="13.219300">
                <ele>158.270000</ele>
                <time>2014-08-30T09:17:05Z</time>
            </trkpt>
            <trkpt lon="101.085532" lat="13.219054">
                <ele>157.790000</ele>
                <time>2014-08-30T09:17:21Z</time>
            </trkpt>
            <trkpt lon="101.085805" lat="13.218922">
                <ele>155.390000</ele>
                <time>2014-08-30T09:17:33Z</time>
            </trkpt>
            <trkpt lon="101.086035" lat="13.219098">
                <ele>152.510000</ele>
                <time>2014-08-30T09:17:42Z</time>
            </trkpt>
            <trkpt lon="101.086280" lat="13.219354">
                <ele>149.620000</ele>
                <time>2014-08-30T09:17:51Z</time>
            </trkpt>
            <trkpt lon="101.086359" lat="13.219385">
                <ele>148.660000</ele>
                <time>2014-08-30T09:17:54Z</time>
            </trkpt>
            <trkpt lon="101.086504" lat="13.219341">
                <ele>146.740000</ele>
                <time>2014-08-30T09:18:06Z</time>
            </trkpt>
            <trkpt lon="101.086499" lat="13.219227">
                <ele>144.820000</ele>
                <time>2014-08-30T09:18:11Z</time>
            </trkpt>
            <trkpt lon="101.086497" lat="13.219142">
                <ele>143.370000</ele>
                <time>2014-08-30T09:18:13Z</time>
            </trkpt>
            <trkpt lon="101.086576" lat="13.219017">
                <ele>143.370000</ele>
                <time>2014-08-30T09:18:17Z</time>
            </trkpt>
            <trkpt lon="101.086644" lat="13.218973">
                <ele>144.820000</ele>
                <time>2014-08-30T09:18:28Z</time>
            </trkpt>
            <trkpt lon="101.086735" lat="13.218876">
                <ele>147.220000</ele>
                <time>2014-08-30T09:18:43Z</time>
            </trkpt>
            <trkpt lon="101.086932" lat="13.218689">
                <ele>147.220000</ele>
                <time>2014-08-30T09:18:57Z</time>
            </trkpt>
            <trkpt lon="101.087129" lat="13.218435">
                <ele>146.740000</ele>
                <time>2014-08-30T09:19:08Z</time>
            </trkpt>
            <trkpt lon="101.087264" lat="13.218197">
                <ele>147.220000</ele>
                <time>2014-08-30T09:19:15Z</time>
            </trkpt>
            <trkpt lon="101.087460" lat="13.218028">
                <ele>144.820000</ele>
                <time>2014-08-30T09:19:21Z</time>
            </trkpt>
            <trkpt lon="101.087679" lat="13.217798">
                <ele>141.450000</ele>
                <time>2014-08-30T09:19:30Z</time>
            </trkpt>
            <trkpt lon="101.087813" lat="13.217447">
                <ele>140.490000</ele>
                <time>2014-08-30T09:19:39Z</time>
            </trkpt>
            <trkpt lon="101.087830" lat="13.217026">
                <ele>140.490000</ele>
                <time>2014-08-30T09:19:51Z</time>
            </trkpt>
            <trkpt lon="101.087606" lat="13.216743">
                <ele>142.890000</ele>
                <time>2014-08-30T09:20:08Z</time>
            </trkpt>
            <trkpt lon="101.087354" lat="13.216622">
                <ele>145.780000</ele>
                <time>2014-08-30T09:20:26Z</time>
            </trkpt>
            <trkpt lon="101.087240" lat="13.216594">
                <ele>146.740000</ele>
                <time>2014-08-30T09:20:38Z</time>
            </trkpt>
            <trkpt lon="101.087129" lat="13.216616">
                <ele>149.140000</ele>
                <time>2014-08-30T09:20:56Z</time>
            </trkpt>
            <trkpt lon="101.087053" lat="13.216662">
                <ele>149.140000</ele>
                <time>2014-08-30T09:21:06Z</time>
            </trkpt>
            <trkpt lon="101.086883" lat="13.216738">
                <ele>150.580000</ele>
                <time>2014-08-30T09:21:25Z</time>
            </trkpt>
            <trkpt lon="101.086734" lat="13.216783">
                <ele>152.030000</ele>
                <time>2014-08-30T09:21:43Z</time>
            </trkpt>
            <trkpt lon="101.086612" lat="13.216829">
                <ele>154.430000</ele>
                <time>2014-08-30T09:22:02Z</time>
            </trkpt>
            <trkpt lon="101.086432" lat="13.216883">
                <ele>156.830000</ele>
                <time>2014-08-30T09:22:21Z</time>
            </trkpt>
            <trkpt lon="101.086332" lat="13.216850">
                <ele>157.790000</ele>
                <time>2014-08-30T09:22:36Z</time>
            </trkpt>
            <trkpt lon="101.086285" lat="13.216813">
                <ele>158.270000</ele>
                <time>2014-08-30T09:22:41Z</time>
            </trkpt>
            <trkpt lon="101.086208" lat="13.216798">
                <ele>159.240000</ele>
                <time>2014-08-30T09:22:46Z</time>
            </trkpt>
            <trkpt lon="101.085983" lat="13.216675">
                <ele>162.120000</ele>
                <time>2014-08-30T09:23:03Z</time>
            </trkpt>
            <trkpt lon="101.085756" lat="13.216587">
                <ele>162.600000</ele>
                <time>2014-08-30T09:23:20Z</time>
            </trkpt>
            <trkpt lon="101.085617" lat="13.216565">
                <ele>163.560000</ele>
                <time>2014-08-30T09:23:35Z</time>
            </trkpt>
            <trkpt lon="101.085590" lat="13.216561">
                <ele>164.520000</ele>
                <time>2014-08-30T09:23:38Z</time>
            </trkpt>
            <trkpt lon="101.085450" lat="13.216489">
                <ele>165.480000</ele>
                <time>2014-08-30T09:23:56Z</time>
            </trkpt>
            <trkpt lon="101.085247" lat="13.216394">
                <ele>166.450000</ele>
                <time>2014-08-30T09:24:12Z</time>
            </trkpt>
            <trkpt lon="101.085146" lat="13.216363">
                <ele>166.930000</ele>
                <time>2014-08-30T09:24:19Z</time>
            </trkpt>
            <trkpt lon="101.085095" lat="13.216299">
                <ele>167.410000</ele>
                <time>2014-08-30T09:24:23Z</time>
            </trkpt>
            <trkpt lon="101.085146" lat="13.216069">
                <ele>163.080000</ele>
                <time>2014-08-30T09:24:33Z</time>
            </trkpt>
            <trkpt lon="101.085099" lat="13.215788">
                <ele>160.680000</ele>
                <time>2014-08-30T09:24:43Z</time>
            </trkpt>
            <trkpt lon="101.085117" lat="13.215519">
                <ele>160.680000</ele>
                <time>2014-08-30T09:24:53Z</time>
            </trkpt>
            <trkpt lon="101.085048" lat="13.215244">
                <ele>162.600000</ele>
                <time>2014-08-30T09:25:10Z</time>
            </trkpt>
            <trkpt lon="101.084967" lat="13.214958">
                <ele>165.000000</ele>
                <time>2014-08-30T09:25:26Z</time>
            </trkpt>
            <trkpt lon="101.084891" lat="13.214739">
                <ele>166.930000</ele>
                <time>2014-08-30T09:25:41Z</time>
            </trkpt>
            <trkpt lon="101.084971" lat="13.214470">
                <ele>164.040000</ele>
                <time>2014-08-30T09:25:51Z</time>
            </trkpt>
            <trkpt lon="101.085003" lat="13.214455">
                <ele>163.560000</ele>
                <time>2014-08-30T09:25:52Z</time>
            </trkpt>
            <trkpt lon="101.085218" lat="13.214416">
                <ele>161.160000</ele>
                <time>2014-08-30T09:25:59Z</time>
            </trkpt>
            <trkpt lon="101.085292" lat="13.214268">
                <ele>158.270000</ele>
                <time>2014-08-30T09:26:07Z</time>
            </trkpt>
            <trkpt lon="101.085207" lat="13.213944">
                <ele>158.270000</ele>
                <time>2014-08-30T09:26:17Z</time>
            </trkpt>
            <trkpt lon="101.085182" lat="13.213864">
                <ele>158.750000</ele>
                <time>2014-08-30T09:26:29Z</time>
            </trkpt>
            <trkpt lon="101.085132" lat="13.213750">
                <ele>161.160000</ele>
                <time>2014-08-30T09:26:45Z</time>
            </trkpt>
            <trkpt lon="101.085075" lat="13.213687">
                <ele>162.600000</ele>
                <time>2014-08-30T09:27:01Z</time>
            </trkpt>
            <trkpt lon="101.084997" lat="13.213601">
                <ele>163.080000</ele>
                <time>2014-08-30T09:27:14Z</time>
            </trkpt>
            <trkpt lon="101.084937" lat="13.213520">
                <ele>163.560000</ele>
                <time>2014-08-30T09:27:19Z</time>
            </trkpt>
            <trkpt lon="101.084829" lat="13.213198">
                <ele>162.600000</ele>
                <time>2014-08-30T09:27:32Z</time>
            </trkpt>
            <trkpt lon="101.084765" lat="13.212901">
                <ele>162.600000</ele>
                <time>2014-08-30T09:27:43Z</time>
            </trkpt>
            <trkpt lon="101.084777" lat="13.212845">
                <ele>163.560000</ele>
                <time>2014-08-30T09:27:47Z</time>
            </trkpt>
            <trkpt lon="101.084979" lat="13.212697">
                <ele>160.680000</ele>
                <time>2014-08-30T09:27:55Z</time>
            </trkpt>
            <trkpt lon="101.085085" lat="13.212615">
                <ele>159.720000</ele>
                <time>2014-08-30T09:28:00Z</time>
            </trkpt>
            <trkpt lon="101.084947" lat="13.212224">
                <ele>157.790000</ele>
                <time>2014-08-30T09:28:11Z</time>
            </trkpt>
            <trkpt lon="101.084784" lat="13.212153">
                <ele>159.240000</ele>
                <time>2014-08-30T09:28:22Z</time>
            </trkpt>
            <trkpt lon="101.084570" lat="13.212121">
                <ele>160.200000</ele>
                <time>2014-08-30T09:28:35Z</time>
            </trkpt>
            <trkpt lon="101.084496" lat="13.212174">
                <ele>161.640000</ele>
                <time>2014-08-30T09:28:48Z</time>
            </trkpt>
            <trkpt lon="101.084358" lat="13.212242">
                <ele>164.040000</ele>
                <time>2014-08-30T09:29:08Z</time>
            </trkpt>
            <trkpt lon="101.084200" lat="13.212272">
                <ele>166.930000</ele>
                <time>2014-08-30T09:29:27Z</time>
            </trkpt>
            <trkpt lon="101.084185" lat="13.212272">
                <ele>167.890000</ele>
                <time>2014-08-30T09:29:43Z</time>
            </trkpt>
            <trkpt lon="101.084163" lat="13.212317">
                <ele>166.450000</ele>
                <time>2014-08-30T09:30:05Z</time>
            </trkpt>
            <trkpt lon="101.084103" lat="13.212293">
                <ele>166.450000</ele>
                <time>2014-08-30T09:30:42Z</time>
            </trkpt>
            <trkpt lon="101.084176" lat="13.212265">
                <ele>167.410000</ele>
                <time>2014-08-30T09:31:13Z</time>
            </trkpt>
            <trkpt lon="101.084177" lat="13.212275">
                <ele>167.890000</ele>
                <time>2014-08-30T09:31:42Z</time>
            </trkpt>
            <trkpt lon="101.084172" lat="13.212302">
                <ele>167.890000</ele>
                <time>2014-08-30T09:32:15Z</time>
            </trkpt>
            <trkpt lon="101.084162" lat="13.212298">
                <ele>168.370000</ele>
                <time>2014-08-30T09:32:16Z</time>
            </trkpt>
            <trkpt lon="101.083879" lat="13.212160">
                <ele>166.450000</ele>
                <time>2014-08-30T09:32:28Z</time>
            </trkpt>
            <trkpt lon="101.083755" lat="13.212161">
                <ele>166.930000</ele>
                <time>2014-08-30T09:32:32Z</time>
            </trkpt>
            <trkpt lon="101.083680" lat="13.212094">
                <ele>167.410000</ele>
                <time>2014-08-30T09:32:36Z</time>
            </trkpt>
            <trkpt lon="101.083483" lat="13.211629">
                <ele>166.930000</ele>
                <time>2014-08-30T09:32:52Z</time>
            </trkpt>
            <trkpt lon="101.083469" lat="13.211022">
                <ele>165.960000</ele>
                <time>2014-08-30T09:33:08Z</time>
            </trkpt>
            <trkpt lon="101.083538" lat="13.210750">
                <ele>163.080000</ele>
                <time>2014-08-30T09:33:16Z</time>
            </trkpt>
            <trkpt lon="101.083549" lat="13.210716">
                <ele>162.600000</ele>
                <time>2014-08-30T09:33:17Z</time>
            </trkpt>
            <trkpt lon="101.083614" lat="13.210561">
                <ele>160.680000</ele>
                <time>2014-08-30T09:33:22Z</time>
            </trkpt>
            <trkpt lon="101.083668" lat="13.210308">
                <ele>157.310000</ele>
                <time>2014-08-30T09:33:30Z</time>
            </trkpt>
            <trkpt lon="101.083661" lat="13.210255">
                <ele>156.830000</ele>
                <time>2014-08-30T09:33:32Z</time>
            </trkpt>
            <trkpt lon="101.083472" lat="13.209952">
                <ele>153.950000</ele>
                <time>2014-08-30T09:33:45Z</time>
            </trkpt>
            <trkpt lon="101.083261" lat="13.209582">
                <ele>153.470000</ele>
                <time>2014-08-30T09:33:59Z</time>
            </trkpt>
            <trkpt lon="101.083262" lat="13.209597">
                <ele>152.510000</ele>
                <time>2014-08-30T09:34:08Z</time>
            </trkpt>
            <trkpt lon="101.083248" lat="13.209598">
                <ele>152.990000</ele>
                <time>2014-08-30T09:34:14Z</time>
            </trkpt>
            <trkpt lon="101.083223" lat="13.209598">
                <ele>152.030000</ele>
                <time>2014-08-30T09:34:16Z</time>
            </trkpt>
            <trkpt lon="101.083137" lat="13.209573">
                <ele>151.540000</ele>
                <time>2014-08-30T09:34:21Z</time>
            </trkpt>
            <trkpt lon="101.083035" lat="13.209564">
                <ele>152.510000</ele>
                <time>2014-08-30T09:34:36Z</time>
            </trkpt>
            <trkpt lon="101.083013" lat="13.209564">
                <ele>152.510000</ele>
                <time>2014-08-30T09:34:38Z</time>
            </trkpt>
            <trkpt lon="101.082840" lat="13.209584">
                <ele>153.950000</ele>
                <time>2014-08-30T09:34:55Z</time>
            </trkpt>
            <trkpt lon="101.082801" lat="13.209575">
                <ele>153.950000</ele>
                <time>2014-08-30T09:35:00Z</time>
            </trkpt>
            <trkpt lon="101.082695" lat="13.209453">
                <ele>155.390000</ele>
                <time>2014-08-30T09:35:19Z</time>
            </trkpt>
            <trkpt lon="101.082629" lat="13.209437">
                <ele>156.350000</ele>
                <time>2014-08-30T09:35:29Z</time>
            </trkpt>
            <trkpt lon="101.082435" lat="13.209594">
                <ele>156.350000</ele>
                <time>2014-08-30T09:35:44Z</time>
            </trkpt>
            <trkpt lon="101.082407" lat="13.209589">
                <ele>156.350000</ele>
                <time>2014-08-30T09:35:46Z</time>
            </trkpt>
            <trkpt lon="101.082376" lat="13.209558">
                <ele>156.830000</ele>
                <time>2014-08-30T09:35:49Z</time>
            </trkpt>
            <trkpt lon="101.082271" lat="13.209423">
                <ele>158.750000</ele>
                <time>2014-08-30T09:36:02Z</time>
            </trkpt>
            <trkpt lon="101.082259" lat="13.209227">
                <ele>162.120000</ele>
                <time>2014-08-30T09:36:16Z</time>
            </trkpt>
            <trkpt lon="101.082265" lat="13.209128">
                <ele>163.080000</ele>
                <time>2014-08-30T09:36:30Z</time>
            </trkpt>
            <trkpt lon="101.082228" lat="13.209046">
                <ele>163.560000</ele>
                <time>2014-08-30T09:36:45Z</time>
            </trkpt>
            <trkpt lon="101.082209" lat="13.208950">
                <ele>162.600000</ele>
                <time>2014-08-30T09:37:01Z</time>
            </trkpt>
            <trkpt lon="101.082233" lat="13.208836">
                <ele>159.240000</ele>
                <time>2014-08-30T09:37:19Z</time>
            </trkpt>
            <trkpt lon="101.082274" lat="13.208719">
                <ele>155.870000</ele>
                <time>2014-08-30T09:37:36Z</time>
            </trkpt>
            <trkpt lon="101.082265" lat="13.208599">
                <ele>152.990000</ele>
                <time>2014-08-30T09:37:55Z</time>
            </trkpt>
            <trkpt lon="101.082212" lat="13.208534">
                <ele>152.510000</ele>
                <time>2014-08-30T09:38:06Z</time>
            </trkpt>
            <trkpt lon="101.082161" lat="13.208405">
                <ele>150.100000</ele>
                <time>2014-08-30T09:38:13Z</time>
            </trkpt>
            <trkpt lon="101.081888" lat="13.208248">
                <ele>149.140000</ele>
                <time>2014-08-30T09:38:27Z</time>
            </trkpt>
            <trkpt lon="101.081723" lat="13.208055">
                <ele>147.700000</ele>
                <time>2014-08-30T09:38:38Z</time>
            </trkpt>
            <trkpt lon="101.081584" lat="13.207897">
                <ele>144.340000</ele>
                <time>2014-08-30T09:38:46Z</time>
            </trkpt>
            <trkpt lon="101.081380" lat="13.207664">
                <ele>141.450000</ele>
                <time>2014-08-30T09:38:56Z</time>
            </trkpt>
            <trkpt lon="101.081181" lat="13.207410">
                <ele>140.490000</ele>
                <time>2014-08-30T09:39:07Z</time>
            </trkpt>
            <trkpt lon="101.080952" lat="13.207346">
                <ele>141.450000</ele>
                <time>2014-08-30T09:39:19Z</time>
            </trkpt>
            <trkpt lon="101.080899" lat="13.207356">
                <ele>140.490000</ele>
                <time>2014-08-30T09:39:33Z</time>
            </trkpt>
            <trkpt lon="101.080857" lat="13.207327">
                <ele>141.450000</ele>
                <time>2014-08-30T09:39:46Z</time>
            </trkpt>
            <trkpt lon="101.080844" lat="13.207280">
                <ele>141.930000</ele>
                <time>2014-08-30T09:40:08Z</time>
            </trkpt>
            <trkpt lon="101.080771" lat="13.207198">
                <ele>141.930000</ele>
                <time>2014-08-30T09:40:24Z</time>
            </trkpt>
            <trkpt lon="101.080726" lat="13.207096">
                <ele>142.890000</ele>
                <time>2014-08-30T09:40:40Z</time>
            </trkpt>
            <trkpt lon="101.080718" lat="13.206935">
                <ele>143.850000</ele>
                <time>2014-08-30T09:40:57Z</time>
            </trkpt>
            <trkpt lon="101.080895" lat="13.206836">
                <ele>146.260000</ele>
                <time>2014-08-30T09:41:13Z</time>
            </trkpt>
            <trkpt lon="101.080992" lat="13.206808">
                <ele>146.740000</ele>
                <time>2014-08-30T09:41:26Z</time>
            </trkpt>
            <trkpt lon="101.081049" lat="13.206657">
                <ele>148.660000</ele>
                <time>2014-08-30T09:41:47Z</time>
            </trkpt>
            <trkpt lon="101.081049" lat="13.206670">
                <ele>148.660000</ele>
                <time>2014-08-30T09:42:13Z</time>
            </trkpt>
            <trkpt lon="101.081061" lat="13.206648">
                <ele>148.660000</ele>
                <time>2014-08-30T09:42:41Z</time>
            </trkpt>
            <trkpt lon="101.081092" lat="13.206647">
                <ele>148.660000</ele>
                <time>2014-08-30T09:43:06Z</time>
            </trkpt>
            <trkpt lon="101.081072" lat="13.206662">
                <ele>148.180000</ele>
                <time>2014-08-30T09:43:22Z</time>
            </trkpt>
            <trkpt lon="101.081055" lat="13.206674">
                <ele>148.180000</ele>
                <time>2014-08-30T09:43:31Z</time>
            </trkpt>
            <trkpt lon="101.081009" lat="13.206838">
                <ele>146.740000</ele>
                <time>2014-08-30T09:43:42Z</time>
            </trkpt>
            <trkpt lon="101.080887" lat="13.206856">
                <ele>145.780000</ele>
                <time>2014-08-30T09:43:48Z</time>
            </trkpt>
            <trkpt lon="101.080788" lat="13.206902">
                <ele>143.850000</ele>
                <time>2014-08-30T09:43:52Z</time>
            </trkpt>
            <trkpt lon="101.080803" lat="13.207150">
                <ele>141.930000</ele>
                <time>2014-08-30T09:44:03Z</time>
            </trkpt>
            <trkpt lon="101.080806" lat="13.207172">
                <ele>141.930000</ele>
                <time>2014-08-30T09:44:19Z</time>
            </trkpt>
            <trkpt lon="101.080778" lat="13.207199">
                <ele>142.410000</ele>
                <time>2014-08-30T09:44:43Z</time>
            </trkpt>
            <trkpt lon="101.080766" lat="13.207172">
                <ele>142.410000</ele>
                <time>2014-08-30T09:45:00Z</time>
            </trkpt>
            <trkpt lon="101.080744" lat="13.207122">
                <ele>142.890000</ele>
                <time>2014-08-30T09:45:15Z</time>
            </trkpt>
            <trkpt lon="101.080725" lat="13.206995">
                <ele>143.370000</ele>
                <time>2014-08-30T09:45:35Z</time>
            </trkpt>
            <trkpt lon="101.080730" lat="13.207002">
                <ele>143.850000</ele>
                <time>2014-08-30T09:46:09Z</time>
            </trkpt>
            <trkpt lon="101.080759" lat="13.207002">
                <ele>143.850000</ele>
                <time>2014-08-30T09:46:32Z</time>
            </trkpt>
            <trkpt lon="101.080813" lat="13.206977">
                <ele>143.850000</ele>
                <time>2014-08-30T09:47:03Z</time>
            </trkpt>
            <trkpt lon="101.080815" lat="13.206966">
                <ele>143.850000</ele>
                <time>2014-08-30T09:47:32Z</time>
            </trkpt>
            <trkpt lon="101.080818" lat="13.206916">
                <ele>144.340000</ele>
                <time>2014-08-30T09:48:09Z</time>
            </trkpt>
            <trkpt lon="101.080814" lat="13.206987">
                <ele>144.340000</ele>
                <time>2014-08-30T09:48:34Z</time>
            </trkpt>
            <trkpt lon="101.080841" lat="13.207161">
                <ele>143.370000</ele>
                <time>2014-08-30T09:48:49Z</time>
            </trkpt>
            <trkpt lon="101.080837" lat="13.207181">
                <ele>143.370000</ele>
                <time>2014-08-30T09:49:03Z</time>
            </trkpt>
            <trkpt lon="101.080859" lat="13.207229">
                <ele>142.890000</ele>
                <time>2014-08-30T09:49:18Z</time>
            </trkpt>
            <trkpt lon="101.080947" lat="13.207352">
                <ele>142.890000</ele>
                <time>2014-08-30T09:49:29Z</time>
            </trkpt>
            <trkpt lon="101.081183" lat="13.207396">
                <ele>141.450000</ele>
                <time>2014-08-30T09:49:44Z</time>
            </trkpt>
            <trkpt lon="101.081362" lat="13.207492">
                <ele>141.930000</ele>
                <time>2014-08-30T09:49:56Z</time>
            </trkpt>
            <trkpt lon="101.081390" lat="13.207671">
                <ele>143.850000</ele>
                <time>2014-08-30T09:50:12Z</time>
            </trkpt>
            <trkpt lon="101.081446" lat="13.207729">
                <ele>145.300000</ele>
                <time>2014-08-30T09:50:31Z</time>
            </trkpt>
            <trkpt lon="101.081425" lat="13.207725">
                <ele>144.820000</ele>
                <time>2014-08-30T09:50:55Z</time>
            </trkpt>
            <trkpt lon="101.081330" lat="13.207657">
                <ele>143.370000</ele>
                <time>2014-08-30T09:51:11Z</time>
            </trkpt>
            <trkpt lon="101.081299" lat="13.207532">
                <ele>142.410000</ele>
                <time>2014-08-30T09:51:22Z</time>
            </trkpt>
            <trkpt lon="101.081150" lat="13.207417">
                <ele>141.450000</ele>
                <time>2014-08-30T09:51:40Z</time>
            </trkpt>
            <trkpt lon="101.081053" lat="13.207366">
                <ele>141.930000</ele>
                <time>2014-08-30T09:51:57Z</time>
            </trkpt>
            <trkpt lon="101.081045" lat="13.207355">
                <ele>141.930000</ele>
                <time>2014-08-30T09:52:13Z</time>
            </trkpt>
            <trkpt lon="101.081013" lat="13.207346">
                <ele>141.450000</ele>
                <time>2014-08-30T09:52:30Z</time>
            </trkpt>
            <trkpt lon="101.081018" lat="13.207363">
                <ele>140.970000</ele>
                <time>2014-08-30T09:52:50Z</time>
            </trkpt>
            <trkpt lon="101.080989" lat="13.207341">
                <ele>140.970000</ele>
                <time>2014-08-30T09:53:20Z</time>
            </trkpt>
            <trkpt lon="101.080990" lat="13.207340">
                <ele>140.970000</ele>
                <time>2014-08-30T09:53:50Z</time>
            </trkpt>
            <trkpt lon="101.081009" lat="13.207346">
                <ele>140.970000</ele>
                <time>2014-08-30T09:54:06Z</time>
            </trkpt>
            <trkpt lon="101.081009" lat="13.207345">
                <ele>141.450000</ele>
                <time>2014-08-30T09:54:37Z</time>
            </trkpt>
            <trkpt lon="101.081009" lat="13.207344">
                <ele>141.450000</ele>
                <time>2014-08-30T09:54:59Z</time>
            </trkpt>
            <trkpt lon="101.080997" lat="13.207332">
                <ele>141.450000</ele>
                <time>2014-08-30T09:55:19Z</time>
            </trkpt>
            <trkpt lon="101.081002" lat="13.207343">
                <ele>141.930000</ele>
                <time>2014-08-30T09:55:40Z</time>
            </trkpt>
            <trkpt lon="101.081003" lat="13.207343">
                <ele>140.970000</ele>
                <time>2014-08-30T09:56:04Z</time>
            </trkpt>
            <trkpt lon="101.081022" lat="13.207345">
                <ele>140.970000</ele>
                <time>2014-08-30T09:56:41Z</time>
            </trkpt>
            <trkpt lon="101.081014" lat="13.207352">
                <ele>135.200000</ele>
                <time>2014-08-30T09:56:58Z</time>
            </trkpt>
            <trkpt lon="101.081011" lat="13.207348">
                <ele>143.850000</ele>
                <time>2014-08-30T09:56:59Z</time>
            </trkpt>
            <trkpt lon="101.081003" lat="13.207339">
                <ele>140.970000</ele>
                <time>2014-08-30T09:57:01Z</time>
            </trkpt>
            <trkpt lon="101.080993" lat="13.207309">
                <ele>140.490000</ele>
                <time>2014-08-30T09:57:37Z</time>
            </trkpt>
            <trkpt lon="101.080994" lat="13.207313">
                <ele>140.970000</ele>
                <time>2014-08-30T09:58:01Z</time>
            </trkpt>
            <trkpt lon="101.081011" lat="13.207333">
                <ele>140.490000</ele>
                <time>2014-08-30T09:58:36Z</time>
            </trkpt>
            <trkpt lon="101.081021" lat="13.207358">
                <ele>140.970000</ele>
                <time>2014-08-30T09:59:05Z</time>
            </trkpt>
            <trkpt lon="101.081029" lat="13.207350">
                <ele>141.450000</ele>
                <time>2014-08-30T09:59:27Z</time>
            </trkpt>
            <trkpt lon="101.081037" lat="13.207348">
                <ele>141.930000</ele>
                <time>2014-08-30T09:59:39Z</time>
            </trkpt>
            <trkpt lon="101.081041" lat="13.207358">
                <ele>141.930000</ele>
                <time>2014-08-30T09:59:59Z</time>
            </trkpt>
            <trkpt lon="101.081029" lat="13.207354">
                <ele>141.450000</ele>
                <time>2014-08-30T10:00:15Z</time>
            </trkpt>
            <trkpt lon="101.080952" lat="13.207347">
                <ele>141.930000</ele>
                <time>2014-08-30T10:00:29Z</time>
            </trkpt>
            <trkpt lon="101.080883" lat="13.207339">
                <ele>142.890000</ele>
                <time>2014-08-30T10:00:43Z</time>
            </trkpt>
            <trkpt lon="101.080841" lat="13.207266">
                <ele>143.850000</ele>
                <time>2014-08-30T10:00:58Z</time>
            </trkpt>
            <trkpt lon="101.080777" lat="13.207128">
                <ele>144.340000</ele>
                <time>2014-08-30T10:01:17Z</time>
            </trkpt>
            <trkpt lon="101.080757" lat="13.206953">
                <ele>144.820000</ele>
                <time>2014-08-30T10:01:36Z</time>
            </trkpt>
            <trkpt lon="101.080877" lat="13.206860">
                <ele>148.180000</ele>
                <time>2014-08-30T10:01:51Z</time>
            </trkpt>
            <trkpt lon="101.080889" lat="13.206857">
                <ele>147.700000</ele>
                <time>2014-08-30T10:01:52Z</time>
            </trkpt>
            <trkpt lon="101.080990" lat="13.206849">
                <ele>148.660000</ele>
                <time>2014-08-30T10:02:00Z</time>
            </trkpt>
            <trkpt lon="101.081018" lat="13.206806">
                <ele>148.660000</ele>
                <time>2014-08-30T10:02:04Z</time>
            </trkpt>
            <trkpt lon="101.081036" lat="13.206746">
                <ele>149.620000</ele>
                <time>2014-08-30T10:02:10Z</time>
            </trkpt>
            <trkpt lon="101.081047" lat="13.206715">
                <ele>149.620000</ele>
                <time>2014-08-30T10:02:14Z</time>
            </trkpt>
            <trkpt lon="101.081068" lat="13.206659">
                <ele>150.580000</ele>
                <time>2014-08-30T10:02:21Z</time>
            </trkpt>
            <trkpt lon="101.081116" lat="13.206530">
                <ele>150.100000</ele>
                <time>2014-08-30T10:02:30Z</time>
            </trkpt>
            <trkpt lon="101.081172" lat="13.206299">
                <ele>149.140000</ele>
                <time>2014-08-30T10:02:40Z</time>
            </trkpt>
            <trkpt lon="101.081269" lat="13.206280">
                <ele>148.180000</ele>
                <time>2014-08-30T10:02:47Z</time>
            </trkpt>
            <trkpt lon="101.081660" lat="13.206368">
                <ele>146.260000</ele>
                <time>2014-08-30T10:03:04Z</time>
            </trkpt>
            <trkpt lon="101.081706" lat="13.206384">
                <ele>146.260000</ele>
                <time>2014-08-30T10:03:06Z</time>
            </trkpt>
            <trkpt lon="101.081873" lat="13.206453">
                <ele>145.300000</ele>
                <time>2014-08-30T10:03:20Z</time>
            </trkpt>
            <trkpt lon="101.081881" lat="13.206455">
                <ele>145.780000</ele>
                <time>2014-08-30T10:03:22Z</time>
            </trkpt>
            <trkpt lon="101.082128" lat="13.206468">
                <ele>144.340000</ele>
                <time>2014-08-30T10:03:43Z</time>
            </trkpt>
            <trkpt lon="101.082375" lat="13.206486">
                <ele>143.370000</ele>
                <time>2014-08-30T10:04:04Z</time>
            </trkpt>
            <trkpt lon="101.082536" lat="13.206504">
                <ele>143.370000</ele>
                <time>2014-08-30T10:04:14Z</time>
            </trkpt>
            <trkpt lon="101.082820" lat="13.206623">
                <ele>142.410000</ele>
                <time>2014-08-30T10:04:26Z</time>
            </trkpt>
            <trkpt lon="101.082946" lat="13.206986">
                <ele>140.010000</ele>
                <time>2014-08-30T10:04:38Z</time>
            </trkpt>
            <trkpt lon="101.082962" lat="13.207014">
                <ele>139.530000</ele>
                <time>2014-08-30T10:04:39Z</time>
            </trkpt>
            <trkpt lon="101.083141" lat="13.207096">
                <ele>138.570000</ele>
                <time>2014-08-30T10:04:45Z</time>
            </trkpt>
            <trkpt lon="101.083280" lat="13.207171">
                <ele>136.640000</ele>
                <time>2014-08-30T10:04:56Z</time>
            </trkpt>
            <trkpt lon="101.083194" lat="13.207121">
                <ele>138.090000</ele>
                <time>2014-08-30T10:05:13Z</time>
            </trkpt>
            <trkpt lon="101.083041" lat="13.207042">
                <ele>139.050000</ele>
                <time>2014-08-30T10:05:32Z</time>
            </trkpt>
            <trkpt lon="101.083032" lat="13.207033">
                <ele>139.530000</ele>
                <time>2014-08-30T10:05:33Z</time>
            </trkpt>
            <trkpt lon="101.082985" lat="13.206960">
                <ele>139.530000</ele>
                <time>2014-08-30T10:05:41Z</time>
            </trkpt>
            <trkpt lon="101.082951" lat="13.206913">
                <ele>140.010000</ele>
                <time>2014-08-30T10:05:47Z</time>
            </trkpt>
            <trkpt lon="101.082909" lat="13.206838">
                <ele>140.490000</ele>
                <time>2014-08-30T10:05:53Z</time>
            </trkpt>
            <trkpt lon="101.082822" lat="13.206619">
                <ele>141.930000</ele>
                <time>2014-08-30T10:06:09Z</time>
            </trkpt>
            <trkpt lon="101.082819" lat="13.206596">
                <ele>142.410000</ele>
                <time>2014-08-30T10:06:11Z</time>
            </trkpt>
            <trkpt lon="101.082870" lat="13.206554">
                <ele>142.410000</ele>
                <time>2014-08-30T10:06:16Z</time>
            </trkpt>
            <trkpt lon="101.083310" lat="13.206432">
                <ele>142.410000</ele>
                <time>2014-08-30T10:06:34Z</time>
            </trkpt>
            <trkpt lon="101.083637" lat="13.206613">
                <ele>141.930000</ele>
                <time>2014-08-30T10:06:45Z</time>
            </trkpt>
            <trkpt lon="101.084071" lat="13.206637">
                <ele>141.450000</ele>
                <time>2014-08-30T10:06:58Z</time>
            </trkpt>
            <trkpt lon="101.084127" lat="13.206626">
                <ele>140.490000</ele>
                <time>2014-08-30T10:07:09Z</time>
            </trkpt>
            <trkpt lon="101.084127" lat="13.206625">
                <ele>140.970000</ele>
                <time>2014-08-30T10:07:11Z</time>
            </trkpt>
            <trkpt lon="101.084186" lat="13.206600">
                <ele>140.970000</ele>
                <time>2014-08-30T10:07:16Z</time>
            </trkpt>
            <trkpt lon="101.084387" lat="13.206475">
                <ele>140.490000</ele>
                <time>2014-08-30T10:07:27Z</time>
            </trkpt>
            <trkpt lon="101.084939" lat="13.206123">
                <ele>140.010000</ele>
                <time>2014-08-30T10:07:43Z</time>
            </trkpt>
            <trkpt lon="101.085795" lat="13.205634">
                <ele>137.610000</ele>
                <time>2014-08-30T10:08:05Z</time>
            </trkpt>
            <trkpt lon="101.086355" lat="13.205414">
                <ele>136.640000</ele>
                <time>2014-08-30T10:08:22Z</time>
            </trkpt>
            <trkpt lon="101.087075" lat="13.205217">
                <ele>135.200000</ele>
                <time>2014-08-30T10:08:41Z</time>
            </trkpt>
            <trkpt lon="101.087272" lat="13.205551">
                <ele>135.200000</ele>
                <time>2014-08-30T10:08:53Z</time>
            </trkpt>
            <trkpt lon="101.087659" lat="13.206265">
                <ele>133.280000</ele>
                <time>2014-08-30T10:09:15Z</time>
            </trkpt>
            <trkpt lon="101.087744" lat="13.206499">
                <ele>131.360000</ele>
                <time>2014-08-30T10:09:21Z</time>
            </trkpt>
            <trkpt lon="101.087782" lat="13.206590">
                <ele>130.880000</ele>
                <time>2014-08-30T10:09:23Z</time>
            </trkpt>
            <trkpt lon="101.087823" lat="13.206728">
                <ele>130.880000</ele>
                <time>2014-08-30T10:09:26Z</time>
            </trkpt>
            <trkpt lon="101.087991" lat="13.206841">
                <ele>129.920000</ele>
                <time>2014-08-30T10:09:31Z</time>
            </trkpt>
            <trkpt lon="101.088231" lat="13.206849">
                <ele>129.430000</ele>
                <time>2014-08-30T10:09:42Z</time>
            </trkpt>
            <trkpt lon="101.088238" lat="13.206836">
                <ele>128.470000</ele>
                <time>2014-08-30T10:10:02Z</time>
            </trkpt>
            <trkpt lon="101.088286" lat="13.206845">
                <ele>128.950000</ele>
                <time>2014-08-30T10:10:33Z</time>
            </trkpt>
            <trkpt lon="101.088343" lat="13.206842">
                <ele>128.950000</ele>
                <time>2014-08-30T10:11:08Z</time>
            </trkpt>
            <trkpt lon="101.088253" lat="13.206835">
                <ele>128.950000</ele>
                <time>2014-08-30T10:11:29Z</time>
            </trkpt>
            <trkpt lon="101.088277" lat="13.206841">
                <ele>129.920000</ele>
                <time>2014-08-30T10:11:50Z</time>
            </trkpt>
            <trkpt lon="101.088677" lat="13.206870">
                <ele>130.400000</ele>
                <time>2014-08-30T10:12:04Z</time>
            </trkpt>
            <trkpt lon="101.089046" lat="13.207020">
                <ele>131.360000</ele>
                <time>2014-08-30T10:12:18Z</time>
            </trkpt>
            <trkpt lon="101.089270" lat="13.207645">
                <ele>132.320000</ele>
                <time>2014-08-30T10:12:37Z</time>
            </trkpt>
            <trkpt lon="101.089445" lat="13.207895">
                <ele>132.320000</ele>
                <time>2014-08-30T10:12:47Z</time>
            </trkpt>
            <trkpt lon="101.089882" lat="13.207697">
                <ele>129.920000</ele>
                <time>2014-08-30T10:12:59Z</time>
            </trkpt>
            <trkpt lon="101.090940" lat="13.207218">
                <ele>127.510000</ele>
                <time>2014-08-30T10:13:21Z</time>
            </trkpt>
            <trkpt lon="101.091750" lat="13.206839">
                <ele>126.070000</ele>
                <time>2014-08-30T10:13:40Z</time>
            </trkpt>
            <trkpt lon="101.092622" lat="13.206451">
                <ele>125.110000</ele>
                <time>2014-08-30T10:14:01Z</time>
            </trkpt>
            <trkpt lon="101.092697" lat="13.206429">
                <ele>125.110000</ele>
                <time>2014-08-30T10:14:05Z</time>
            </trkpt>
            <trkpt lon="101.092726" lat="13.206380">
                <ele>125.110000</ele>
                <time>2014-08-30T10:14:08Z</time>
            </trkpt>
            <trkpt lon="101.092724" lat="13.206354">
                <ele>125.590000</ele>
                <time>2014-08-30T10:14:09Z</time>
            </trkpt>
            <trkpt lon="101.092716" lat="13.206323">
                <ele>125.590000</ele>
                <time>2014-08-30T10:14:10Z</time>
            </trkpt>
            <trkpt lon="101.092486" lat="13.205518">
                <ele>126.070000</ele>
                <time>2014-08-30T10:14:30Z</time>
            </trkpt>
            <trkpt lon="101.092224" lat="13.204536">
                <ele>127.030000</ele>
                <time>2014-08-30T10:14:52Z</time>
            </trkpt>
            <trkpt lon="101.091961" lat="13.203582">
                <ele>128.950000</ele>
                <time>2014-08-30T10:15:17Z</time>
            </trkpt>
            <trkpt lon="101.091746" lat="13.202820">
                <ele>129.920000</ele>
                <time>2014-08-30T10:15:37Z</time>
            </trkpt>
            <trkpt lon="101.091495" lat="13.201918">
                <ele>130.880000</ele>
                <time>2014-08-30T10:16:01Z</time>
            </trkpt>
            <trkpt lon="101.091222" lat="13.200975">
                <ele>131.840000</ele>
                <time>2014-08-30T10:16:24Z</time>
            </trkpt>
            <trkpt lon="101.090968" lat="13.200105">
                <ele>127.990000</ele>
                <time>2014-08-30T10:16:44Z</time>
            </trkpt>
            <trkpt lon="101.090953" lat="13.200049">
                <ele>140.490000</ele>
                <time>2014-08-30T10:16:45Z</time>
            </trkpt>
            <trkpt lon="101.090936" lat="13.199995">
                <ele>133.280000</ele>
                <time>2014-08-30T10:16:46Z</time>
            </trkpt>
            <trkpt lon="101.090684" lat="13.199105">
                <ele>132.800000</ele>
                <time>2014-08-30T10:17:05Z</time>
            </trkpt>
            <trkpt lon="101.090479" lat="13.198292">
                <ele>134.240000</ele>
                <time>2014-08-30T10:17:25Z</time>
            </trkpt>
            <trkpt lon="101.090236" lat="13.197357">
                <ele>135.680000</ele>
                <time>2014-08-30T10:17:49Z</time>
            </trkpt>
            <trkpt lon="101.089830" lat="13.196504">
                <ele>137.130000</ele>
                <time>2014-08-30T10:18:13Z</time>
            </trkpt>
            <trkpt lon="101.089333" lat="13.195792">
                <ele>138.090000</ele>
                <time>2014-08-30T10:18:35Z</time>
            </trkpt>
            <trkpt lon="101.088650" lat="13.195000">
                <ele>139.530000</ele>
                <time>2014-08-30T10:19:01Z</time>
            </trkpt>
            <trkpt lon="101.087923" lat="13.194288">
                <ele>139.530000</ele>
                <time>2014-08-30T10:19:26Z</time>
            </trkpt>
            <trkpt lon="101.087182" lat="13.193662">
                <ele>142.410000</ele>
                <time>2014-08-30T10:19:51Z</time>
            </trkpt>
            <trkpt lon="101.086525" lat="13.193178">
                <ele>143.370000</ele>
                <time>2014-08-30T10:20:13Z</time>
            </trkpt>
            <trkpt lon="101.085805" lat="13.192630">
                <ele>145.300000</ele>
                <time>2014-08-30T10:20:37Z</time>
            </trkpt>
            <trkpt lon="101.084994" lat="13.192009">
                <ele>147.220000</ele>
                <time>2014-08-30T10:21:04Z</time>
            </trkpt>
            <trkpt lon="101.084341" lat="13.191548">
                <ele>148.180000</ele>
                <time>2014-08-30T10:21:25Z</time>
            </trkpt>
            <trkpt lon="101.083511" lat="13.191026">
                <ele>150.100000</ele>
                <time>2014-08-30T10:21:51Z</time>
            </trkpt>
            <trkpt lon="101.082766" lat="13.190557">
                <ele>151.540000</ele>
                <time>2014-08-30T10:22:15Z</time>
            </trkpt>
            <trkpt lon="101.082040" lat="13.189936">
                <ele>152.990000</ele>
                <time>2014-08-30T10:22:40Z</time>
            </trkpt>
            <trkpt lon="101.081859" lat="13.189799">
                <ele>152.510000</ele>
                <time>2014-08-30T10:22:45Z</time>
            </trkpt>
            <trkpt lon="101.081071" lat="13.189188">
                <ele>149.620000</ele>
                <time>2014-08-30T10:23:03Z</time>
            </trkpt>
            <trkpt lon="101.080265" lat="13.188773">
                <ele>148.180000</ele>
                <time>2014-08-30T10:23:18Z</time>
            </trkpt>
            <trkpt lon="101.080216" lat="13.188757">
                <ele>148.660000</ele>
                <time>2014-08-30T10:23:19Z</time>
            </trkpt>
            <trkpt lon="101.079994" lat="13.188685">
                <ele>148.180000</ele>
                <time>2014-08-30T10:23:24Z</time>
            </trkpt>
            <trkpt lon="101.079956" lat="13.188664">
                <ele>148.180000</ele>
                <time>2014-08-30T10:23:25Z</time>
            </trkpt>
            <trkpt lon="101.079877" lat="13.188621">
                <ele>148.180000</ele>
                <time>2014-08-30T10:23:27Z</time>
            </trkpt>
            <trkpt lon="101.079832" lat="13.188607">
                <ele>148.180000</ele>
                <time>2014-08-30T10:23:28Z</time>
            </trkpt>
            <trkpt lon="101.079746" lat="13.188585">
                <ele>148.660000</ele>
                <time>2014-08-30T10:23:30Z</time>
            </trkpt>
            <trkpt lon="101.079708" lat="13.188571">
                <ele>148.180000</ele>
                <time>2014-08-30T10:23:31Z</time>
            </trkpt>
            <trkpt lon="101.078981" lat="13.188366">
                <ele>148.660000</ele>
                <time>2014-08-30T10:23:49Z</time>
            </trkpt>
            <trkpt lon="101.078260" lat="13.188234">
                <ele>149.140000</ele>
                <time>2014-08-30T10:24:07Z</time>
            </trkpt>
            <trkpt lon="101.077532" lat="13.188097">
                <ele>149.140000</ele>
                <time>2014-08-30T10:24:24Z</time>
            </trkpt>
            <trkpt lon="101.076474" lat="13.187898">
                <ele>147.220000</ele>
                <time>2014-08-30T10:24:45Z</time>
            </trkpt>
            <trkpt lon="101.076435" lat="13.187891">
                <ele>146.740000</ele>
                <time>2014-08-30T10:24:46Z</time>
            </trkpt>
            <trkpt lon="101.076408" lat="13.187888">
                <ele>146.740000</ele>
                <time>2014-08-30T10:24:47Z</time>
            </trkpt>
            <trkpt lon="101.076396" lat="13.187858">
                <ele>145.300000</ele>
                <time>2014-08-30T10:24:54Z</time>
            </trkpt>
            <trkpt lon="101.076329" lat="13.187550">
                <ele>144.820000</ele>
                <time>2014-08-30T10:25:04Z</time>
            </trkpt>
            <trkpt lon="101.076273" lat="13.186738">
                <ele>143.370000</ele>
                <time>2014-08-30T10:25:20Z</time>
            </trkpt>
            <trkpt lon="101.076246" lat="13.185677">
                <ele>140.970000</ele>
                <time>2014-08-30T10:25:38Z</time>
            </trkpt>
            <trkpt lon="101.076379" lat="13.185134">
                <ele>139.530000</ele>
                <time>2014-08-30T10:25:47Z</time>
            </trkpt>
            <trkpt lon="101.076488" lat="13.184557">
                <ele>138.090000</ele>
                <time>2014-08-30T10:25:56Z</time>
            </trkpt>
            <trkpt lon="101.076487" lat="13.184496">
                <ele>138.090000</ele>
                <time>2014-08-30T10:25:57Z</time>
            </trkpt>
            <trkpt lon="101.076486" lat="13.184380">
                <ele>137.610000</ele>
                <time>2014-08-30T10:25:59Z</time>
            </trkpt>
            <trkpt lon="101.076501" lat="13.184201">
                <ele>137.610000</ele>
                <time>2014-08-30T10:26:02Z</time>
            </trkpt>
            <trkpt lon="101.076496" lat="13.184138">
                <ele>137.130000</ele>
                <time>2014-08-30T10:26:03Z</time>
            </trkpt>
            <trkpt lon="101.076382" lat="13.183144">
                <ele>134.240000</ele>
                <time>2014-08-30T10:26:17Z</time>
            </trkpt>
            <trkpt lon="101.076226" lat="13.181958">
                <ele>132.800000</ele>
                <time>2014-08-30T10:26:33Z</time>
            </trkpt>
            <trkpt lon="101.076121" lat="13.181295">
                <ele>134.720000</ele>
                <time>2014-08-30T10:26:47Z</time>
            </trkpt>
            <trkpt lon="101.076013" lat="13.180802">
                <ele>137.610000</ele>
                <time>2014-08-30T10:27:01Z</time>
            </trkpt>
            <trkpt lon="101.075896" lat="13.180193">
                <ele>140.490000</ele>
                <time>2014-08-30T10:27:21Z</time>
            </trkpt>
            <trkpt lon="101.075714" lat="13.179523">
                <ele>141.450000</ele>
                <time>2014-08-30T10:27:43Z</time>
            </trkpt>
            <trkpt lon="101.075433" lat="13.178800">
                <ele>140.010000</ele>
                <time>2014-08-30T10:27:59Z</time>
            </trkpt>
            <trkpt lon="101.075276" lat="13.178335">
                <ele>137.130000</ele>
                <time>2014-08-30T10:28:05Z</time>
            </trkpt>
            <trkpt lon="101.074960" lat="13.177583">
                <ele>134.240000</ele>
                <time>2014-08-30T10:28:14Z</time>
            </trkpt>
            <trkpt lon="101.074422" lat="13.176324">
                <ele>131.360000</ele>
                <time>2014-08-30T10:28:32Z</time>
            </trkpt>
            <trkpt lon="101.073907" lat="13.175177">
                <ele>127.510000</ele>
                <time>2014-08-30T10:28:48Z</time>
            </trkpt>
            <trkpt lon="101.073817" lat="13.174919">
                <ele>126.550000</ele>
                <time>2014-08-30T10:28:51Z</time>
            </trkpt>
            <trkpt lon="101.073708" lat="13.174188">
                <ele>123.190000</ele>
                <time>2014-08-30T10:28:59Z</time>
            </trkpt>
            <trkpt lon="101.073604" lat="13.173074">
                <ele>120.300000</ele>
                <time>2014-08-30T10:29:12Z</time>
            </trkpt>
            <trkpt lon="101.073596" lat="13.171863">
                <ele>116.940000</ele>
                <time>2014-08-30T10:29:27Z</time>
            </trkpt>
            <trkpt lon="101.073569" lat="13.170338">
                <ele>113.570000</ele>
                <time>2014-08-30T10:29:45Z</time>
            </trkpt>
            <trkpt lon="101.073438" lat="13.169264">
                <ele>111.170000</ele>
                <time>2014-08-30T10:29:58Z</time>
            </trkpt>
            <trkpt lon="101.073407" lat="13.169189">
                <ele>111.170000</ele>
                <time>2014-08-30T10:29:59Z</time>
            </trkpt>
            <trkpt lon="101.072788" lat="13.167793">
                <ele>108.770000</ele>
                <time>2014-08-30T10:30:18Z</time>
            </trkpt>
            <trkpt lon="101.072315" lat="13.166443">
                <ele>106.840000</ele>
                <time>2014-08-30T10:30:37Z</time>
            </trkpt>
            <trkpt lon="101.071929" lat="13.165328">
                <ele>103.960000</ele>
                <time>2014-08-30T10:30:53Z</time>
            </trkpt>
            <trkpt lon="101.071924" lat="13.165265">
                <ele>104.440000</ele>
                <time>2014-08-30T10:30:54Z</time>
            </trkpt>
            <trkpt lon="101.071935" lat="13.165206">
                <ele>103.960000</ele>
                <time>2014-08-30T10:30:55Z</time>
            </trkpt>
            <trkpt lon="101.071962" lat="13.165155">
                <ele>103.480000</ele>
                <time>2014-08-30T10:30:56Z</time>
            </trkpt>
            <trkpt lon="101.072004" lat="13.165115">
                <ele>103.480000</ele>
                <time>2014-08-30T10:30:57Z</time>
            </trkpt>
            <trkpt lon="101.072060" lat="13.165085">
                <ele>103.480000</ele>
                <time>2014-08-30T10:30:58Z</time>
            </trkpt>
            <trkpt lon="101.072120" lat="13.165059">
                <ele>103.960000</ele>
                <time>2014-08-30T10:30:59Z</time>
            </trkpt>
            <trkpt lon="101.072563" lat="13.164784">
                <ele>102.040000</ele>
                <time>2014-08-30T10:31:07Z</time>
            </trkpt>
            <trkpt lon="101.072622" lat="13.164769">
                <ele>102.520000</ele>
                <time>2014-08-30T10:31:08Z</time>
            </trkpt>
            <trkpt lon="101.072680" lat="13.164770">
                <ele>102.040000</ele>
                <time>2014-08-30T10:31:09Z</time>
            </trkpt>
            <trkpt lon="101.072729" lat="13.164788">
                <ele>101.560000</ele>
                <time>2014-08-30T10:31:10Z</time>
            </trkpt>
            <trkpt lon="101.072764" lat="13.164822">
                <ele>101.560000</ele>
                <time>2014-08-30T10:31:11Z</time>
            </trkpt>
            <trkpt lon="101.072788" lat="13.164865">
                <ele>102.520000</ele>
                <time>2014-08-30T10:31:12Z</time>
            </trkpt>
            <trkpt lon="101.072807" lat="13.164912">
                <ele>101.560000</ele>
                <time>2014-08-30T10:31:13Z</time>
            </trkpt>
            <trkpt lon="101.072824" lat="13.164961">
                <ele>102.040000</ele>
                <time>2014-08-30T10:31:14Z</time>
            </trkpt>
            <trkpt lon="101.072905" lat="13.165151">
                <ele>102.040000</ele>
                <time>2014-08-30T10:31:18Z</time>
            </trkpt>
            <trkpt lon="101.072936" lat="13.165192">
                <ele>102.520000</ele>
                <time>2014-08-30T10:31:19Z</time>
            </trkpt>
            <trkpt lon="101.072977" lat="13.165225">
                <ele>102.520000</ele>
                <time>2014-08-30T10:31:20Z</time>
            </trkpt>
            <trkpt lon="101.073026" lat="13.165245">
                <ele>102.520000</ele>
                <time>2014-08-30T10:31:21Z</time>
            </trkpt>
            <trkpt lon="101.073082" lat="13.165254">
                <ele>102.520000</ele>
                <time>2014-08-30T10:31:22Z</time>
            </trkpt>
            <trkpt lon="101.073141" lat="13.165257">
                <ele>103.000000</ele>
                <time>2014-08-30T10:31:23Z</time>
            </trkpt>
            <trkpt lon="101.073202" lat="13.165257">
                <ele>102.520000</ele>
                <time>2014-08-30T10:31:24Z</time>
            </trkpt>
            <trkpt lon="101.074176" lat="13.165195">
                <ele>101.560000</ele>
                <time>2014-08-30T10:31:40Z</time>
            </trkpt>
            <trkpt lon="101.075165" lat="13.165156">
                <ele>102.040000</ele>
                <time>2014-08-30T10:31:57Z</time>
            </trkpt>
            <trkpt lon="101.075329" lat="13.165141">
                <ele>103.000000</ele>
                <time>2014-08-30T10:32:00Z</time>
            </trkpt>
            <trkpt lon="101.076171" lat="13.165139">
                <ele>103.960000</ele>
                <time>2014-08-30T10:32:17Z</time>
            </trkpt>
            <trkpt lon="101.077062" lat="13.165267">
                <ele>102.520000</ele>
                <time>2014-08-30T10:32:32Z</time>
            </trkpt>
            <trkpt lon="101.078017" lat="13.165655">
                <ele>101.560000</ele>
                <time>2014-08-30T10:32:48Z</time>
            </trkpt>
            <trkpt lon="101.078067" lat="13.165684">
                <ele>101.560000</ele>
                <time>2014-08-30T10:32:49Z</time>
            </trkpt>
            <trkpt lon="101.078121" lat="13.165705">
                <ele>102.040000</ele>
                <time>2014-08-30T10:32:50Z</time>
            </trkpt>
            <trkpt lon="101.078472" lat="13.165824">
                <ele>102.520000</ele>
                <time>2014-08-30T10:32:57Z</time>
            </trkpt>
            <trkpt lon="101.078511" lat="13.165853">
                <ele>102.520000</ele>
                <time>2014-08-30T10:32:58Z</time>
            </trkpt>
            <trkpt lon="101.079293" lat="13.166489">
                <ele>103.000000</ele>
                <time>2014-08-30T10:33:18Z</time>
            </trkpt>
            <trkpt lon="101.079858" lat="13.166961">
                <ele>103.960000</ele>
                <time>2014-08-30T10:33:34Z</time>
            </trkpt>
            <trkpt lon="101.080242" lat="13.167260">
                <ele>105.880000</ele>
                <time>2014-08-30T10:33:52Z</time>
            </trkpt>
            <trkpt lon="101.080677" lat="13.167610">
                <ele>107.810000</ele>
                <time>2014-08-30T10:34:13Z</time>
            </trkpt>
            <trkpt lon="101.081158" lat="13.167972">
                <ele>109.250000</ele>
                <time>2014-08-30T10:34:32Z</time>
            </trkpt>
            <trkpt lon="101.081718" lat="13.168364">
                <ele>110.210000</ele>
                <time>2014-08-30T10:34:51Z</time>
            </trkpt>
            <trkpt lon="101.082416" lat="13.168782">
                <ele>111.170000</ele>
                <time>2014-08-30T10:35:12Z</time>
            </trkpt>
            <trkpt lon="101.083045" lat="13.169023">
                <ele>112.610000</ele>
                <time>2014-08-30T10:35:32Z</time>
            </trkpt>
            <trkpt lon="101.083752" lat="13.169210">
                <ele>113.570000</ele>
                <time>2014-08-30T10:35:53Z</time>
            </trkpt>
            <trkpt lon="101.084464" lat="13.169310">
                <ele>114.530000</ele>
                <time>2014-08-30T10:36:13Z</time>
            </trkpt>
            <trkpt lon="101.085205" lat="13.169221">
                <ele>115.010000</ele>
                <time>2014-08-30T10:36:33Z</time>
            </trkpt>
            <trkpt lon="101.086010" lat="13.169093">
                <ele>117.420000</ele>
                <time>2014-08-30T10:36:58Z</time>
            </trkpt>
            <trkpt lon="101.086625" lat="13.169084">
                <ele>118.860000</ele>
                <time>2014-08-30T10:37:19Z</time>
            </trkpt>
            <trkpt lon="101.087193" lat="13.169004">
                <ele>120.780000</ele>
                <time>2014-08-30T10:37:39Z</time>
            </trkpt>
            <trkpt lon="101.087728" lat="13.168902">
                <ele>121.740000</ele>
                <time>2014-08-30T10:37:59Z</time>
            </trkpt>
            <trkpt lon="101.087932" lat="13.168795">
                <ele>119.340000</ele>
                <time>2014-08-30T10:38:06Z</time>
            </trkpt>
            <trkpt lon="101.087939" lat="13.168768">
                <ele>119.340000</ele>
                <time>2014-08-30T10:38:07Z</time>
            </trkpt>
            <trkpt lon="101.087884" lat="13.168480">
                <ele>117.900000</ele>
                <time>2014-08-30T10:38:15Z</time>
            </trkpt>
            <trkpt lon="101.087901" lat="13.168384">
                <ele>117.900000</ele>
                <time>2014-08-30T10:38:17Z</time>
            </trkpt>
            <trkpt lon="101.087904" lat="13.168269">
                <ele>116.940000</ele>
                <time>2014-08-30T10:38:20Z</time>
            </trkpt>
            <trkpt lon="101.087595" lat="13.168167">
                <ele>116.460000</ele>
                <time>2014-08-30T10:38:28Z</time>
            </trkpt>
            <trkpt lon="101.087494" lat="13.168204">
                <ele>115.980000</ele>
                <time>2014-08-30T10:38:31Z</time>
            </trkpt>
            <trkpt lon="101.087402" lat="13.168065">
                <ele>114.530000</ele>
                <time>2014-08-30T10:38:36Z</time>
            </trkpt>
            <trkpt lon="101.087239" lat="13.167758">
                <ele>116.940000</ele>
                <time>2014-08-30T10:38:49Z</time>
            </trkpt>
            <trkpt lon="101.087183" lat="13.167561">
                <ele>117.900000</ele>
                <time>2014-08-30T10:39:02Z</time>
            </trkpt>
            <trkpt lon="101.087308" lat="13.167347">
                <ele>119.340000</ele>
                <time>2014-08-30T10:39:18Z</time>
            </trkpt>
            <trkpt lon="101.087307" lat="13.167090">
                <ele>122.710000</ele>
                <time>2014-08-30T10:39:35Z</time>
            </trkpt>
            <trkpt lon="101.087277" lat="13.166853">
                <ele>123.670000</ele>
                <time>2014-08-30T10:39:52Z</time>
            </trkpt>
        </trkseg>
    </trk>
</gpx>